<?xml version="1.0" encoding="UTF-8" standalone="no" ?>
<gpx xmlns="http://www.topografix.com/GPX/1/1" xmlns:xsi="http://www.w3.org/2001/XMLSchema-instance" xsi:schemaLocation="http://www.topografix.com/GPX/1/1 http://www.topografix.com/GPX/1/1/gpx.xsd" version="1.1" creator="VisuGPX - https://www.visugpx.com">
  <metadata>
    <name>2021-01-26 Testa del Fontanile</name>
  </metadata>
  <trk>
    <name><![CDATA[2021-01-26 14:09:10]]></name>
    <trkseg>
      <trkpt lat="44.29569" lon="7.28599">
        <ele>1177.27</ele>
        <time>2021-01-26T07:41:51Z</time>
      </trkpt>
      <trkpt lat="44.29568" lon="7.28588">
        <ele>1170.54</ele>
        <time>2021-01-26T07:42:05Z</time>
      </trkpt>
      <trkpt lat="44.29568" lon="7.28581">
        <ele>1173.43</ele>
        <time>2021-01-26T07:42:11Z</time>
      </trkpt>
      <trkpt lat="44.29572" lon="7.28565">
        <ele>1176.31</ele>
        <time>2021-01-26T07:42:24Z</time>
      </trkpt>
      <trkpt lat="44.29573" lon="7.28562">
        <ele>1176.79</ele>
        <time>2021-01-26T07:42:26Z</time>
      </trkpt>
      <trkpt lat="44.29573" lon="7.28543">
        <ele>1180.16</ele>
        <time>2021-01-26T07:42:37Z</time>
      </trkpt>
      <trkpt lat="44.29571" lon="7.28516">
        <ele>1185.92</ele>
        <time>2021-01-26T07:42:54Z</time>
      </trkpt>
      <trkpt lat="44.29572" lon="7.2851">
        <ele>1187.37</ele>
        <time>2021-01-26T07:42:59Z</time>
      </trkpt>
      <trkpt lat="44.29571" lon="7.28504">
        <ele>1186.88</ele>
        <time>2021-01-26T07:43:05Z</time>
      </trkpt>
      <trkpt lat="44.29576" lon="7.28484">
        <ele>1188.33</ele>
        <time>2021-01-26T07:43:20Z</time>
      </trkpt>
      <trkpt lat="44.29578" lon="7.28475">
        <ele>1188.81</ele>
        <time>2021-01-26T07:43:33Z</time>
      </trkpt>
      <trkpt lat="44.2958" lon="7.28465">
        <ele>1188.33</ele>
        <time>2021-01-26T07:43:45Z</time>
      </trkpt>
      <trkpt lat="44.29581" lon="7.28464">
        <ele>1185.92</ele>
        <time>2021-01-26T07:43:56Z</time>
      </trkpt>
      <trkpt lat="44.29579" lon="7.28464">
        <ele>1185.44</ele>
        <time>2021-01-26T07:44:17Z</time>
      </trkpt>
      <trkpt lat="44.29579" lon="7.28463">
        <ele>1186.4</ele>
        <time>2021-01-26T07:44:30Z</time>
      </trkpt>
      <trkpt lat="44.29581" lon="7.28462">
        <ele>1186.4</ele>
        <time>2021-01-26T07:44:47Z</time>
      </trkpt>
      <trkpt lat="44.29582" lon="7.2846">
        <ele>1188.81</ele>
        <time>2021-01-26T07:45:09Z</time>
      </trkpt>
      <trkpt lat="44.29581" lon="7.2846">
        <ele>1188.81</ele>
        <time>2021-01-26T07:45:25Z</time>
      </trkpt>
      <trkpt lat="44.29582" lon="7.28451">
        <ele>1187.37</ele>
        <time>2021-01-26T07:45:37Z</time>
      </trkpt>
      <trkpt lat="44.29584" lon="7.28435">
        <ele>1186.4</ele>
        <time>2021-01-26T07:45:49Z</time>
      </trkpt>
      <trkpt lat="44.29585" lon="7.28425">
        <ele>1186.88</ele>
        <time>2021-01-26T07:46:00Z</time>
      </trkpt>
      <trkpt lat="44.29584" lon="7.28415">
        <ele>1186.88</ele>
        <time>2021-01-26T07:46:12Z</time>
      </trkpt>
      <trkpt lat="44.29584" lon="7.28413">
        <ele>1186.88</ele>
        <time>2021-01-26T07:46:14Z</time>
      </trkpt>
      <trkpt lat="44.29587" lon="7.28406">
        <ele>1186.88</ele>
        <time>2021-01-26T07:46:18Z</time>
      </trkpt>
      <trkpt lat="44.2959" lon="7.28397">
        <ele>1188.33</ele>
        <time>2021-01-26T07:46:24Z</time>
      </trkpt>
      <trkpt lat="44.2959" lon="7.28384">
        <ele>1190.25</ele>
        <time>2021-01-26T07:46:35Z</time>
      </trkpt>
      <trkpt lat="44.2959" lon="7.28364">
        <ele>1191.21</ele>
        <time>2021-01-26T07:46:48Z</time>
      </trkpt>
      <trkpt lat="44.29589" lon="7.28357">
        <ele>1191.69</ele>
        <time>2021-01-26T07:46:53Z</time>
      </trkpt>
      <trkpt lat="44.29589" lon="7.28344">
        <ele>1191.21</ele>
        <time>2021-01-26T07:47:06Z</time>
      </trkpt>
      <trkpt lat="44.2959" lon="7.28332">
        <ele>1192.17</ele>
        <time>2021-01-26T07:47:18Z</time>
      </trkpt>
      <trkpt lat="44.29593" lon="7.28323">
        <ele>1192.17</ele>
        <time>2021-01-26T07:47:32Z</time>
      </trkpt>
      <trkpt lat="44.29599" lon="7.28313">
        <ele>1193.61</ele>
        <time>2021-01-26T07:47:45Z</time>
      </trkpt>
      <trkpt lat="44.296" lon="7.28311">
        <ele>1193.13</ele>
        <time>2021-01-26T07:47:48Z</time>
      </trkpt>
      <trkpt lat="44.29606" lon="7.28302">
        <ele>1193.13</ele>
        <time>2021-01-26T07:47:59Z</time>
      </trkpt>
      <trkpt lat="44.29614" lon="7.28291">
        <ele>1193.13</ele>
        <time>2021-01-26T07:48:12Z</time>
      </trkpt>
      <trkpt lat="44.29614" lon="7.2829">
        <ele>1193.13</ele>
        <time>2021-01-26T07:48:13Z</time>
      </trkpt>
      <trkpt lat="44.2962" lon="7.28279">
        <ele>1194.09</ele>
        <time>2021-01-26T07:48:25Z</time>
      </trkpt>
      <trkpt lat="44.29623" lon="7.28275">
        <ele>1194.58</ele>
        <time>2021-01-26T07:48:30Z</time>
      </trkpt>
      <trkpt lat="44.29628" lon="7.28263">
        <ele>1195.54</ele>
        <time>2021-01-26T07:48:44Z</time>
      </trkpt>
      <trkpt lat="44.2963" lon="7.28258">
        <ele>1196.5</ele>
        <time>2021-01-26T07:48:49Z</time>
      </trkpt>
      <trkpt lat="44.29638" lon="7.28245">
        <ele>1197.46</ele>
        <time>2021-01-26T07:49:02Z</time>
      </trkpt>
      <trkpt lat="44.29644" lon="7.28234">
        <ele>1199.38</ele>
        <time>2021-01-26T07:49:13Z</time>
      </trkpt>
      <trkpt lat="44.29646" lon="7.28231">
        <ele>1198.9</ele>
        <time>2021-01-26T07:49:17Z</time>
      </trkpt>
      <trkpt lat="44.29654" lon="7.28221">
        <ele>1198.42</ele>
        <time>2021-01-26T07:49:29Z</time>
      </trkpt>
      <trkpt lat="44.29661" lon="7.28208">
        <ele>1200.82</ele>
        <time>2021-01-26T07:49:40Z</time>
      </trkpt>
      <trkpt lat="44.29668" lon="7.28198">
        <ele>1202.75</ele>
        <time>2021-01-26T07:49:50Z</time>
      </trkpt>
      <trkpt lat="44.29676" lon="7.28187">
        <ele>1203.71</ele>
        <time>2021-01-26T07:50:02Z</time>
      </trkpt>
      <trkpt lat="44.29679" lon="7.28183">
        <ele>1203.71</ele>
        <time>2021-01-26T07:50:09Z</time>
      </trkpt>
      <trkpt lat="44.29682" lon="7.28178">
        <ele>1204.67</ele>
        <time>2021-01-26T07:50:15Z</time>
      </trkpt>
      <trkpt lat="44.29684" lon="7.28173">
        <ele>1204.67</ele>
        <time>2021-01-26T07:50:21Z</time>
      </trkpt>
      <trkpt lat="44.29689" lon="7.2816">
        <ele>1204.19</ele>
        <time>2021-01-26T07:50:33Z</time>
      </trkpt>
      <trkpt lat="44.29691" lon="7.28153">
        <ele>1204.67</ele>
        <time>2021-01-26T07:50:40Z</time>
      </trkpt>
      <trkpt lat="44.29696" lon="7.28144">
        <ele>1205.63</ele>
        <time>2021-01-26T07:50:48Z</time>
      </trkpt>
      <trkpt lat="44.29703" lon="7.28132">
        <ele>1206.11</ele>
        <time>2021-01-26T07:51:00Z</time>
      </trkpt>
      <trkpt lat="44.2971" lon="7.28122">
        <ele>1206.11</ele>
        <time>2021-01-26T07:51:13Z</time>
      </trkpt>
      <trkpt lat="44.29719" lon="7.28112">
        <ele>1206.59</ele>
        <time>2021-01-26T07:51:26Z</time>
      </trkpt>
      <trkpt lat="44.29725" lon="7.281">
        <ele>1208.03</ele>
        <time>2021-01-26T07:51:39Z</time>
      </trkpt>
      <trkpt lat="44.29726" lon="7.28099">
        <ele>1208.51</ele>
        <time>2021-01-26T07:51:41Z</time>
      </trkpt>
      <trkpt lat="44.29728" lon="7.28086">
        <ele>1211.88</ele>
        <time>2021-01-26T07:51:54Z</time>
      </trkpt>
      <trkpt lat="44.29729" lon="7.28069">
        <ele>1214.28</ele>
        <time>2021-01-26T07:52:06Z</time>
      </trkpt>
      <trkpt lat="44.29729" lon="7.28054">
        <ele>1214.28</ele>
        <time>2021-01-26T07:52:17Z</time>
      </trkpt>
      <trkpt lat="44.29728" lon="7.2805">
        <ele>1214.76</ele>
        <time>2021-01-26T07:52:20Z</time>
      </trkpt>
      <trkpt lat="44.29721" lon="7.28036">
        <ele>1215.24</ele>
        <time>2021-01-26T07:52:33Z</time>
      </trkpt>
      <trkpt lat="44.29717" lon="7.28031">
        <ele>1216.69</ele>
        <time>2021-01-26T07:52:39Z</time>
      </trkpt>
      <trkpt lat="44.29709" lon="7.28027">
        <ele>1219.57</ele>
        <time>2021-01-26T07:52:52Z</time>
      </trkpt>
      <trkpt lat="44.29701" lon="7.2803">
        <ele>1221.01</ele>
        <time>2021-01-26T07:53:06Z</time>
      </trkpt>
      <trkpt lat="44.29695" lon="7.28034">
        <ele>1220.53</ele>
        <time>2021-01-26T07:53:14Z</time>
      </trkpt>
      <trkpt lat="44.29692" lon="7.28037">
        <ele>1221.01</ele>
        <time>2021-01-26T07:53:19Z</time>
      </trkpt>
      <trkpt lat="44.29682" lon="7.28044">
        <ele>1225.34</ele>
        <time>2021-01-26T07:53:33Z</time>
      </trkpt>
      <trkpt lat="44.29676" lon="7.28048">
        <ele>1229.66</ele>
        <time>2021-01-26T07:53:45Z</time>
      </trkpt>
      <trkpt lat="44.29669" lon="7.28053">
        <ele>1233.03</ele>
        <time>2021-01-26T07:53:58Z</time>
      </trkpt>
      <trkpt lat="44.2966" lon="7.28059">
        <ele>1234.95</ele>
        <time>2021-01-26T07:54:10Z</time>
      </trkpt>
      <trkpt lat="44.29652" lon="7.28056">
        <ele>1234.95</ele>
        <time>2021-01-26T07:54:24Z</time>
      </trkpt>
      <trkpt lat="44.29649" lon="7.28047">
        <ele>1233.03</ele>
        <time>2021-01-26T07:54:36Z</time>
      </trkpt>
      <trkpt lat="44.29651" lon="7.2804">
        <ele>1232.07</ele>
        <time>2021-01-26T07:54:46Z</time>
      </trkpt>
      <trkpt lat="44.29653" lon="7.2803">
        <ele>1232.55</ele>
        <time>2021-01-26T07:54:55Z</time>
      </trkpt>
      <trkpt lat="44.29659" lon="7.28017">
        <ele>1232.55</ele>
        <time>2021-01-26T07:55:08Z</time>
      </trkpt>
      <trkpt lat="44.29662" lon="7.28006">
        <ele>1233.51</ele>
        <time>2021-01-26T07:55:20Z</time>
      </trkpt>
      <trkpt lat="44.29663" lon="7.28003">
        <ele>1233.51</ele>
        <time>2021-01-26T07:55:24Z</time>
      </trkpt>
      <trkpt lat="44.29669" lon="7.27987">
        <ele>1234.47</ele>
        <time>2021-01-26T07:55:38Z</time>
      </trkpt>
      <trkpt lat="44.29673" lon="7.27977">
        <ele>1233.51</ele>
        <time>2021-01-26T07:55:50Z</time>
      </trkpt>
      <trkpt lat="44.29679" lon="7.27966">
        <ele>1233.99</ele>
        <time>2021-01-26T07:56:07Z</time>
      </trkpt>
      <trkpt lat="44.29687" lon="7.27952">
        <ele>1234.95</ele>
        <time>2021-01-26T07:56:20Z</time>
      </trkpt>
      <trkpt lat="44.29693" lon="7.27945">
        <ele>1236.39</ele>
        <time>2021-01-26T07:56:29Z</time>
      </trkpt>
      <trkpt lat="44.29705" lon="7.27934">
        <ele>1238.32</ele>
        <time>2021-01-26T07:56:42Z</time>
      </trkpt>
      <trkpt lat="44.29711" lon="7.27932">
        <ele>1239.28</ele>
        <time>2021-01-26T07:56:53Z</time>
      </trkpt>
      <trkpt lat="44.29719" lon="7.27932">
        <ele>1242.64</ele>
        <time>2021-01-26T07:57:07Z</time>
      </trkpt>
      <trkpt lat="44.29727" lon="7.27927">
        <ele>1243.12</ele>
        <time>2021-01-26T07:57:16Z</time>
      </trkpt>
      <trkpt lat="44.29737" lon="7.27915">
        <ele>1244.08</ele>
        <time>2021-01-26T07:57:28Z</time>
      </trkpt>
      <trkpt lat="44.29745" lon="7.27901">
        <ele>1244.08</ele>
        <time>2021-01-26T07:57:42Z</time>
      </trkpt>
      <trkpt lat="44.29753" lon="7.27888">
        <ele>1244.08</ele>
        <time>2021-01-26T07:57:56Z</time>
      </trkpt>
      <trkpt lat="44.2976" lon="7.27875">
        <ele>1243.6</ele>
        <time>2021-01-26T07:58:11Z</time>
      </trkpt>
      <trkpt lat="44.29768" lon="7.27867">
        <ele>1243.6</ele>
        <time>2021-01-26T07:58:24Z</time>
      </trkpt>
      <trkpt lat="44.29771" lon="7.27864">
        <ele>1244.08</ele>
        <time>2021-01-26T07:58:28Z</time>
      </trkpt>
      <trkpt lat="44.29778" lon="7.27857">
        <ele>1243.6</ele>
        <time>2021-01-26T07:58:39Z</time>
      </trkpt>
      <trkpt lat="44.29781" lon="7.27853">
        <ele>1244.08</ele>
        <time>2021-01-26T07:58:43Z</time>
      </trkpt>
      <trkpt lat="44.29786" lon="7.27846">
        <ele>1243.6</ele>
        <time>2021-01-26T07:58:51Z</time>
      </trkpt>
      <trkpt lat="44.29792" lon="7.27834">
        <ele>1242.64</ele>
        <time>2021-01-26T07:59:04Z</time>
      </trkpt>
      <trkpt lat="44.29795" lon="7.27824">
        <ele>1242.64</ele>
        <time>2021-01-26T07:59:13Z</time>
      </trkpt>
      <trkpt lat="44.29796" lon="7.2782">
        <ele>1243.12</ele>
        <time>2021-01-26T07:59:17Z</time>
      </trkpt>
      <trkpt lat="44.29797" lon="7.27811">
        <ele>1243.12</ele>
        <time>2021-01-26T07:59:24Z</time>
      </trkpt>
      <trkpt lat="44.29798" lon="7.27805">
        <ele>1243.12</ele>
        <time>2021-01-26T07:59:29Z</time>
      </trkpt>
      <trkpt lat="44.29798" lon="7.2779">
        <ele>1243.12</ele>
        <time>2021-01-26T07:59:42Z</time>
      </trkpt>
      <trkpt lat="44.29797" lon="7.27777">
        <ele>1243.6</ele>
        <time>2021-01-26T07:59:52Z</time>
      </trkpt>
      <trkpt lat="44.29796" lon="7.27768">
        <ele>1243.6</ele>
        <time>2021-01-26T07:59:59Z</time>
      </trkpt>
      <trkpt lat="44.29795" lon="7.27751">
        <ele>1243.12</ele>
        <time>2021-01-26T08:00:11Z</time>
      </trkpt>
      <trkpt lat="44.29794" lon="7.27738">
        <ele>1243.12</ele>
        <time>2021-01-26T08:00:22Z</time>
      </trkpt>
      <trkpt lat="44.29794" lon="7.27722">
        <ele>1245.04</ele>
        <time>2021-01-26T08:00:35Z</time>
      </trkpt>
      <trkpt lat="44.29793" lon="7.27715">
        <ele>1246.01</ele>
        <time>2021-01-26T08:00:42Z</time>
      </trkpt>
      <trkpt lat="44.29792" lon="7.277">
        <ele>1247.45</ele>
        <time>2021-01-26T08:00:54Z</time>
      </trkpt>
      <trkpt lat="44.29793" lon="7.27697">
        <ele>1247.93</ele>
        <time>2021-01-26T08:00:57Z</time>
      </trkpt>
      <trkpt lat="44.29793" lon="7.27693">
        <ele>1247.45</ele>
        <time>2021-01-26T08:01:01Z</time>
      </trkpt>
      <trkpt lat="44.29793" lon="7.27686">
        <ele>1247.45</ele>
        <time>2021-01-26T08:01:07Z</time>
      </trkpt>
      <trkpt lat="44.29792" lon="7.27667">
        <ele>1248.89</ele>
        <time>2021-01-26T08:01:22Z</time>
      </trkpt>
      <trkpt lat="44.29793" lon="7.27649">
        <ele>1250.81</ele>
        <time>2021-01-26T08:01:36Z</time>
      </trkpt>
      <trkpt lat="44.29796" lon="7.27642">
        <ele>1251.77</ele>
        <time>2021-01-26T08:01:42Z</time>
      </trkpt>
      <trkpt lat="44.29801" lon="7.27631">
        <ele>1251.29</ele>
        <time>2021-01-26T08:01:57Z</time>
      </trkpt>
      <trkpt lat="44.29803" lon="7.27628">
        <ele>1250.81</ele>
        <time>2021-01-26T08:02:10Z</time>
      </trkpt>
      <trkpt lat="44.29805" lon="7.27626">
        <ele>1251.77</ele>
        <time>2021-01-26T08:02:24Z</time>
      </trkpt>
      <trkpt lat="44.29807" lon="7.27615">
        <ele>1252.25</ele>
        <time>2021-01-26T08:02:40Z</time>
      </trkpt>
      <trkpt lat="44.29807" lon="7.27613">
        <ele>1251.77</ele>
        <time>2021-01-26T08:02:42Z</time>
      </trkpt>
      <trkpt lat="44.29806" lon="7.27598">
        <ele>1248.41</ele>
        <time>2021-01-26T08:02:54Z</time>
      </trkpt>
      <trkpt lat="44.29808" lon="7.27589">
        <ele>1247.93</ele>
        <time>2021-01-26T08:03:00Z</time>
      </trkpt>
      <trkpt lat="44.29808" lon="7.27573">
        <ele>1247.45</ele>
        <time>2021-01-26T08:03:10Z</time>
      </trkpt>
      <trkpt lat="44.29808" lon="7.27564">
        <ele>1246.49</ele>
        <time>2021-01-26T08:03:21Z</time>
      </trkpt>
      <trkpt lat="44.29808" lon="7.27558">
        <ele>1246.01</ele>
        <time>2021-01-26T08:03:25Z</time>
      </trkpt>
      <trkpt lat="44.29808" lon="7.27549">
        <ele>1246.49</ele>
        <time>2021-01-26T08:03:32Z</time>
      </trkpt>
      <trkpt lat="44.29809" lon="7.27533">
        <ele>1247.45</ele>
        <time>2021-01-26T08:03:45Z</time>
      </trkpt>
      <trkpt lat="44.2981" lon="7.2752">
        <ele>1248.89</ele>
        <time>2021-01-26T08:03:54Z</time>
      </trkpt>
      <trkpt lat="44.29809" lon="7.27507">
        <ele>1248.41</ele>
        <time>2021-01-26T08:04:03Z</time>
      </trkpt>
      <trkpt lat="44.29811" lon="7.27495">
        <ele>1247.93</ele>
        <time>2021-01-26T08:04:17Z</time>
      </trkpt>
      <trkpt lat="44.29811" lon="7.27486">
        <ele>1247.45</ele>
        <time>2021-01-26T08:04:34Z</time>
      </trkpt>
      <trkpt lat="44.29811" lon="7.27468">
        <ele>1248.41</ele>
        <time>2021-01-26T08:04:49Z</time>
      </trkpt>
      <trkpt lat="44.29809" lon="7.27459">
        <ele>1248.41</ele>
        <time>2021-01-26T08:04:56Z</time>
      </trkpt>
      <trkpt lat="44.29808" lon="7.27451">
        <ele>1249.37</ele>
        <time>2021-01-26T08:05:03Z</time>
      </trkpt>
      <trkpt lat="44.29802" lon="7.2744">
        <ele>1248.41</ele>
        <time>2021-01-26T08:05:15Z</time>
      </trkpt>
      <trkpt lat="44.29798" lon="7.27436">
        <ele>1248.89</ele>
        <time>2021-01-26T08:05:22Z</time>
      </trkpt>
      <trkpt lat="44.29792" lon="7.27433">
        <ele>1250.33</ele>
        <time>2021-01-26T08:05:29Z</time>
      </trkpt>
      <trkpt lat="44.29783" lon="7.27426">
        <ele>1253.22</ele>
        <time>2021-01-26T08:05:41Z</time>
      </trkpt>
      <trkpt lat="44.29777" lon="7.27424">
        <ele>1256.58</ele>
        <time>2021-01-26T08:05:54Z</time>
      </trkpt>
      <trkpt lat="44.29775" lon="7.27422">
        <ele>1257.54</ele>
        <time>2021-01-26T08:06:09Z</time>
      </trkpt>
      <trkpt lat="44.29769" lon="7.27417">
        <ele>1258.98</ele>
        <time>2021-01-26T08:06:21Z</time>
      </trkpt>
      <trkpt lat="44.29757" lon="7.2741">
        <ele>1257.54</ele>
        <time>2021-01-26T08:06:35Z</time>
      </trkpt>
      <trkpt lat="44.29756" lon="7.2741">
        <ele>1257.54</ele>
        <time>2021-01-26T08:06:36Z</time>
      </trkpt>
      <trkpt lat="44.29748" lon="7.27399">
        <ele>1256.58</ele>
        <time>2021-01-26T08:06:49Z</time>
      </trkpt>
      <trkpt lat="44.29742" lon="7.27387">
        <ele>1255.62</ele>
        <time>2021-01-26T08:07:02Z</time>
      </trkpt>
      <trkpt lat="44.29735" lon="7.27376">
        <ele>1254.66</ele>
        <time>2021-01-26T08:07:15Z</time>
      </trkpt>
      <trkpt lat="44.29733" lon="7.2737">
        <ele>1254.66</ele>
        <time>2021-01-26T08:07:21Z</time>
      </trkpt>
      <trkpt lat="44.2973" lon="7.27366">
        <ele>1254.66</ele>
        <time>2021-01-26T08:07:26Z</time>
      </trkpt>
      <trkpt lat="44.29728" lon="7.27355">
        <ele>1255.14</ele>
        <time>2021-01-26T08:07:36Z</time>
      </trkpt>
      <trkpt lat="44.29728" lon="7.2735">
        <ele>1255.62</ele>
        <time>2021-01-26T08:07:40Z</time>
      </trkpt>
      <trkpt lat="44.29727" lon="7.27346">
        <ele>1256.58</ele>
        <time>2021-01-26T08:07:44Z</time>
      </trkpt>
      <trkpt lat="44.29727" lon="7.27335">
        <ele>1258.02</ele>
        <time>2021-01-26T08:07:53Z</time>
      </trkpt>
      <trkpt lat="44.29725" lon="7.27326">
        <ele>1258.5</ele>
        <time>2021-01-26T08:08:02Z</time>
      </trkpt>
      <trkpt lat="44.29724" lon="7.27318">
        <ele>1258.02</ele>
        <time>2021-01-26T08:08:08Z</time>
      </trkpt>
      <trkpt lat="44.29722" lon="7.27312">
        <ele>1258.02</ele>
        <time>2021-01-26T08:08:13Z</time>
      </trkpt>
      <trkpt lat="44.29721" lon="7.27307">
        <ele>1258.02</ele>
        <time>2021-01-26T08:08:17Z</time>
      </trkpt>
      <trkpt lat="44.29719" lon="7.27303">
        <ele>1258.02</ele>
        <time>2021-01-26T08:08:24Z</time>
      </trkpt>
      <trkpt lat="44.29717" lon="7.27299">
        <ele>1258.02</ele>
        <time>2021-01-26T08:08:27Z</time>
      </trkpt>
      <trkpt lat="44.29714" lon="7.27293">
        <ele>1258.5</ele>
        <time>2021-01-26T08:08:33Z</time>
      </trkpt>
      <trkpt lat="44.29708" lon="7.27278">
        <ele>1258.98</ele>
        <time>2021-01-26T08:08:47Z</time>
      </trkpt>
      <trkpt lat="44.29704" lon="7.27269">
        <ele>1260.43</ele>
        <time>2021-01-26T08:09:00Z</time>
      </trkpt>
      <trkpt lat="44.29703" lon="7.27267">
        <ele>1260.43</ele>
        <time>2021-01-26T08:09:01Z</time>
      </trkpt>
      <trkpt lat="44.297" lon="7.27261">
        <ele>1259.46</ele>
        <time>2021-01-26T08:09:07Z</time>
      </trkpt>
      <trkpt lat="44.29693" lon="7.2725">
        <ele>1261.39</ele>
        <time>2021-01-26T08:09:19Z</time>
      </trkpt>
      <trkpt lat="44.29689" lon="7.27239">
        <ele>1261.39</ele>
        <time>2021-01-26T08:09:31Z</time>
      </trkpt>
      <trkpt lat="44.29689" lon="7.27237">
        <ele>1261.39</ele>
        <time>2021-01-26T08:09:33Z</time>
      </trkpt>
      <trkpt lat="44.29688" lon="7.27221">
        <ele>1259.94</ele>
        <time>2021-01-26T08:09:47Z</time>
      </trkpt>
      <trkpt lat="44.29689" lon="7.27207">
        <ele>1260.43</ele>
        <time>2021-01-26T08:10:00Z</time>
      </trkpt>
      <trkpt lat="44.29688" lon="7.27194">
        <ele>1261.87</ele>
        <time>2021-01-26T08:10:12Z</time>
      </trkpt>
      <trkpt lat="44.29688" lon="7.27183">
        <ele>1264.75</ele>
        <time>2021-01-26T08:10:24Z</time>
      </trkpt>
      <trkpt lat="44.29687" lon="7.27168">
        <ele>1267.16</ele>
        <time>2021-01-26T08:10:35Z</time>
      </trkpt>
      <trkpt lat="44.29688" lon="7.27159">
        <ele>1268.12</ele>
        <time>2021-01-26T08:10:42Z</time>
      </trkpt>
      <trkpt lat="44.29688" lon="7.27152">
        <ele>1269.56</ele>
        <time>2021-01-26T08:10:50Z</time>
      </trkpt>
      <trkpt lat="44.29692" lon="7.2714">
        <ele>1272.92</ele>
        <time>2021-01-26T08:11:02Z</time>
      </trkpt>
      <trkpt lat="44.29693" lon="7.27137">
        <ele>1273.4</ele>
        <time>2021-01-26T08:11:05Z</time>
      </trkpt>
      <trkpt lat="44.29695" lon="7.27133">
        <ele>1273.88</ele>
        <time>2021-01-26T08:11:09Z</time>
      </trkpt>
      <trkpt lat="44.29699" lon="7.27129">
        <ele>1274.85</ele>
        <time>2021-01-26T08:11:14Z</time>
      </trkpt>
      <trkpt lat="44.29702" lon="7.27124">
        <ele>1275.81</ele>
        <time>2021-01-26T08:11:20Z</time>
      </trkpt>
      <trkpt lat="44.29704" lon="7.2711">
        <ele>1278.69</ele>
        <time>2021-01-26T08:11:34Z</time>
      </trkpt>
      <trkpt lat="44.29703" lon="7.27106">
        <ele>1278.69</ele>
        <time>2021-01-26T08:11:38Z</time>
      </trkpt>
      <trkpt lat="44.297" lon="7.2709">
        <ele>1277.73</ele>
        <time>2021-01-26T08:11:52Z</time>
      </trkpt>
      <trkpt lat="44.29699" lon="7.27084">
        <ele>1277.25</ele>
        <time>2021-01-26T08:11:58Z</time>
      </trkpt>
      <trkpt lat="44.29702" lon="7.27069">
        <ele>1277.25</ele>
        <time>2021-01-26T08:12:11Z</time>
      </trkpt>
      <trkpt lat="44.29704" lon="7.27058">
        <ele>1278.21</ele>
        <time>2021-01-26T08:12:20Z</time>
      </trkpt>
      <trkpt lat="44.29707" lon="7.27048">
        <ele>1277.25</ele>
        <time>2021-01-26T08:12:31Z</time>
      </trkpt>
      <trkpt lat="44.29711" lon="7.27035">
        <ele>1276.77</ele>
        <time>2021-01-26T08:12:44Z</time>
      </trkpt>
      <trkpt lat="44.29715" lon="7.27021">
        <ele>1276.77</ele>
        <time>2021-01-26T08:12:57Z</time>
      </trkpt>
      <trkpt lat="44.29716" lon="7.27017">
        <ele>1276.77</ele>
        <time>2021-01-26T08:13:01Z</time>
      </trkpt>
      <trkpt lat="44.29717" lon="7.27013">
        <ele>1276.77</ele>
        <time>2021-01-26T08:13:05Z</time>
      </trkpt>
      <trkpt lat="44.2972" lon="7.26999">
        <ele>1277.25</ele>
        <time>2021-01-26T08:13:17Z</time>
      </trkpt>
      <trkpt lat="44.2972" lon="7.26991">
        <ele>1276.29</ele>
        <time>2021-01-26T08:13:26Z</time>
      </trkpt>
      <trkpt lat="44.29719" lon="7.26977">
        <ele>1275.33</ele>
        <time>2021-01-26T08:13:38Z</time>
      </trkpt>
      <trkpt lat="44.29718" lon="7.26971">
        <ele>1276.77</ele>
        <time>2021-01-26T08:13:44Z</time>
      </trkpt>
      <trkpt lat="44.29717" lon="7.26965">
        <ele>1276.77</ele>
        <time>2021-01-26T08:13:49Z</time>
      </trkpt>
      <trkpt lat="44.29715" lon="7.26962">
        <ele>1276.77</ele>
        <time>2021-01-26T08:14:03Z</time>
      </trkpt>
      <trkpt lat="44.29712" lon="7.26952">
        <ele>1277.25</ele>
        <time>2021-01-26T08:14:14Z</time>
      </trkpt>
      <trkpt lat="44.29704" lon="7.26937">
        <ele>1277.25</ele>
        <time>2021-01-26T08:14:27Z</time>
      </trkpt>
      <trkpt lat="44.297" lon="7.2693">
        <ele>1277.73</ele>
        <time>2021-01-26T08:14:36Z</time>
      </trkpt>
      <trkpt lat="44.29697" lon="7.26926">
        <ele>1278.21</ele>
        <time>2021-01-26T08:14:40Z</time>
      </trkpt>
      <trkpt lat="44.29695" lon="7.26922">
        <ele>1279.17</ele>
        <time>2021-01-26T08:14:44Z</time>
      </trkpt>
      <trkpt lat="44.29686" lon="7.26912">
        <ele>1281.09</ele>
        <time>2021-01-26T08:14:57Z</time>
      </trkpt>
      <trkpt lat="44.29679" lon="7.26903">
        <ele>1282.54</ele>
        <time>2021-01-26T08:15:07Z</time>
      </trkpt>
      <trkpt lat="44.29676" lon="7.269">
        <ele>1282.54</ele>
        <time>2021-01-26T08:15:11Z</time>
      </trkpt>
      <trkpt lat="44.29668" lon="7.26888">
        <ele>1284.46</ele>
        <time>2021-01-26T08:15:25Z</time>
      </trkpt>
      <trkpt lat="44.29661" lon="7.26877">
        <ele>1286.86</ele>
        <time>2021-01-26T08:15:37Z</time>
      </trkpt>
      <trkpt lat="44.29655" lon="7.26869">
        <ele>1287.82</ele>
        <time>2021-01-26T08:15:48Z</time>
      </trkpt>
      <trkpt lat="44.2965" lon="7.26859">
        <ele>1286.86</ele>
        <time>2021-01-26T08:15:57Z</time>
      </trkpt>
      <trkpt lat="44.29645" lon="7.26849">
        <ele>1286.86</ele>
        <time>2021-01-26T08:16:09Z</time>
      </trkpt>
      <trkpt lat="44.29643" lon="7.26841">
        <ele>1285.42</ele>
        <time>2021-01-26T08:16:20Z</time>
      </trkpt>
      <trkpt lat="44.29642" lon="7.26837">
        <ele>1285.42</ele>
        <time>2021-01-26T08:16:23Z</time>
      </trkpt>
      <trkpt lat="44.29641" lon="7.26834">
        <ele>1286.38</ele>
        <time>2021-01-26T08:16:27Z</time>
      </trkpt>
      <trkpt lat="44.29641" lon="7.26819">
        <ele>1287.82</ele>
        <time>2021-01-26T08:16:40Z</time>
      </trkpt>
      <trkpt lat="44.29642" lon="7.26804">
        <ele>1288.78</ele>
        <time>2021-01-26T08:16:54Z</time>
      </trkpt>
      <trkpt lat="44.29643" lon="7.2679">
        <ele>1288.78</ele>
        <time>2021-01-26T08:17:05Z</time>
      </trkpt>
      <trkpt lat="44.29645" lon="7.2678">
        <ele>1288.3</ele>
        <time>2021-01-26T08:17:14Z</time>
      </trkpt>
      <trkpt lat="44.29653" lon="7.26764">
        <ele>1289.75</ele>
        <time>2021-01-26T08:17:29Z</time>
      </trkpt>
      <trkpt lat="44.29656" lon="7.26758">
        <ele>1290.23</ele>
        <time>2021-01-26T08:17:36Z</time>
      </trkpt>
      <trkpt lat="44.29663" lon="7.2675">
        <ele>1290.23</ele>
        <time>2021-01-26T08:17:45Z</time>
      </trkpt>
      <trkpt lat="44.29667" lon="7.26736">
        <ele>1288.78</ele>
        <time>2021-01-26T08:17:57Z</time>
      </trkpt>
      <trkpt lat="44.29667" lon="7.26733">
        <ele>1288.3</ele>
        <time>2021-01-26T08:17:59Z</time>
      </trkpt>
      <trkpt lat="44.29663" lon="7.26714">
        <ele>1287.82</ele>
        <time>2021-01-26T08:18:13Z</time>
      </trkpt>
      <trkpt lat="44.29663" lon="7.26709">
        <ele>1287.82</ele>
        <time>2021-01-26T08:18:17Z</time>
      </trkpt>
      <trkpt lat="44.29665" lon="7.26693">
        <ele>1288.78</ele>
        <time>2021-01-26T08:18:29Z</time>
      </trkpt>
      <trkpt lat="44.29667" lon="7.26679">
        <ele>1289.75</ele>
        <time>2021-01-26T08:18:41Z</time>
      </trkpt>
      <trkpt lat="44.29669" lon="7.26673">
        <ele>1289.75</ele>
        <time>2021-01-26T08:18:46Z</time>
      </trkpt>
      <trkpt lat="44.29673" lon="7.26659">
        <ele>1291.19</ele>
        <time>2021-01-26T08:18:59Z</time>
      </trkpt>
      <trkpt lat="44.29679" lon="7.26646">
        <ele>1292.15</ele>
        <time>2021-01-26T08:19:13Z</time>
      </trkpt>
      <trkpt lat="44.29683" lon="7.26633">
        <ele>1293.59</ele>
        <time>2021-01-26T08:19:25Z</time>
      </trkpt>
      <trkpt lat="44.29685" lon="7.26625">
        <ele>1293.59</ele>
        <time>2021-01-26T08:19:31Z</time>
      </trkpt>
      <trkpt lat="44.29688" lon="7.26611">
        <ele>1292.15</ele>
        <time>2021-01-26T08:19:42Z</time>
      </trkpt>
      <trkpt lat="44.29689" lon="7.266">
        <ele>1292.63</ele>
        <time>2021-01-26T08:19:51Z</time>
      </trkpt>
      <trkpt lat="44.29688" lon="7.26586">
        <ele>1292.63</ele>
        <time>2021-01-26T08:20:00Z</time>
      </trkpt>
      <trkpt lat="44.29683" lon="7.2657">
        <ele>1291.67</ele>
        <time>2021-01-26T08:20:13Z</time>
      </trkpt>
      <trkpt lat="44.2968" lon="7.26564">
        <ele>1291.67</ele>
        <time>2021-01-26T08:20:18Z</time>
      </trkpt>
      <trkpt lat="44.29674" lon="7.26547">
        <ele>1291.67</ele>
        <time>2021-01-26T08:20:30Z</time>
      </trkpt>
      <trkpt lat="44.29673" lon="7.26543">
        <ele>1291.67</ele>
        <time>2021-01-26T08:20:33Z</time>
      </trkpt>
      <trkpt lat="44.29667" lon="7.26531">
        <ele>1293.11</ele>
        <time>2021-01-26T08:20:43Z</time>
      </trkpt>
      <trkpt lat="44.29657" lon="7.26518">
        <ele>1292.63</ele>
        <time>2021-01-26T08:20:56Z</time>
      </trkpt>
      <trkpt lat="44.29652" lon="7.26509">
        <ele>1292.15</ele>
        <time>2021-01-26T08:21:03Z</time>
      </trkpt>
      <trkpt lat="44.29649" lon="7.265">
        <ele>1291.67</ele>
        <time>2021-01-26T08:21:10Z</time>
      </trkpt>
      <trkpt lat="44.2965" lon="7.26489">
        <ele>1291.19</ele>
        <time>2021-01-26T08:21:19Z</time>
      </trkpt>
      <trkpt lat="44.29652" lon="7.26473">
        <ele>1292.15</ele>
        <time>2021-01-26T08:21:32Z</time>
      </trkpt>
      <trkpt lat="44.29652" lon="7.26457">
        <ele>1292.63</ele>
        <time>2021-01-26T08:21:43Z</time>
      </trkpt>
      <trkpt lat="44.29651" lon="7.26437">
        <ele>1293.11</ele>
        <time>2021-01-26T08:21:58Z</time>
      </trkpt>
      <trkpt lat="44.2965" lon="7.26416">
        <ele>1291.67</ele>
        <time>2021-01-26T08:22:12Z</time>
      </trkpt>
      <trkpt lat="44.2965" lon="7.26414">
        <ele>1291.67</ele>
        <time>2021-01-26T08:22:13Z</time>
      </trkpt>
      <trkpt lat="44.29649" lon="7.26398">
        <ele>1291.67</ele>
        <time>2021-01-26T08:22:25Z</time>
      </trkpt>
      <trkpt lat="44.29648" lon="7.26391">
        <ele>1292.15</ele>
        <time>2021-01-26T08:22:30Z</time>
      </trkpt>
      <trkpt lat="44.29644" lon="7.26372">
        <ele>1294.07</ele>
        <time>2021-01-26T08:22:44Z</time>
      </trkpt>
      <trkpt lat="44.29642" lon="7.26367">
        <ele>1293.59</ele>
        <time>2021-01-26T08:22:48Z</time>
      </trkpt>
      <trkpt lat="44.29635" lon="7.26346">
        <ele>1293.59</ele>
        <time>2021-01-26T08:23:03Z</time>
      </trkpt>
      <trkpt lat="44.29633" lon="7.26337">
        <ele>1293.59</ele>
        <time>2021-01-26T08:23:10Z</time>
      </trkpt>
      <trkpt lat="44.2963" lon="7.26328">
        <ele>1293.59</ele>
        <time>2021-01-26T08:23:17Z</time>
      </trkpt>
      <trkpt lat="44.29628" lon="7.2632">
        <ele>1293.11</ele>
        <time>2021-01-26T08:23:23Z</time>
      </trkpt>
      <trkpt lat="44.29621" lon="7.26302">
        <ele>1294.55</ele>
        <time>2021-01-26T08:23:38Z</time>
      </trkpt>
      <trkpt lat="44.29616" lon="7.26285">
        <ele>1296.96</ele>
        <time>2021-01-26T08:23:51Z</time>
      </trkpt>
      <trkpt lat="44.29615" lon="7.26283">
        <ele>1296.96</ele>
        <time>2021-01-26T08:23:53Z</time>
      </trkpt>
      <trkpt lat="44.29611" lon="7.26272">
        <ele>1296.96</ele>
        <time>2021-01-26T08:24:01Z</time>
      </trkpt>
      <trkpt lat="44.29609" lon="7.26266">
        <ele>1296.48</ele>
        <time>2021-01-26T08:24:06Z</time>
      </trkpt>
      <trkpt lat="44.29605" lon="7.2626">
        <ele>1296.48</ele>
        <time>2021-01-26T08:24:11Z</time>
      </trkpt>
      <trkpt lat="44.296" lon="7.26252">
        <ele>1295.03</ele>
        <time>2021-01-26T08:24:20Z</time>
      </trkpt>
      <trkpt lat="44.29594" lon="7.26238">
        <ele>1295.03</ele>
        <time>2021-01-26T08:24:33Z</time>
      </trkpt>
      <trkpt lat="44.29589" lon="7.26228">
        <ele>1296.96</ele>
        <time>2021-01-26T08:24:45Z</time>
      </trkpt>
      <trkpt lat="44.29587" lon="7.26225">
        <ele>1297.92</ele>
        <time>2021-01-26T08:24:49Z</time>
      </trkpt>
      <trkpt lat="44.29579" lon="7.26213">
        <ele>1301.76</ele>
        <time>2021-01-26T08:25:02Z</time>
      </trkpt>
      <trkpt lat="44.29568" lon="7.26205">
        <ele>1302.72</ele>
        <time>2021-01-26T08:25:15Z</time>
      </trkpt>
      <trkpt lat="44.2956" lon="7.26198">
        <ele>1304.65</ele>
        <time>2021-01-26T08:25:28Z</time>
      </trkpt>
      <trkpt lat="44.29553" lon="7.26193">
        <ele>1305.13</ele>
        <time>2021-01-26T08:25:36Z</time>
      </trkpt>
      <trkpt lat="44.29543" lon="7.26186">
        <ele>1304.65</ele>
        <time>2021-01-26T08:25:48Z</time>
      </trkpt>
      <trkpt lat="44.29533" lon="7.26182">
        <ele>1305.61</ele>
        <time>2021-01-26T08:26:00Z</time>
      </trkpt>
      <trkpt lat="44.29535" lon="7.26181">
        <ele>1304.65</ele>
        <time>2021-01-26T08:26:17Z</time>
      </trkpt>
      <trkpt lat="44.29535" lon="7.26183">
        <ele>1300.32</ele>
        <time>2021-01-26T08:26:38Z</time>
      </trkpt>
      <trkpt lat="44.29532" lon="7.26181">
        <ele>1298.88</ele>
        <time>2021-01-26T08:26:52Z</time>
      </trkpt>
      <trkpt lat="44.29529" lon="7.26181">
        <ele>1297.92</ele>
        <time>2021-01-26T08:27:08Z</time>
      </trkpt>
      <trkpt lat="44.29529" lon="7.26181">
        <ele>1296.96</ele>
        <time>2021-01-26T08:27:29Z</time>
      </trkpt>
      <trkpt lat="44.29527" lon="7.26182">
        <ele>1298.88</ele>
        <time>2021-01-26T08:27:45Z</time>
      </trkpt>
      <trkpt lat="44.29519" lon="7.26179">
        <ele>1296.96</ele>
        <time>2021-01-26T08:28:00Z</time>
      </trkpt>
      <trkpt lat="44.29514" lon="7.26179">
        <ele>1296.48</ele>
        <time>2021-01-26T08:28:10Z</time>
      </trkpt>
      <trkpt lat="44.29509" lon="7.2618">
        <ele>1295.03</ele>
        <time>2021-01-26T08:28:23Z</time>
      </trkpt>
      <trkpt lat="44.29508" lon="7.26181">
        <ele>1295.03</ele>
        <time>2021-01-26T08:28:25Z</time>
      </trkpt>
      <trkpt lat="44.29496" lon="7.26186">
        <ele>1295.03</ele>
        <time>2021-01-26T08:28:38Z</time>
      </trkpt>
      <trkpt lat="44.2949" lon="7.26187">
        <ele>1295.99</ele>
        <time>2021-01-26T08:28:53Z</time>
      </trkpt>
      <trkpt lat="44.29487" lon="7.2619">
        <ele>1296.48</ele>
        <time>2021-01-26T08:29:06Z</time>
      </trkpt>
      <trkpt lat="44.29484" lon="7.26191">
        <ele>1295.99</ele>
        <time>2021-01-26T08:29:10Z</time>
      </trkpt>
      <trkpt lat="44.29475" lon="7.26198">
        <ele>1295.03</ele>
        <time>2021-01-26T08:29:22Z</time>
      </trkpt>
      <trkpt lat="44.29473" lon="7.26199">
        <ele>1294.55</ele>
        <time>2021-01-26T08:29:24Z</time>
      </trkpt>
      <trkpt lat="44.29469" lon="7.26204">
        <ele>1295.03</ele>
        <time>2021-01-26T08:29:38Z</time>
      </trkpt>
      <trkpt lat="44.29469" lon="7.26205">
        <ele>1295.99</ele>
        <time>2021-01-26T08:29:53Z</time>
      </trkpt>
      <trkpt lat="44.29461" lon="7.26212">
        <ele>1295.03</ele>
        <time>2021-01-26T08:30:08Z</time>
      </trkpt>
      <trkpt lat="44.29462" lon="7.26212">
        <ele>1294.55</ele>
        <time>2021-01-26T08:30:18Z</time>
      </trkpt>
      <trkpt lat="44.2946" lon="7.26212">
        <ele>1294.55</ele>
        <time>2021-01-26T08:30:20Z</time>
      </trkpt>
      <trkpt lat="44.29453" lon="7.26221">
        <ele>1294.55</ele>
        <time>2021-01-26T08:30:33Z</time>
      </trkpt>
      <trkpt lat="44.29444" lon="7.26231">
        <ele>1294.07</ele>
        <time>2021-01-26T08:30:46Z</time>
      </trkpt>
      <trkpt lat="44.29435" lon="7.26243">
        <ele>1293.59</ele>
        <time>2021-01-26T08:30:59Z</time>
      </trkpt>
      <trkpt lat="44.29427" lon="7.26252">
        <ele>1294.55</ele>
        <time>2021-01-26T08:31:10Z</time>
      </trkpt>
      <trkpt lat="44.29416" lon="7.26265">
        <ele>1294.55</ele>
        <time>2021-01-26T08:31:24Z</time>
      </trkpt>
      <trkpt lat="44.29412" lon="7.26265">
        <ele>1293.11</ele>
        <time>2021-01-26T08:31:29Z</time>
      </trkpt>
      <trkpt lat="44.29405" lon="7.26262">
        <ele>1294.55</ele>
        <time>2021-01-26T08:31:41Z</time>
      </trkpt>
      <trkpt lat="44.29404" lon="7.26258">
        <ele>1295.99</ele>
        <time>2021-01-26T08:32:02Z</time>
      </trkpt>
      <trkpt lat="44.29401" lon="7.2625">
        <ele>1296.48</ele>
        <time>2021-01-26T08:32:09Z</time>
      </trkpt>
      <trkpt lat="44.29399" lon="7.26232">
        <ele>1295.03</ele>
        <time>2021-01-26T08:32:23Z</time>
      </trkpt>
      <trkpt lat="44.29398" lon="7.26223">
        <ele>1294.07</ele>
        <time>2021-01-26T08:32:30Z</time>
      </trkpt>
      <trkpt lat="44.29396" lon="7.26206">
        <ele>1293.11</ele>
        <time>2021-01-26T08:32:43Z</time>
      </trkpt>
      <trkpt lat="44.29394" lon="7.26197">
        <ele>1293.11</ele>
        <time>2021-01-26T08:32:49Z</time>
      </trkpt>
      <trkpt lat="44.29392" lon="7.26191">
        <ele>1293.11</ele>
        <time>2021-01-26T08:32:53Z</time>
      </trkpt>
      <trkpt lat="44.29391" lon="7.26184">
        <ele>1293.11</ele>
        <time>2021-01-26T08:32:57Z</time>
      </trkpt>
      <trkpt lat="44.29386" lon="7.26163">
        <ele>1293.59</ele>
        <time>2021-01-26T08:33:11Z</time>
      </trkpt>
      <trkpt lat="44.29385" lon="7.26158">
        <ele>1293.11</ele>
        <time>2021-01-26T08:33:14Z</time>
      </trkpt>
      <trkpt lat="44.29383" lon="7.26152">
        <ele>1293.11</ele>
        <time>2021-01-26T08:33:18Z</time>
      </trkpt>
      <trkpt lat="44.29375" lon="7.2613">
        <ele>1291.67</ele>
        <time>2021-01-26T08:33:33Z</time>
      </trkpt>
      <trkpt lat="44.29367" lon="7.2611">
        <ele>1290.23</ele>
        <time>2021-01-26T08:33:48Z</time>
      </trkpt>
      <trkpt lat="44.29357" lon="7.26096">
        <ele>1289.75</ele>
        <time>2021-01-26T08:34:01Z</time>
      </trkpt>
      <trkpt lat="44.29347" lon="7.26085">
        <ele>1290.23</ele>
        <time>2021-01-26T08:34:14Z</time>
      </trkpt>
      <trkpt lat="44.29347" lon="7.26084">
        <ele>1290.23</ele>
        <time>2021-01-26T08:34:15Z</time>
      </trkpt>
      <trkpt lat="44.29338" lon="7.26074">
        <ele>1290.71</ele>
        <time>2021-01-26T08:34:27Z</time>
      </trkpt>
      <trkpt lat="44.29337" lon="7.26072">
        <ele>1290.71</ele>
        <time>2021-01-26T08:34:29Z</time>
      </trkpt>
      <trkpt lat="44.29325" lon="7.26057">
        <ele>1290.23</ele>
        <time>2021-01-26T08:34:44Z</time>
      </trkpt>
      <trkpt lat="44.29313" lon="7.26043">
        <ele>1287.82</ele>
        <time>2021-01-26T08:34:59Z</time>
      </trkpt>
      <trkpt lat="44.29301" lon="7.26025">
        <ele>1285.9</ele>
        <time>2021-01-26T08:35:14Z</time>
      </trkpt>
      <trkpt lat="44.29295" lon="7.26014">
        <ele>1285.42</ele>
        <time>2021-01-26T08:35:24Z</time>
      </trkpt>
      <trkpt lat="44.29286" lon="7.26001">
        <ele>1285.42</ele>
        <time>2021-01-26T08:35:36Z</time>
      </trkpt>
      <trkpt lat="44.29275" lon="7.25985">
        <ele>1285.9</ele>
        <time>2021-01-26T08:35:51Z</time>
      </trkpt>
      <trkpt lat="44.29267" lon="7.25971">
        <ele>1284.46</ele>
        <time>2021-01-26T08:36:04Z</time>
      </trkpt>
      <trkpt lat="44.29266" lon="7.25968">
        <ele>1284.46</ele>
        <time>2021-01-26T08:36:06Z</time>
      </trkpt>
      <trkpt lat="44.29261" lon="7.25956">
        <ele>1284.94</ele>
        <time>2021-01-26T08:36:20Z</time>
      </trkpt>
      <trkpt lat="44.2926" lon="7.25953">
        <ele>1285.9</ele>
        <time>2021-01-26T08:36:27Z</time>
      </trkpt>
      <trkpt lat="44.29259" lon="7.25946">
        <ele>1285.42</ele>
        <time>2021-01-26T08:36:32Z</time>
      </trkpt>
      <trkpt lat="44.29256" lon="7.25935">
        <ele>1285.42</ele>
        <time>2021-01-26T08:36:45Z</time>
      </trkpt>
      <trkpt lat="44.29249" lon="7.25934">
        <ele>1287.82</ele>
        <time>2021-01-26T08:36:57Z</time>
      </trkpt>
      <trkpt lat="44.2924" lon="7.25934">
        <ele>1289.75</ele>
        <time>2021-01-26T08:37:10Z</time>
      </trkpt>
      <trkpt lat="44.2923" lon="7.25938">
        <ele>1292.63</ele>
        <time>2021-01-26T08:37:25Z</time>
      </trkpt>
      <trkpt lat="44.2923" lon="7.25938">
        <ele>1294.07</ele>
        <time>2021-01-26T08:37:31Z</time>
      </trkpt>
      <trkpt lat="44.29227" lon="7.25939">
        <ele>1295.03</ele>
        <time>2021-01-26T08:37:34Z</time>
      </trkpt>
      <trkpt lat="44.29219" lon="7.25946">
        <ele>1296.48</ele>
        <time>2021-01-26T08:37:46Z</time>
      </trkpt>
      <trkpt lat="44.29215" lon="7.25949">
        <ele>1297.44</ele>
        <time>2021-01-26T08:37:52Z</time>
      </trkpt>
      <trkpt lat="44.29208" lon="7.25955">
        <ele>1299.36</ele>
        <time>2021-01-26T08:38:06Z</time>
      </trkpt>
      <trkpt lat="44.292" lon="7.25962">
        <ele>1299.84</ele>
        <time>2021-01-26T08:38:18Z</time>
      </trkpt>
      <trkpt lat="44.29193" lon="7.25969">
        <ele>1303.69</ele>
        <time>2021-01-26T08:38:35Z</time>
      </trkpt>
      <trkpt lat="44.29184" lon="7.25971">
        <ele>1306.57</ele>
        <time>2021-01-26T08:38:50Z</time>
      </trkpt>
      <trkpt lat="44.29174" lon="7.25973">
        <ele>1310.9</ele>
        <time>2021-01-26T08:39:05Z</time>
      </trkpt>
      <trkpt lat="44.29166" lon="7.25974">
        <ele>1313.78</ele>
        <time>2021-01-26T08:39:17Z</time>
      </trkpt>
      <trkpt lat="44.29158" lon="7.25976">
        <ele>1314.26</ele>
        <time>2021-01-26T08:39:32Z</time>
      </trkpt>
      <trkpt lat="44.29152" lon="7.25983">
        <ele>1316.66</ele>
        <time>2021-01-26T08:39:46Z</time>
      </trkpt>
      <trkpt lat="44.29148" lon="7.25987">
        <ele>1320.51</ele>
        <time>2021-01-26T08:39:59Z</time>
      </trkpt>
      <trkpt lat="44.29141" lon="7.25985">
        <ele>1322.43</ele>
        <time>2021-01-26T08:40:12Z</time>
      </trkpt>
      <trkpt lat="44.29133" lon="7.25987">
        <ele>1326.28</ele>
        <time>2021-01-26T08:40:29Z</time>
      </trkpt>
      <trkpt lat="44.29124" lon="7.25988">
        <ele>1328.68</ele>
        <time>2021-01-26T08:40:43Z</time>
      </trkpt>
      <trkpt lat="44.29116" lon="7.25991">
        <ele>1331.56</ele>
        <time>2021-01-26T08:40:57Z</time>
      </trkpt>
      <trkpt lat="44.29109" lon="7.25994">
        <ele>1335.41</ele>
        <time>2021-01-26T08:41:11Z</time>
      </trkpt>
      <trkpt lat="44.29104" lon="7.25997">
        <ele>1339.73</ele>
        <time>2021-01-26T08:41:23Z</time>
      </trkpt>
      <trkpt lat="44.29093" lon="7.25999">
        <ele>1342.62</ele>
        <time>2021-01-26T08:41:38Z</time>
      </trkpt>
      <trkpt lat="44.29086" lon="7.26001">
        <ele>1346.46</ele>
        <time>2021-01-26T08:41:51Z</time>
      </trkpt>
      <trkpt lat="44.29079" lon="7.26003">
        <ele>1348.39</ele>
        <time>2021-01-26T08:42:03Z</time>
      </trkpt>
      <trkpt lat="44.2907" lon="7.26007">
        <ele>1353.19</ele>
        <time>2021-01-26T08:42:17Z</time>
      </trkpt>
      <trkpt lat="44.29069" lon="7.26009">
        <ele>1353.67</ele>
        <time>2021-01-26T08:42:19Z</time>
      </trkpt>
      <trkpt lat="44.29066" lon="7.26015">
        <ele>1359.92</ele>
        <time>2021-01-26T08:42:33Z</time>
      </trkpt>
      <trkpt lat="44.2906" lon="7.26013">
        <ele>1364.25</ele>
        <time>2021-01-26T08:42:44Z</time>
      </trkpt>
      <trkpt lat="44.29052" lon="7.26012">
        <ele>1365.69</ele>
        <time>2021-01-26T08:42:57Z</time>
      </trkpt>
      <trkpt lat="44.29044" lon="7.26017">
        <ele>1366.65</ele>
        <time>2021-01-26T08:43:09Z</time>
      </trkpt>
      <trkpt lat="44.29038" lon="7.2602">
        <ele>1370.98</ele>
        <time>2021-01-26T08:43:23Z</time>
      </trkpt>
      <trkpt lat="44.29031" lon="7.2602">
        <ele>1374.82</ele>
        <time>2021-01-26T08:43:37Z</time>
      </trkpt>
      <trkpt lat="44.29026" lon="7.26015">
        <ele>1377.23</ele>
        <time>2021-01-26T08:43:52Z</time>
      </trkpt>
      <trkpt lat="44.29021" lon="7.26008">
        <ele>1376.26</ele>
        <time>2021-01-26T08:44:04Z</time>
      </trkpt>
      <trkpt lat="44.29015" lon="7.26014">
        <ele>1375.78</ele>
        <time>2021-01-26T08:44:19Z</time>
      </trkpt>
      <trkpt lat="44.29015" lon="7.26019">
        <ele>1378.19</ele>
        <time>2021-01-26T08:44:33Z</time>
      </trkpt>
      <trkpt lat="44.29008" lon="7.26019">
        <ele>1377.71</ele>
        <time>2021-01-26T08:44:46Z</time>
      </trkpt>
      <trkpt lat="44.28999" lon="7.26023">
        <ele>1378.67</ele>
        <time>2021-01-26T08:44:59Z</time>
      </trkpt>
      <trkpt lat="44.2899" lon="7.26026">
        <ele>1380.11</ele>
        <time>2021-01-26T08:45:14Z</time>
      </trkpt>
      <trkpt lat="44.28979" lon="7.2603">
        <ele>1380.11</ele>
        <time>2021-01-26T08:45:29Z</time>
      </trkpt>
      <trkpt lat="44.2897" lon="7.26036">
        <ele>1380.59</ele>
        <time>2021-01-26T08:45:45Z</time>
      </trkpt>
      <trkpt lat="44.28965" lon="7.26037">
        <ele>1380.59</ele>
        <time>2021-01-26T08:45:59Z</time>
      </trkpt>
      <trkpt lat="44.28962" lon="7.2604">
        <ele>1382.99</ele>
        <time>2021-01-26T08:46:14Z</time>
      </trkpt>
      <trkpt lat="44.28964" lon="7.26032">
        <ele>1382.99</ele>
        <time>2021-01-26T08:46:25Z</time>
      </trkpt>
      <trkpt lat="44.28961" lon="7.26035">
        <ele>1381.55</ele>
        <time>2021-01-26T08:46:39Z</time>
      </trkpt>
      <trkpt lat="44.28956" lon="7.2604">
        <ele>1384.44</ele>
        <time>2021-01-26T08:46:53Z</time>
      </trkpt>
      <trkpt lat="44.28951" lon="7.26041">
        <ele>1388.28</ele>
        <time>2021-01-26T08:47:06Z</time>
      </trkpt>
      <trkpt lat="44.28944" lon="7.26041">
        <ele>1391.17</ele>
        <time>2021-01-26T08:47:20Z</time>
      </trkpt>
      <trkpt lat="44.28936" lon="7.26043">
        <ele>1393.57</ele>
        <time>2021-01-26T08:47:34Z</time>
      </trkpt>
      <trkpt lat="44.28928" lon="7.26044">
        <ele>1396.93</ele>
        <time>2021-01-26T08:47:47Z</time>
      </trkpt>
      <trkpt lat="44.2892" lon="7.26045">
        <ele>1402.22</ele>
        <time>2021-01-26T08:48:01Z</time>
      </trkpt>
      <trkpt lat="44.28914" lon="7.26048">
        <ele>1407.03</ele>
        <time>2021-01-26T08:48:15Z</time>
      </trkpt>
      <trkpt lat="44.2891" lon="7.26051">
        <ele>1414.72</ele>
        <time>2021-01-26T08:48:29Z</time>
      </trkpt>
      <trkpt lat="44.28904" lon="7.26054">
        <ele>1421.45</ele>
        <time>2021-01-26T08:48:43Z</time>
      </trkpt>
      <trkpt lat="44.28902" lon="7.26055">
        <ele>1427.7</ele>
        <time>2021-01-26T08:48:57Z</time>
      </trkpt>
      <trkpt lat="44.28897" lon="7.26054">
        <ele>1434.42</ele>
        <time>2021-01-26T08:49:12Z</time>
      </trkpt>
      <trkpt lat="44.2889" lon="7.26053">
        <ele>1438.75</ele>
        <time>2021-01-26T08:49:23Z</time>
      </trkpt>
      <trkpt lat="44.28881" lon="7.26052">
        <ele>1440.67</ele>
        <time>2021-01-26T08:49:41Z</time>
      </trkpt>
      <trkpt lat="44.28875" lon="7.26051">
        <ele>1441.15</ele>
        <time>2021-01-26T08:49:54Z</time>
      </trkpt>
      <trkpt lat="44.28867" lon="7.26057">
        <ele>1438.27</ele>
        <time>2021-01-26T08:50:09Z</time>
      </trkpt>
      <trkpt lat="44.28856" lon="7.26058">
        <ele>1436.35</ele>
        <time>2021-01-26T08:50:19Z</time>
      </trkpt>
      <trkpt lat="44.28844" lon="7.26061">
        <ele>1433.46</ele>
        <time>2021-01-26T08:50:36Z</time>
      </trkpt>
      <trkpt lat="44.28836" lon="7.26064">
        <ele>1432.98</ele>
        <time>2021-01-26T08:50:48Z</time>
      </trkpt>
      <trkpt lat="44.28819" lon="7.26065">
        <ele>1424.81</ele>
        <time>2021-01-26T08:51:03Z</time>
      </trkpt>
      <trkpt lat="44.28801" lon="7.26066">
        <ele>1420</ele>
        <time>2021-01-26T08:51:23Z</time>
      </trkpt>
      <trkpt lat="44.28793" lon="7.26068">
        <ele>1422.41</ele>
        <time>2021-01-26T08:51:40Z</time>
      </trkpt>
      <trkpt lat="44.2879" lon="7.26068">
        <ele>1425.29</ele>
        <time>2021-01-26T08:51:51Z</time>
      </trkpt>
      <trkpt lat="44.28785" lon="7.26067">
        <ele>1426.73</ele>
        <time>2021-01-26T08:52:02Z</time>
      </trkpt>
      <trkpt lat="44.28778" lon="7.26067">
        <ele>1430.1</ele>
        <time>2021-01-26T08:52:15Z</time>
      </trkpt>
      <trkpt lat="44.28768" lon="7.26069">
        <ele>1432.98</ele>
        <time>2021-01-26T08:52:29Z</time>
      </trkpt>
      <trkpt lat="44.28758" lon="7.26072">
        <ele>1435.39</ele>
        <time>2021-01-26T08:52:46Z</time>
      </trkpt>
      <trkpt lat="44.28752" lon="7.26073">
        <ele>1437.79</ele>
        <time>2021-01-26T08:52:59Z</time>
      </trkpt>
      <trkpt lat="44.28743" lon="7.26073">
        <ele>1441.63</ele>
        <time>2021-01-26T08:53:17Z</time>
      </trkpt>
      <trkpt lat="44.28737" lon="7.26075">
        <ele>1444.04</ele>
        <time>2021-01-26T08:53:27Z</time>
      </trkpt>
      <trkpt lat="44.2873" lon="7.26072">
        <ele>1442.6</ele>
        <time>2021-01-26T08:53:43Z</time>
      </trkpt>
      <trkpt lat="44.28731" lon="7.26071">
        <ele>1445.48</ele>
        <time>2021-01-26T08:53:55Z</time>
      </trkpt>
      <trkpt lat="44.28735" lon="7.2607">
        <ele>1445.96</ele>
        <time>2021-01-26T08:54:08Z</time>
      </trkpt>
      <trkpt lat="44.28726" lon="7.26068">
        <ele>1439.23</ele>
        <time>2021-01-26T08:54:20Z</time>
      </trkpt>
      <trkpt lat="44.28718" lon="7.26065">
        <ele>1436.35</ele>
        <time>2021-01-26T08:54:32Z</time>
      </trkpt>
      <trkpt lat="44.2871" lon="7.26062">
        <ele>1437.79</ele>
        <time>2021-01-26T08:54:48Z</time>
      </trkpt>
      <trkpt lat="44.28695" lon="7.26065">
        <ele>1433.46</ele>
        <time>2021-01-26T08:55:00Z</time>
      </trkpt>
      <trkpt lat="44.28689" lon="7.26072">
        <ele>1432.02</ele>
        <time>2021-01-26T08:55:15Z</time>
      </trkpt>
      <trkpt lat="44.28683" lon="7.26081">
        <ele>1432.98</ele>
        <time>2021-01-26T08:55:30Z</time>
      </trkpt>
      <trkpt lat="44.28682" lon="7.26082">
        <ele>1432.98</ele>
        <time>2021-01-26T08:55:32Z</time>
      </trkpt>
      <trkpt lat="44.28673" lon="7.26086">
        <ele>1436.35</ele>
        <time>2021-01-26T08:55:46Z</time>
      </trkpt>
      <trkpt lat="44.28668" lon="7.26088">
        <ele>1439.71</ele>
        <time>2021-01-26T08:56:01Z</time>
      </trkpt>
      <trkpt lat="44.28662" lon="7.26093">
        <ele>1441.15</ele>
        <time>2021-01-26T08:56:13Z</time>
      </trkpt>
      <trkpt lat="44.28659" lon="7.26091">
        <ele>1443.08</ele>
        <time>2021-01-26T08:56:26Z</time>
      </trkpt>
      <trkpt lat="44.28648" lon="7.26095">
        <ele>1445.96</ele>
        <time>2021-01-26T08:56:44Z</time>
      </trkpt>
      <trkpt lat="44.28639" lon="7.26093">
        <ele>1447.4</ele>
        <time>2021-01-26T08:57:01Z</time>
      </trkpt>
      <trkpt lat="44.28635" lon="7.26092">
        <ele>1449.32</ele>
        <time>2021-01-26T08:57:16Z</time>
      </trkpt>
      <trkpt lat="44.28627" lon="7.2609">
        <ele>1450.77</ele>
        <time>2021-01-26T08:57:31Z</time>
      </trkpt>
      <trkpt lat="44.28618" lon="7.26091">
        <ele>1454.61</ele>
        <time>2021-01-26T08:57:48Z</time>
      </trkpt>
      <trkpt lat="44.28612" lon="7.26091">
        <ele>1457.5</ele>
        <time>2021-01-26T08:58:00Z</time>
      </trkpt>
      <trkpt lat="44.28604" lon="7.2609">
        <ele>1457.98</ele>
        <time>2021-01-26T08:58:14Z</time>
      </trkpt>
      <trkpt lat="44.28601" lon="7.26091">
        <ele>1459.9</ele>
        <time>2021-01-26T08:58:27Z</time>
      </trkpt>
      <trkpt lat="44.28594" lon="7.2609">
        <ele>1461.34</ele>
        <time>2021-01-26T08:58:39Z</time>
      </trkpt>
      <trkpt lat="44.28587" lon="7.26087">
        <ele>1463.26</ele>
        <time>2021-01-26T08:58:53Z</time>
      </trkpt>
      <trkpt lat="44.28578" lon="7.26083">
        <ele>1463.74</ele>
        <time>2021-01-26T08:59:06Z</time>
      </trkpt>
      <trkpt lat="44.28573" lon="7.26084">
        <ele>1467.11</ele>
        <time>2021-01-26T08:59:18Z</time>
      </trkpt>
      <trkpt lat="44.2857" lon="7.26083">
        <ele>1472.88</ele>
        <time>2021-01-26T08:59:33Z</time>
      </trkpt>
      <trkpt lat="44.28567" lon="7.26078">
        <ele>1477.2</ele>
        <time>2021-01-26T08:59:49Z</time>
      </trkpt>
      <trkpt lat="44.2856" lon="7.26073">
        <ele>1476.24</ele>
        <time>2021-01-26T09:00:03Z</time>
      </trkpt>
      <trkpt lat="44.28553" lon="7.26068">
        <ele>1477.2</ele>
        <time>2021-01-26T09:00:17Z</time>
      </trkpt>
      <trkpt lat="44.28547" lon="7.26065">
        <ele>1476.24</ele>
        <time>2021-01-26T09:00:31Z</time>
      </trkpt>
      <trkpt lat="44.28542" lon="7.26066">
        <ele>1476.72</ele>
        <time>2021-01-26T09:00:47Z</time>
      </trkpt>
      <trkpt lat="44.28536" lon="7.26059">
        <ele>1478.65</ele>
        <time>2021-01-26T09:01:02Z</time>
      </trkpt>
      <trkpt lat="44.2853" lon="7.26055">
        <ele>1479.13</ele>
        <time>2021-01-26T09:01:16Z</time>
      </trkpt>
      <trkpt lat="44.28517" lon="7.26053">
        <ele>1479.61</ele>
        <time>2021-01-26T09:01:31Z</time>
      </trkpt>
      <trkpt lat="44.28508" lon="7.26053">
        <ele>1478.16</ele>
        <time>2021-01-26T09:01:44Z</time>
      </trkpt>
      <trkpt lat="44.28504" lon="7.26053">
        <ele>1479.61</ele>
        <time>2021-01-26T09:01:59Z</time>
      </trkpt>
      <trkpt lat="44.28497" lon="7.26052">
        <ele>1478.65</ele>
        <time>2021-01-26T09:02:10Z</time>
      </trkpt>
      <trkpt lat="44.28491" lon="7.26052">
        <ele>1480.09</ele>
        <time>2021-01-26T09:02:26Z</time>
      </trkpt>
      <trkpt lat="44.28486" lon="7.26059">
        <ele>1483.45</ele>
        <time>2021-01-26T09:02:40Z</time>
      </trkpt>
      <trkpt lat="44.28479" lon="7.2606">
        <ele>1486.82</ele>
        <time>2021-01-26T09:02:58Z</time>
      </trkpt>
      <trkpt lat="44.28476" lon="7.26065">
        <ele>1487.3</ele>
        <time>2021-01-26T09:03:11Z</time>
      </trkpt>
      <trkpt lat="44.2847" lon="7.26071">
        <ele>1489.7</ele>
        <time>2021-01-26T09:03:26Z</time>
      </trkpt>
      <trkpt lat="44.2847" lon="7.26073">
        <ele>1495.47</ele>
        <time>2021-01-26T09:03:38Z</time>
      </trkpt>
      <trkpt lat="44.28465" lon="7.26072">
        <ele>1498.83</ele>
        <time>2021-01-26T09:03:48Z</time>
      </trkpt>
      <trkpt lat="44.28462" lon="7.26071">
        <ele>1503.64</ele>
        <time>2021-01-26T09:04:01Z</time>
      </trkpt>
      <trkpt lat="44.2846" lon="7.26066">
        <ele>1504.12</ele>
        <time>2021-01-26T09:04:12Z</time>
      </trkpt>
      <trkpt lat="44.28458" lon="7.26064">
        <ele>1502.68</ele>
        <time>2021-01-26T09:04:28Z</time>
      </trkpt>
      <trkpt lat="44.28461" lon="7.26055">
        <ele>1502.68</ele>
        <time>2021-01-26T09:04:38Z</time>
      </trkpt>
      <trkpt lat="44.28462" lon="7.26048">
        <ele>1502.68</ele>
        <time>2021-01-26T09:04:50Z</time>
      </trkpt>
      <trkpt lat="44.28464" lon="7.26042">
        <ele>1503.64</ele>
        <time>2021-01-26T09:05:04Z</time>
      </trkpt>
      <trkpt lat="44.28462" lon="7.2604">
        <ele>1506.52</ele>
        <time>2021-01-26T09:05:25Z</time>
      </trkpt>
      <trkpt lat="44.28464" lon="7.26035">
        <ele>1508.45</ele>
        <time>2021-01-26T09:05:39Z</time>
      </trkpt>
      <trkpt lat="44.28465" lon="7.26026">
        <ele>1510.37</ele>
        <time>2021-01-26T09:05:52Z</time>
      </trkpt>
      <trkpt lat="44.28464" lon="7.2602">
        <ele>1512.29</ele>
        <time>2021-01-26T09:06:08Z</time>
      </trkpt>
      <trkpt lat="44.28467" lon="7.26012">
        <ele>1515.66</ele>
        <time>2021-01-26T09:06:23Z</time>
      </trkpt>
      <trkpt lat="44.2847" lon="7.26">
        <ele>1517.58</ele>
        <time>2021-01-26T09:06:39Z</time>
      </trkpt>
      <trkpt lat="44.28473" lon="7.25987">
        <ele>1517.1</ele>
        <time>2021-01-26T09:06:52Z</time>
      </trkpt>
      <trkpt lat="44.28477" lon="7.25976">
        <ele>1520.46</ele>
        <time>2021-01-26T09:07:06Z</time>
      </trkpt>
      <trkpt lat="44.28475" lon="7.2597">
        <ele>1520.46</ele>
        <time>2021-01-26T09:07:20Z</time>
      </trkpt>
      <trkpt lat="44.28479" lon="7.25964">
        <ele>1524.31</ele>
        <time>2021-01-26T09:07:36Z</time>
      </trkpt>
      <trkpt lat="44.28483" lon="7.25953">
        <ele>1528.15</ele>
        <time>2021-01-26T09:07:52Z</time>
      </trkpt>
      <trkpt lat="44.28487" lon="7.25943">
        <ele>1531.52</ele>
        <time>2021-01-26T09:08:04Z</time>
      </trkpt>
      <trkpt lat="44.28488" lon="7.25935">
        <ele>1533.44</ele>
        <time>2021-01-26T09:08:17Z</time>
      </trkpt>
      <trkpt lat="44.28492" lon="7.25927">
        <ele>1534.88</ele>
        <time>2021-01-26T09:08:31Z</time>
      </trkpt>
      <trkpt lat="44.28495" lon="7.2592">
        <ele>1537.77</ele>
        <time>2021-01-26T09:08:46Z</time>
      </trkpt>
      <trkpt lat="44.28494" lon="7.25915">
        <ele>1539.21</ele>
        <time>2021-01-26T09:09:00Z</time>
      </trkpt>
      <trkpt lat="44.28498" lon="7.2591">
        <ele>1541.61</ele>
        <time>2021-01-26T09:09:15Z</time>
      </trkpt>
      <trkpt lat="44.28492" lon="7.25909">
        <ele>1544.01</ele>
        <time>2021-01-26T09:09:27Z</time>
      </trkpt>
      <trkpt lat="44.28486" lon="7.2591">
        <ele>1546.42</ele>
        <time>2021-01-26T09:09:42Z</time>
      </trkpt>
      <trkpt lat="44.28478" lon="7.25909">
        <ele>1550.26</ele>
        <time>2021-01-26T09:10:03Z</time>
      </trkpt>
      <trkpt lat="44.28471" lon="7.25907">
        <ele>1553.63</ele>
        <time>2021-01-26T09:10:19Z</time>
      </trkpt>
      <trkpt lat="44.28467" lon="7.25908">
        <ele>1556.03</ele>
        <time>2021-01-26T09:10:34Z</time>
      </trkpt>
      <trkpt lat="44.28472" lon="7.25907">
        <ele>1556.99</ele>
        <time>2021-01-26T09:10:47Z</time>
      </trkpt>
      <trkpt lat="44.28472" lon="7.25899">
        <ele>1557.95</ele>
        <time>2021-01-26T09:11:03Z</time>
      </trkpt>
      <trkpt lat="44.28473" lon="7.25892">
        <ele>1557.95</ele>
        <time>2021-01-26T09:11:16Z</time>
      </trkpt>
      <trkpt lat="44.28467" lon="7.2589">
        <ele>1559.88</ele>
        <time>2021-01-26T09:11:30Z</time>
      </trkpt>
      <trkpt lat="44.28461" lon="7.25888">
        <ele>1562.28</ele>
        <time>2021-01-26T09:11:42Z</time>
      </trkpt>
      <trkpt lat="44.28455" lon="7.25887">
        <ele>1565.64</ele>
        <time>2021-01-26T09:11:56Z</time>
      </trkpt>
      <trkpt lat="44.28458" lon="7.25885">
        <ele>1567.57</ele>
        <time>2021-01-26T09:12:09Z</time>
      </trkpt>
      <trkpt lat="44.28463" lon="7.25881">
        <ele>1565.16</ele>
        <time>2021-01-26T09:12:22Z</time>
      </trkpt>
      <trkpt lat="44.28466" lon="7.25874">
        <ele>1567.57</ele>
        <time>2021-01-26T09:12:34Z</time>
      </trkpt>
      <trkpt lat="44.28465" lon="7.25868">
        <ele>1570.93</ele>
        <time>2021-01-26T09:12:49Z</time>
      </trkpt>
      <trkpt lat="44.28457" lon="7.2587">
        <ele>1572.85</ele>
        <time>2021-01-26T09:13:04Z</time>
      </trkpt>
      <trkpt lat="44.2846" lon="7.2587">
        <ele>1572.85</ele>
        <time>2021-01-26T09:13:18Z</time>
      </trkpt>
      <trkpt lat="44.28462" lon="7.25862">
        <ele>1571.89</ele>
        <time>2021-01-26T09:13:30Z</time>
      </trkpt>
      <trkpt lat="44.28419" lon="7.25864">
        <ele>1591.12</ele>
        <time>2021-01-26T09:17:05Z</time>
      </trkpt>
      <trkpt lat="44.28429" lon="7.25865">
        <ele>1580.06</ele>
        <time>2021-01-26T09:17:23Z</time>
      </trkpt>
      <trkpt lat="44.28428" lon="7.25863">
        <ele>1583.91</ele>
        <time>2021-01-26T09:17:44Z</time>
      </trkpt>
      <trkpt lat="44.28424" lon="7.25864">
        <ele>1584.39</ele>
        <time>2021-01-26T09:18:10Z</time>
      </trkpt>
      <trkpt lat="44.28417" lon="7.25867">
        <ele>1586.79</ele>
        <time>2021-01-26T09:18:24Z</time>
      </trkpt>
      <trkpt lat="44.28408" lon="7.25869">
        <ele>1588.24</ele>
        <time>2021-01-26T09:18:39Z</time>
      </trkpt>
      <trkpt lat="44.28401" lon="7.25868">
        <ele>1593.04</ele>
        <time>2021-01-26T09:18:57Z</time>
      </trkpt>
      <trkpt lat="44.28404" lon="7.25864">
        <ele>1594</ele>
        <time>2021-01-26T09:19:10Z</time>
      </trkpt>
      <trkpt lat="44.28407" lon="7.25853">
        <ele>1598.33</ele>
        <time>2021-01-26T09:19:28Z</time>
      </trkpt>
      <trkpt lat="44.28407" lon="7.25843">
        <ele>1602.17</ele>
        <time>2021-01-26T09:19:44Z</time>
      </trkpt>
      <trkpt lat="44.2841" lon="7.25836">
        <ele>1603.14</ele>
        <time>2021-01-26T09:19:58Z</time>
      </trkpt>
      <trkpt lat="44.28414" lon="7.25831">
        <ele>1605.06</ele>
        <time>2021-01-26T09:20:12Z</time>
      </trkpt>
      <trkpt lat="44.28413" lon="7.25825">
        <ele>1606.5</ele>
        <time>2021-01-26T09:20:26Z</time>
      </trkpt>
      <trkpt lat="44.28407" lon="7.25824">
        <ele>1608.42</ele>
        <time>2021-01-26T09:20:40Z</time>
      </trkpt>
      <trkpt lat="44.28411" lon="7.25818">
        <ele>1608.42</ele>
        <time>2021-01-26T09:20:54Z</time>
      </trkpt>
      <trkpt lat="44.28412" lon="7.25814">
        <ele>1612.27</ele>
        <time>2021-01-26T09:21:12Z</time>
      </trkpt>
      <trkpt lat="44.28405" lon="7.25817">
        <ele>1610.83</ele>
        <time>2021-01-26T09:21:29Z</time>
      </trkpt>
      <trkpt lat="44.28399" lon="7.25818">
        <ele>1612.27</ele>
        <time>2021-01-26T09:21:39Z</time>
      </trkpt>
      <trkpt lat="44.2839" lon="7.25822">
        <ele>1614.19</ele>
        <time>2021-01-26T09:21:54Z</time>
      </trkpt>
      <trkpt lat="44.28384" lon="7.25826">
        <ele>1614.19</ele>
        <time>2021-01-26T09:22:09Z</time>
      </trkpt>
      <trkpt lat="44.28382" lon="7.25826">
        <ele>1617.07</ele>
        <time>2021-01-26T09:22:26Z</time>
      </trkpt>
      <trkpt lat="44.28382" lon="7.25824">
        <ele>1618.52</ele>
        <time>2021-01-26T09:22:42Z</time>
      </trkpt>
      <trkpt lat="44.28384" lon="7.2582">
        <ele>1619.48</ele>
        <time>2021-01-26T09:22:57Z</time>
      </trkpt>
      <trkpt lat="44.28378" lon="7.25821">
        <ele>1619.96</ele>
        <time>2021-01-26T09:23:11Z</time>
      </trkpt>
      <trkpt lat="44.28374" lon="7.25823">
        <ele>1621.88</ele>
        <time>2021-01-26T09:23:24Z</time>
      </trkpt>
      <trkpt lat="44.28368" lon="7.25824">
        <ele>1625.25</ele>
        <time>2021-01-26T09:23:40Z</time>
      </trkpt>
      <trkpt lat="44.2836" lon="7.25821">
        <ele>1628.61</ele>
        <time>2021-01-26T09:23:54Z</time>
      </trkpt>
      <trkpt lat="44.28353" lon="7.25819">
        <ele>1629.57</ele>
        <time>2021-01-26T09:24:04Z</time>
      </trkpt>
      <trkpt lat="44.28344" lon="7.25818">
        <ele>1634.86</ele>
        <time>2021-01-26T09:24:18Z</time>
      </trkpt>
      <trkpt lat="44.28335" lon="7.25816">
        <ele>1640.15</ele>
        <time>2021-01-26T09:24:33Z</time>
      </trkpt>
      <trkpt lat="44.28341" lon="7.25815">
        <ele>1639.19</ele>
        <time>2021-01-26T09:24:49Z</time>
      </trkpt>
      <trkpt lat="44.28348" lon="7.25809">
        <ele>1641.59</ele>
        <time>2021-01-26T09:25:05Z</time>
      </trkpt>
      <trkpt lat="44.28353" lon="7.25805">
        <ele>1641.11</ele>
        <time>2021-01-26T09:25:18Z</time>
      </trkpt>
      <trkpt lat="44.28356" lon="7.25799">
        <ele>1642.07</ele>
        <time>2021-01-26T09:25:31Z</time>
      </trkpt>
      <trkpt lat="44.28363" lon="7.25794">
        <ele>1644.47</ele>
        <time>2021-01-26T09:25:45Z</time>
      </trkpt>
      <trkpt lat="44.2836" lon="7.25793">
        <ele>1645.43</ele>
        <time>2021-01-26T09:26:00Z</time>
      </trkpt>
      <trkpt lat="44.28354" lon="7.25788">
        <ele>1648.32</ele>
        <time>2021-01-26T09:26:15Z</time>
      </trkpt>
      <trkpt lat="44.2835" lon="7.25788">
        <ele>1649.28</ele>
        <time>2021-01-26T09:26:30Z</time>
      </trkpt>
      <trkpt lat="44.28348" lon="7.25788">
        <ele>1649.76</ele>
        <time>2021-01-26T09:26:43Z</time>
      </trkpt>
      <trkpt lat="44.28352" lon="7.25786">
        <ele>1649.76</ele>
        <time>2021-01-26T09:27:00Z</time>
      </trkpt>
      <trkpt lat="44.28356" lon="7.25779">
        <ele>1647.36</ele>
        <time>2021-01-26T09:27:13Z</time>
      </trkpt>
      <trkpt lat="44.28359" lon="7.25774">
        <ele>1649.76</ele>
        <time>2021-01-26T09:27:27Z</time>
      </trkpt>
      <trkpt lat="44.2836" lon="7.25763">
        <ele>1649.28</ele>
        <time>2021-01-26T09:27:39Z</time>
      </trkpt>
      <trkpt lat="44.28359" lon="7.25762">
        <ele>1652.16</ele>
        <time>2021-01-26T09:27:56Z</time>
      </trkpt>
      <trkpt lat="44.28356" lon="7.25763">
        <ele>1653.6</ele>
        <time>2021-01-26T09:28:14Z</time>
      </trkpt>
      <trkpt lat="44.28359" lon="7.25759">
        <ele>1655.05</ele>
        <time>2021-01-26T09:28:31Z</time>
      </trkpt>
      <trkpt lat="44.2836" lon="7.25751">
        <ele>1658.89</ele>
        <time>2021-01-26T09:28:48Z</time>
      </trkpt>
      <trkpt lat="44.28356" lon="7.25747">
        <ele>1663.22</ele>
        <time>2021-01-26T09:29:07Z</time>
      </trkpt>
      <trkpt lat="44.28357" lon="7.2574">
        <ele>1666.1</ele>
        <time>2021-01-26T09:29:26Z</time>
      </trkpt>
      <trkpt lat="44.28354" lon="7.25743">
        <ele>1666.58</ele>
        <time>2021-01-26T09:29:41Z</time>
      </trkpt>
      <trkpt lat="44.28347" lon="7.25752">
        <ele>1665.14</ele>
        <time>2021-01-26T09:29:54Z</time>
      </trkpt>
      <trkpt lat="44.28346" lon="7.25753">
        <ele>1663.7</ele>
        <time>2021-01-26T09:30:09Z</time>
      </trkpt>
      <trkpt lat="44.28346" lon="7.25747">
        <ele>1663.22</ele>
        <time>2021-01-26T09:30:21Z</time>
      </trkpt>
      <trkpt lat="44.28345" lon="7.25743">
        <ele>1665.14</ele>
        <time>2021-01-26T09:30:39Z</time>
      </trkpt>
      <trkpt lat="44.28343" lon="7.25736">
        <ele>1665.62</ele>
        <time>2021-01-26T09:30:58Z</time>
      </trkpt>
      <trkpt lat="44.28342" lon="7.25744">
        <ele>1667.54</ele>
        <time>2021-01-26T09:31:13Z</time>
      </trkpt>
      <trkpt lat="44.28338" lon="7.25751">
        <ele>1667.06</ele>
        <time>2021-01-26T09:31:26Z</time>
      </trkpt>
      <trkpt lat="44.28337" lon="7.25749">
        <ele>1668.51</ele>
        <time>2021-01-26T09:31:39Z</time>
      </trkpt>
      <trkpt lat="44.28337" lon="7.25744">
        <ele>1670.43</ele>
        <time>2021-01-26T09:31:51Z</time>
      </trkpt>
      <trkpt lat="44.28333" lon="7.25744">
        <ele>1668.51</ele>
        <time>2021-01-26T09:32:05Z</time>
      </trkpt>
      <trkpt lat="44.2833" lon="7.25743">
        <ele>1668.51</ele>
        <time>2021-01-26T09:32:20Z</time>
      </trkpt>
      <trkpt lat="44.28332" lon="7.25737">
        <ele>1669.95</ele>
        <time>2021-01-26T09:32:35Z</time>
      </trkpt>
      <trkpt lat="44.28333" lon="7.2573">
        <ele>1672.83</ele>
        <time>2021-01-26T09:32:53Z</time>
      </trkpt>
      <trkpt lat="44.2833" lon="7.25729">
        <ele>1673.79</ele>
        <time>2021-01-26T09:33:06Z</time>
      </trkpt>
      <trkpt lat="44.28325" lon="7.25733">
        <ele>1674.75</ele>
        <time>2021-01-26T09:33:20Z</time>
      </trkpt>
      <trkpt lat="44.28314" lon="7.25735">
        <ele>1676.2</ele>
        <time>2021-01-26T09:33:36Z</time>
      </trkpt>
      <trkpt lat="44.28311" lon="7.25733">
        <ele>1679.56</ele>
        <time>2021-01-26T09:33:55Z</time>
      </trkpt>
      <trkpt lat="44.28308" lon="7.2573">
        <ele>1684.37</ele>
        <time>2021-01-26T09:34:18Z</time>
      </trkpt>
      <trkpt lat="44.28312" lon="7.25729">
        <ele>1685.33</ele>
        <time>2021-01-26T09:34:32Z</time>
      </trkpt>
      <trkpt lat="44.28316" lon="7.25722">
        <ele>1687.25</ele>
        <time>2021-01-26T09:34:46Z</time>
      </trkpt>
      <trkpt lat="44.28307" lon="7.25718">
        <ele>1689.65</ele>
        <time>2021-01-26T09:35:03Z</time>
      </trkpt>
      <trkpt lat="44.28301" lon="7.25715">
        <ele>1693.02</ele>
        <time>2021-01-26T09:35:15Z</time>
      </trkpt>
      <trkpt lat="44.28299" lon="7.25717">
        <ele>1695.9</ele>
        <time>2021-01-26T09:35:31Z</time>
      </trkpt>
      <trkpt lat="44.28298" lon="7.25715">
        <ele>1698.31</ele>
        <time>2021-01-26T09:35:48Z</time>
      </trkpt>
      <trkpt lat="44.28292" lon="7.25712">
        <ele>1698.79</ele>
        <time>2021-01-26T09:36:01Z</time>
      </trkpt>
      <trkpt lat="44.28288" lon="7.2571">
        <ele>1702.63</ele>
        <time>2021-01-26T09:36:16Z</time>
      </trkpt>
      <trkpt lat="44.28281" lon="7.257">
        <ele>1709.36</ele>
        <time>2021-01-26T09:36:36Z</time>
      </trkpt>
      <trkpt lat="44.28276" lon="7.25694">
        <ele>1710.32</ele>
        <time>2021-01-26T09:36:45Z</time>
      </trkpt>
      <trkpt lat="44.28265" lon="7.25683">
        <ele>1707.44</ele>
        <time>2021-01-26T09:36:59Z</time>
      </trkpt>
      <trkpt lat="44.28257" lon="7.25677">
        <ele>1707.44</ele>
        <time>2021-01-26T09:37:11Z</time>
      </trkpt>
      <trkpt lat="44.28249" lon="7.25669">
        <ele>1706</ele>
        <time>2021-01-26T09:37:24Z</time>
      </trkpt>
      <trkpt lat="44.28243" lon="7.25665">
        <ele>1706.48</ele>
        <time>2021-01-26T09:37:38Z</time>
      </trkpt>
      <trkpt lat="44.28241" lon="7.25666">
        <ele>1706.96</ele>
        <time>2021-01-26T09:37:51Z</time>
      </trkpt>
      <trkpt lat="44.2824" lon="7.25665">
        <ele>1709.84</ele>
        <time>2021-01-26T09:38:06Z</time>
      </trkpt>
      <trkpt lat="44.28239" lon="7.2566">
        <ele>1709.36</ele>
        <time>2021-01-26T09:38:16Z</time>
      </trkpt>
      <trkpt lat="44.28237" lon="7.25658">
        <ele>1704.55</ele>
        <time>2021-01-26T09:38:31Z</time>
      </trkpt>
      <trkpt lat="44.28236" lon="7.25657">
        <ele>1705.04</ele>
        <time>2021-01-26T09:38:44Z</time>
      </trkpt>
      <trkpt lat="44.28238" lon="7.25655">
        <ele>1704.07</ele>
        <time>2021-01-26T09:39:15Z</time>
      </trkpt>
      <trkpt lat="44.28239" lon="7.25657">
        <ele>1700.71</ele>
        <time>2021-01-26T09:39:43Z</time>
      </trkpt>
      <trkpt lat="44.28237" lon="7.25658">
        <ele>1702.63</ele>
        <time>2021-01-26T09:40:05Z</time>
      </trkpt>
      <trkpt lat="44.28236" lon="7.2566">
        <ele>1704.07</ele>
        <time>2021-01-26T09:40:19Z</time>
      </trkpt>
      <trkpt lat="44.28236" lon="7.25662">
        <ele>1705.04</ele>
        <time>2021-01-26T09:40:38Z</time>
      </trkpt>
      <trkpt lat="44.28237" lon="7.25662">
        <ele>1706</ele>
        <time>2021-01-26T09:40:52Z</time>
      </trkpt>
      <trkpt lat="44.28238" lon="7.25657">
        <ele>1700.23</ele>
        <time>2021-01-26T09:41:03Z</time>
      </trkpt>
      <trkpt lat="44.28241" lon="7.25655">
        <ele>1699.75</ele>
        <time>2021-01-26T09:41:36Z</time>
      </trkpt>
      <trkpt lat="44.28239" lon="7.2566">
        <ele>1706</ele>
        <time>2021-01-26T09:42:11Z</time>
      </trkpt>
      <trkpt lat="44.28234" lon="7.25656">
        <ele>1715.13</ele>
        <time>2021-01-26T09:42:46Z</time>
      </trkpt>
      <trkpt lat="44.2824" lon="7.25652">
        <ele>1709.84</ele>
        <time>2021-01-26T09:43:17Z</time>
      </trkpt>
      <trkpt lat="44.28238" lon="7.25661">
        <ele>1707.44</ele>
        <time>2021-01-26T09:43:43Z</time>
      </trkpt>
      <trkpt lat="44.2824" lon="7.25661">
        <ele>1706.96</ele>
        <time>2021-01-26T09:44:18Z</time>
      </trkpt>
      <trkpt lat="44.28243" lon="7.25655">
        <ele>1705.52</ele>
        <time>2021-01-26T09:44:44Z</time>
      </trkpt>
      <trkpt lat="44.28239" lon="7.25658">
        <ele>1705.52</ele>
        <time>2021-01-26T09:45:02Z</time>
      </trkpt>
      <trkpt lat="44.28235" lon="7.25659">
        <ele>1706.96</ele>
        <time>2021-01-26T09:45:15Z</time>
      </trkpt>
      <trkpt lat="44.28235" lon="7.25659">
        <ele>1710.8</ele>
        <time>2021-01-26T09:45:37Z</time>
      </trkpt>
      <trkpt lat="44.28234" lon="7.25658">
        <ele>1711.76</ele>
        <time>2021-01-26T09:46:00Z</time>
      </trkpt>
      <trkpt lat="44.28233" lon="7.25659">
        <ele>1712.25</ele>
        <time>2021-01-26T09:46:22Z</time>
      </trkpt>
      <trkpt lat="44.28233" lon="7.25661">
        <ele>1713.21</ele>
        <time>2021-01-26T09:46:47Z</time>
      </trkpt>
      <trkpt lat="44.28233" lon="7.2566">
        <ele>1710.8</ele>
        <time>2021-01-26T09:47:11Z</time>
      </trkpt>
      <trkpt lat="44.28233" lon="7.25659">
        <ele>1709.84</ele>
        <time>2021-01-26T09:47:31Z</time>
      </trkpt>
      <trkpt lat="44.28234" lon="7.25661">
        <ele>1712.73</ele>
        <time>2021-01-26T09:47:55Z</time>
      </trkpt>
      <trkpt lat="44.28226" lon="7.25657">
        <ele>1712.25</ele>
        <time>2021-01-26T09:48:10Z</time>
      </trkpt>
      <trkpt lat="44.28223" lon="7.25656">
        <ele>1711.76</ele>
        <time>2021-01-26T09:48:14Z</time>
      </trkpt>
      <trkpt lat="44.28211" lon="7.25655">
        <ele>1710.32</ele>
        <time>2021-01-26T09:48:28Z</time>
      </trkpt>
      <trkpt lat="44.28201" lon="7.25652">
        <ele>1710.32</ele>
        <time>2021-01-26T09:48:40Z</time>
      </trkpt>
      <trkpt lat="44.28195" lon="7.25651">
        <ele>1711.28</ele>
        <time>2021-01-26T09:48:52Z</time>
      </trkpt>
      <trkpt lat="44.28182" lon="7.25649">
        <ele>1715.13</ele>
        <time>2021-01-26T09:49:08Z</time>
      </trkpt>
      <trkpt lat="44.28179" lon="7.25649">
        <ele>1716.09</ele>
        <time>2021-01-26T09:49:21Z</time>
      </trkpt>
      <trkpt lat="44.28173" lon="7.25649">
        <ele>1716.09</ele>
        <time>2021-01-26T09:49:37Z</time>
      </trkpt>
      <trkpt lat="44.28164" lon="7.25649">
        <ele>1718.01</ele>
        <time>2021-01-26T09:49:51Z</time>
      </trkpt>
      <trkpt lat="44.28153" lon="7.25647">
        <ele>1721.38</ele>
        <time>2021-01-26T09:50:07Z</time>
      </trkpt>
      <trkpt lat="44.28147" lon="7.25647">
        <ele>1723.78</ele>
        <time>2021-01-26T09:50:22Z</time>
      </trkpt>
      <trkpt lat="44.28142" lon="7.25648">
        <ele>1724.74</ele>
        <time>2021-01-26T09:50:34Z</time>
      </trkpt>
      <trkpt lat="44.28134" lon="7.25646">
        <ele>1725.7</ele>
        <time>2021-01-26T09:50:46Z</time>
      </trkpt>
      <trkpt lat="44.28125" lon="7.25646">
        <ele>1727.15</ele>
        <time>2021-01-26T09:51:01Z</time>
      </trkpt>
      <trkpt lat="44.28117" lon="7.25646">
        <ele>1724.26</ele>
        <time>2021-01-26T09:51:16Z</time>
      </trkpt>
      <trkpt lat="44.28113" lon="7.25641">
        <ele>1720.42</ele>
        <time>2021-01-26T09:51:27Z</time>
      </trkpt>
      <trkpt lat="44.2811" lon="7.25636">
        <ele>1720.9</ele>
        <time>2021-01-26T09:51:47Z</time>
      </trkpt>
      <trkpt lat="44.28105" lon="7.25631">
        <ele>1723.3</ele>
        <time>2021-01-26T09:51:59Z</time>
      </trkpt>
      <trkpt lat="44.28103" lon="7.25623">
        <ele>1723.3</ele>
        <time>2021-01-26T09:52:13Z</time>
      </trkpt>
      <trkpt lat="44.28101" lon="7.25617">
        <ele>1725.7</ele>
        <time>2021-01-26T09:52:29Z</time>
      </trkpt>
      <trkpt lat="44.28098" lon="7.2561">
        <ele>1727.15</ele>
        <time>2021-01-26T09:52:43Z</time>
      </trkpt>
      <trkpt lat="44.28094" lon="7.25604">
        <ele>1729.07</ele>
        <time>2021-01-26T09:52:56Z</time>
      </trkpt>
      <trkpt lat="44.28092" lon="7.25601">
        <ele>1731.47</ele>
        <time>2021-01-26T09:53:11Z</time>
      </trkpt>
      <trkpt lat="44.28088" lon="7.25608">
        <ele>1732.91</ele>
        <time>2021-01-26T09:53:23Z</time>
      </trkpt>
      <trkpt lat="44.28082" lon="7.25614">
        <ele>1732.91</ele>
        <time>2021-01-26T09:53:37Z</time>
      </trkpt>
      <trkpt lat="44.28076" lon="7.2562">
        <ele>1733.88</ele>
        <time>2021-01-26T09:53:54Z</time>
      </trkpt>
      <trkpt lat="44.28068" lon="7.25623">
        <ele>1734.84</ele>
        <time>2021-01-26T09:54:10Z</time>
      </trkpt>
      <trkpt lat="44.28062" lon="7.25626">
        <ele>1736.28</ele>
        <time>2021-01-26T09:54:25Z</time>
      </trkpt>
      <trkpt lat="44.28063" lon="7.2562">
        <ele>1735.8</ele>
        <time>2021-01-26T09:54:35Z</time>
      </trkpt>
      <trkpt lat="44.28066" lon="7.25607">
        <ele>1739.16</ele>
        <time>2021-01-26T09:54:54Z</time>
      </trkpt>
      <trkpt lat="44.28062" lon="7.25601">
        <ele>1740.6</ele>
        <time>2021-01-26T09:55:09Z</time>
      </trkpt>
      <trkpt lat="44.28055" lon="7.25602">
        <ele>1743.49</ele>
        <time>2021-01-26T09:55:24Z</time>
      </trkpt>
      <trkpt lat="44.28049" lon="7.25605">
        <ele>1746.37</ele>
        <time>2021-01-26T09:55:40Z</time>
      </trkpt>
      <trkpt lat="44.28044" lon="7.25605">
        <ele>1748.29</ele>
        <time>2021-01-26T09:55:54Z</time>
      </trkpt>
      <trkpt lat="44.28044" lon="7.25598">
        <ele>1749.74</ele>
        <time>2021-01-26T09:56:08Z</time>
      </trkpt>
      <trkpt lat="44.28043" lon="7.25592">
        <ele>1753.58</ele>
        <time>2021-01-26T09:56:21Z</time>
      </trkpt>
      <trkpt lat="44.28042" lon="7.25581">
        <ele>1755.02</ele>
        <time>2021-01-26T09:56:36Z</time>
      </trkpt>
      <trkpt lat="44.28036" lon="7.25583">
        <ele>1757.91</ele>
        <time>2021-01-26T09:56:47Z</time>
      </trkpt>
      <trkpt lat="44.2803" lon="7.25588">
        <ele>1757.91</ele>
        <time>2021-01-26T09:57:03Z</time>
      </trkpt>
      <trkpt lat="44.28024" lon="7.25589">
        <ele>1759.83</ele>
        <time>2021-01-26T09:57:21Z</time>
      </trkpt>
      <trkpt lat="44.28023" lon="7.2559">
        <ele>1761.75</ele>
        <time>2021-01-26T09:57:38Z</time>
      </trkpt>
      <trkpt lat="44.28023" lon="7.25588">
        <ele>1761.75</ele>
        <time>2021-01-26T09:57:50Z</time>
      </trkpt>
      <trkpt lat="44.28025" lon="7.25586">
        <ele>1759.83</ele>
        <time>2021-01-26T09:58:04Z</time>
      </trkpt>
      <trkpt lat="44.28027" lon="7.25584">
        <ele>1758.87</ele>
        <time>2021-01-26T09:58:21Z</time>
      </trkpt>
      <trkpt lat="44.28025" lon="7.25578">
        <ele>1759.83</ele>
        <time>2021-01-26T09:58:39Z</time>
      </trkpt>
      <trkpt lat="44.28025" lon="7.25569">
        <ele>1762.23</ele>
        <time>2021-01-26T09:58:52Z</time>
      </trkpt>
      <trkpt lat="44.28021" lon="7.25565">
        <ele>1768</ele>
        <time>2021-01-26T09:59:08Z</time>
      </trkpt>
      <trkpt lat="44.28017" lon="7.2557">
        <ele>1770.41</ele>
        <time>2021-01-26T09:59:23Z</time>
      </trkpt>
      <trkpt lat="44.28018" lon="7.2557">
        <ele>1769.44</ele>
        <time>2021-01-26T09:59:45Z</time>
      </trkpt>
      <trkpt lat="44.2801" lon="7.25573">
        <ele>1770.89</ele>
        <time>2021-01-26T09:59:58Z</time>
      </trkpt>
      <trkpt lat="44.28008" lon="7.25565">
        <ele>1771.37</ele>
        <time>2021-01-26T10:00:10Z</time>
      </trkpt>
      <trkpt lat="44.28003" lon="7.25563">
        <ele>1773.29</ele>
        <time>2021-01-26T10:00:23Z</time>
      </trkpt>
      <trkpt lat="44.27999" lon="7.25563">
        <ele>1776.17</ele>
        <time>2021-01-26T10:00:34Z</time>
      </trkpt>
      <trkpt lat="44.27999" lon="7.25563">
        <ele>1780.5</ele>
        <time>2021-01-26T10:00:54Z</time>
      </trkpt>
      <trkpt lat="44.28002" lon="7.25566">
        <ele>1780.98</ele>
        <time>2021-01-26T10:01:30Z</time>
      </trkpt>
      <trkpt lat="44.27999" lon="7.25556">
        <ele>1782.42</ele>
        <time>2021-01-26T10:01:45Z</time>
      </trkpt>
      <trkpt lat="44.27995" lon="7.25549">
        <ele>1782.42</ele>
        <time>2021-01-26T10:01:59Z</time>
      </trkpt>
      <trkpt lat="44.27991" lon="7.25543">
        <ele>1786.27</ele>
        <time>2021-01-26T10:02:12Z</time>
      </trkpt>
      <trkpt lat="44.27988" lon="7.25539">
        <ele>1787.23</ele>
        <time>2021-01-26T10:02:24Z</time>
      </trkpt>
      <trkpt lat="44.27982" lon="7.2553">
        <ele>1789.63</ele>
        <time>2021-01-26T10:02:40Z</time>
      </trkpt>
      <trkpt lat="44.27982" lon="7.25527">
        <ele>1792.52</ele>
        <time>2021-01-26T10:02:57Z</time>
      </trkpt>
      <trkpt lat="44.27976" lon="7.25522">
        <ele>1795.88</ele>
        <time>2021-01-26T10:03:08Z</time>
      </trkpt>
      <trkpt lat="44.27973" lon="7.25532">
        <ele>1799.73</ele>
        <time>2021-01-26T10:03:22Z</time>
      </trkpt>
      <trkpt lat="44.27969" lon="7.25543">
        <ele>1802.13</ele>
        <time>2021-01-26T10:03:40Z</time>
      </trkpt>
      <trkpt lat="44.27964" lon="7.25549">
        <ele>1801.17</ele>
        <time>2021-01-26T10:03:52Z</time>
      </trkpt>
      <trkpt lat="44.27961" lon="7.25549">
        <ele>1801.17</ele>
        <time>2021-01-26T10:04:06Z</time>
      </trkpt>
      <trkpt lat="44.27961" lon="7.2554">
        <ele>1800.21</ele>
        <time>2021-01-26T10:04:19Z</time>
      </trkpt>
      <trkpt lat="44.27961" lon="7.25532">
        <ele>1801.65</ele>
        <time>2021-01-26T10:04:32Z</time>
      </trkpt>
      <trkpt lat="44.27959" lon="7.25529">
        <ele>1804.05</ele>
        <time>2021-01-26T10:04:46Z</time>
      </trkpt>
      <trkpt lat="44.27952" lon="7.25537">
        <ele>1805.01</ele>
        <time>2021-01-26T10:05:03Z</time>
      </trkpt>
      <trkpt lat="44.27949" lon="7.25536">
        <ele>1807.9</ele>
        <time>2021-01-26T10:05:17Z</time>
      </trkpt>
      <trkpt lat="44.27948" lon="7.25526">
        <ele>1808.38</ele>
        <time>2021-01-26T10:05:31Z</time>
      </trkpt>
      <trkpt lat="44.27945" lon="7.25518">
        <ele>1812.22</ele>
        <time>2021-01-26T10:05:47Z</time>
      </trkpt>
      <trkpt lat="44.27942" lon="7.25519">
        <ele>1812.22</ele>
        <time>2021-01-26T10:05:59Z</time>
      </trkpt>
      <trkpt lat="44.27937" lon="7.25526">
        <ele>1814.63</ele>
        <time>2021-01-26T10:06:12Z</time>
      </trkpt>
      <trkpt lat="44.27935" lon="7.25522">
        <ele>1816.07</ele>
        <time>2021-01-26T10:06:27Z</time>
      </trkpt>
      <trkpt lat="44.27933" lon="7.25514">
        <ele>1817.51</ele>
        <time>2021-01-26T10:06:40Z</time>
      </trkpt>
      <trkpt lat="44.2793" lon="7.25508">
        <ele>1820.39</ele>
        <time>2021-01-26T10:06:55Z</time>
      </trkpt>
      <trkpt lat="44.27927" lon="7.25508">
        <ele>1823.28</ele>
        <time>2021-01-26T10:07:08Z</time>
      </trkpt>
      <trkpt lat="44.27927" lon="7.25513">
        <ele>1825.2</ele>
        <time>2021-01-26T10:07:24Z</time>
      </trkpt>
      <trkpt lat="44.27923" lon="7.25517">
        <ele>1825.2</ele>
        <time>2021-01-26T10:07:36Z</time>
      </trkpt>
      <trkpt lat="44.27919" lon="7.25514">
        <ele>1826.64</ele>
        <time>2021-01-26T10:07:49Z</time>
      </trkpt>
      <trkpt lat="44.27917" lon="7.25506">
        <ele>1827.6</ele>
        <time>2021-01-26T10:08:03Z</time>
      </trkpt>
      <trkpt lat="44.27914" lon="7.25499">
        <ele>1829.53</ele>
        <time>2021-01-26T10:08:17Z</time>
      </trkpt>
      <trkpt lat="44.27914" lon="7.25493">
        <ele>1831.45</ele>
        <time>2021-01-26T10:08:31Z</time>
      </trkpt>
      <trkpt lat="44.27913" lon="7.2549">
        <ele>1832.89</ele>
        <time>2021-01-26T10:08:49Z</time>
      </trkpt>
      <trkpt lat="44.27908" lon="7.255">
        <ele>1835.77</ele>
        <time>2021-01-26T10:09:07Z</time>
      </trkpt>
      <trkpt lat="44.27904" lon="7.25504">
        <ele>1837.22</ele>
        <time>2021-01-26T10:09:22Z</time>
      </trkpt>
      <trkpt lat="44.27902" lon="7.25504">
        <ele>1839.62</ele>
        <time>2021-01-26T10:09:34Z</time>
      </trkpt>
      <trkpt lat="44.27903" lon="7.25497">
        <ele>1838.66</ele>
        <time>2021-01-26T10:09:48Z</time>
      </trkpt>
      <trkpt lat="44.27902" lon="7.25493">
        <ele>1839.62</ele>
        <time>2021-01-26T10:10:05Z</time>
      </trkpt>
      <trkpt lat="44.27899" lon="7.25495">
        <ele>1839.14</ele>
        <time>2021-01-26T10:10:21Z</time>
      </trkpt>
      <trkpt lat="44.27895" lon="7.25498">
        <ele>1840.1</ele>
        <time>2021-01-26T10:10:32Z</time>
      </trkpt>
      <trkpt lat="44.27889" lon="7.25503">
        <ele>1840.1</ele>
        <time>2021-01-26T10:10:44Z</time>
      </trkpt>
      <trkpt lat="44.27886" lon="7.25505">
        <ele>1842.5</ele>
        <time>2021-01-26T10:10:56Z</time>
      </trkpt>
      <trkpt lat="44.27884" lon="7.25506">
        <ele>1843.95</ele>
        <time>2021-01-26T10:11:07Z</time>
      </trkpt>
      <trkpt lat="44.27884" lon="7.25499">
        <ele>1848.75</ele>
        <time>2021-01-26T10:11:19Z</time>
      </trkpt>
      <trkpt lat="44.27884" lon="7.25491">
        <ele>1851.64</ele>
        <time>2021-01-26T10:11:31Z</time>
      </trkpt>
      <trkpt lat="44.27882" lon="7.25484">
        <ele>1855</ele>
        <time>2021-01-26T10:11:44Z</time>
      </trkpt>
      <trkpt lat="44.27879" lon="7.25479">
        <ele>1857.4</ele>
        <time>2021-01-26T10:11:56Z</time>
      </trkpt>
      <trkpt lat="44.27879" lon="7.25478">
        <ele>1859.81</ele>
        <time>2021-01-26T10:12:18Z</time>
      </trkpt>
      <trkpt lat="44.27877" lon="7.25479">
        <ele>1859.33</ele>
        <time>2021-01-26T10:12:32Z</time>
      </trkpt>
      <trkpt lat="44.27875" lon="7.25487">
        <ele>1859.81</ele>
        <time>2021-01-26T10:12:45Z</time>
      </trkpt>
      <trkpt lat="44.27874" lon="7.25485">
        <ele>1862.69</ele>
        <time>2021-01-26T10:12:59Z</time>
      </trkpt>
      <trkpt lat="44.27874" lon="7.25477">
        <ele>1861.25</ele>
        <time>2021-01-26T10:13:10Z</time>
      </trkpt>
      <trkpt lat="44.27872" lon="7.25472">
        <ele>1860.29</ele>
        <time>2021-01-26T10:13:24Z</time>
      </trkpt>
      <trkpt lat="44.27867" lon="7.25467">
        <ele>1862.21</ele>
        <time>2021-01-26T10:13:40Z</time>
      </trkpt>
      <trkpt lat="44.27862" lon="7.2546">
        <ele>1864.13</ele>
        <time>2021-01-26T10:13:56Z</time>
      </trkpt>
      <trkpt lat="44.27857" lon="7.25457">
        <ele>1864.61</ele>
        <time>2021-01-26T10:14:17Z</time>
      </trkpt>
      <trkpt lat="44.27854" lon="7.25456">
        <ele>1866.06</ele>
        <time>2021-01-26T10:14:32Z</time>
      </trkpt>
      <trkpt lat="44.27857" lon="7.25467">
        <ele>1865.58</ele>
        <time>2021-01-26T10:14:46Z</time>
      </trkpt>
      <trkpt lat="44.27857" lon="7.25473">
        <ele>1865.09</ele>
        <time>2021-01-26T10:15:01Z</time>
      </trkpt>
      <trkpt lat="44.27858" lon="7.25475">
        <ele>1867.5</ele>
        <time>2021-01-26T10:15:18Z</time>
      </trkpt>
      <trkpt lat="44.27854" lon="7.2547">
        <ele>1869.42</ele>
        <time>2021-01-26T10:15:28Z</time>
      </trkpt>
      <trkpt lat="44.2785" lon="7.2547">
        <ele>1872.79</ele>
        <time>2021-01-26T10:15:46Z</time>
      </trkpt>
      <trkpt lat="44.27853" lon="7.2548">
        <ele>1873.27</ele>
        <time>2021-01-26T10:16:00Z</time>
      </trkpt>
      <trkpt lat="44.27851" lon="7.25485">
        <ele>1874.71</ele>
        <time>2021-01-26T10:16:16Z</time>
      </trkpt>
      <trkpt lat="44.27853" lon="7.25486">
        <ele>1876.15</ele>
        <time>2021-01-26T10:16:38Z</time>
      </trkpt>
      <trkpt lat="44.27849" lon="7.25486">
        <ele>1876.15</ele>
        <time>2021-01-26T10:16:53Z</time>
      </trkpt>
      <trkpt lat="44.27847" lon="7.2548">
        <ele>1875.19</ele>
        <time>2021-01-26T10:17:03Z</time>
      </trkpt>
      <trkpt lat="44.27842" lon="7.25475">
        <ele>1877.59</ele>
        <time>2021-01-26T10:17:17Z</time>
      </trkpt>
      <trkpt lat="44.27836" lon="7.25471">
        <ele>1880</ele>
        <time>2021-01-26T10:17:31Z</time>
      </trkpt>
      <trkpt lat="44.27829" lon="7.25467">
        <ele>1884.32</ele>
        <time>2021-01-26T10:17:48Z</time>
      </trkpt>
      <trkpt lat="44.27831" lon="7.25478">
        <ele>1884.8</ele>
        <time>2021-01-26T10:18:02Z</time>
      </trkpt>
      <trkpt lat="44.27831" lon="7.25483">
        <ele>1886.72</ele>
        <time>2021-01-26T10:18:16Z</time>
      </trkpt>
      <trkpt lat="44.27826" lon="7.25479">
        <ele>1887.21</ele>
        <time>2021-01-26T10:18:27Z</time>
      </trkpt>
      <trkpt lat="44.27818" lon="7.25483">
        <ele>1887.69</ele>
        <time>2021-01-26T10:18:41Z</time>
      </trkpt>
      <trkpt lat="44.27812" lon="7.25484">
        <ele>1887.21</ele>
        <time>2021-01-26T10:18:52Z</time>
      </trkpt>
      <trkpt lat="44.27806" lon="7.25478">
        <ele>1887.21</ele>
        <time>2021-01-26T10:19:07Z</time>
      </trkpt>
      <trkpt lat="44.27801" lon="7.25468">
        <ele>1892.49</ele>
        <time>2021-01-26T10:19:23Z</time>
      </trkpt>
      <trkpt lat="44.27799" lon="7.25461">
        <ele>1895.38</ele>
        <time>2021-01-26T10:19:35Z</time>
      </trkpt>
      <trkpt lat="44.27798" lon="7.25463">
        <ele>1895.38</ele>
        <time>2021-01-26T10:19:48Z</time>
      </trkpt>
      <trkpt lat="44.27797" lon="7.25473">
        <ele>1896.82</ele>
        <time>2021-01-26T10:20:00Z</time>
      </trkpt>
      <trkpt lat="44.27794" lon="7.25479">
        <ele>1898.74</ele>
        <time>2021-01-26T10:20:12Z</time>
      </trkpt>
      <trkpt lat="44.27792" lon="7.25481">
        <ele>1900.66</ele>
        <time>2021-01-26T10:20:26Z</time>
      </trkpt>
      <trkpt lat="44.27791" lon="7.25476">
        <ele>1902.59</ele>
        <time>2021-01-26T10:20:39Z</time>
      </trkpt>
      <trkpt lat="44.27789" lon="7.25472">
        <ele>1904.03</ele>
        <time>2021-01-26T10:20:52Z</time>
      </trkpt>
      <trkpt lat="44.27786" lon="7.25465">
        <ele>1906.91</ele>
        <time>2021-01-26T10:21:07Z</time>
      </trkpt>
      <trkpt lat="44.27785" lon="7.25471">
        <ele>1906.91</ele>
        <time>2021-01-26T10:21:18Z</time>
      </trkpt>
      <trkpt lat="44.27782" lon="7.25477">
        <ele>1906.91</ele>
        <time>2021-01-26T10:21:30Z</time>
      </trkpt>
      <trkpt lat="44.2778" lon="7.25477">
        <ele>1909.32</ele>
        <time>2021-01-26T10:21:48Z</time>
      </trkpt>
      <trkpt lat="44.27779" lon="7.2547">
        <ele>1909.8</ele>
        <time>2021-01-26T10:22:01Z</time>
      </trkpt>
      <trkpt lat="44.27773" lon="7.2546">
        <ele>1910.76</ele>
        <time>2021-01-26T10:22:16Z</time>
      </trkpt>
      <trkpt lat="44.27767" lon="7.25453">
        <ele>1912.2</ele>
        <time>2021-01-26T10:22:30Z</time>
      </trkpt>
      <trkpt lat="44.27762" lon="7.25446">
        <ele>1915.56</ele>
        <time>2021-01-26T10:22:46Z</time>
      </trkpt>
      <trkpt lat="44.27761" lon="7.25455">
        <ele>1917.49</ele>
        <time>2021-01-26T10:23:02Z</time>
      </trkpt>
      <trkpt lat="44.27761" lon="7.25467">
        <ele>1920.37</ele>
        <time>2021-01-26T10:23:17Z</time>
      </trkpt>
      <trkpt lat="44.27755" lon="7.25473">
        <ele>1921.33</ele>
        <time>2021-01-26T10:23:31Z</time>
      </trkpt>
      <trkpt lat="44.27751" lon="7.25477">
        <ele>1922.77</ele>
        <time>2021-01-26T10:23:46Z</time>
      </trkpt>
      <trkpt lat="44.27751" lon="7.25469">
        <ele>1925.18</ele>
        <time>2021-01-26T10:23:59Z</time>
      </trkpt>
      <trkpt lat="44.27748" lon="7.25464">
        <ele>1927.58</ele>
        <time>2021-01-26T10:24:14Z</time>
      </trkpt>
      <trkpt lat="44.27746" lon="7.2547">
        <ele>1928.54</ele>
        <time>2021-01-26T10:24:26Z</time>
      </trkpt>
      <trkpt lat="44.27744" lon="7.25466">
        <ele>1930.95</ele>
        <time>2021-01-26T10:24:40Z</time>
      </trkpt>
      <trkpt lat="44.27743" lon="7.25459">
        <ele>1931.43</ele>
        <time>2021-01-26T10:24:57Z</time>
      </trkpt>
      <trkpt lat="44.27741" lon="7.25451">
        <ele>1931.91</ele>
        <time>2021-01-26T10:25:12Z</time>
      </trkpt>
      <trkpt lat="44.27738" lon="7.25447">
        <ele>1933.35</ele>
        <time>2021-01-26T10:25:29Z</time>
      </trkpt>
      <trkpt lat="44.27734" lon="7.2545">
        <ele>1936.23</ele>
        <time>2021-01-26T10:25:45Z</time>
      </trkpt>
      <trkpt lat="44.27734" lon="7.25445">
        <ele>1935.27</ele>
        <time>2021-01-26T10:25:58Z</time>
      </trkpt>
      <trkpt lat="44.27729" lon="7.25433">
        <ele>1938.16</ele>
        <time>2021-01-26T10:26:16Z</time>
      </trkpt>
      <trkpt lat="44.27725" lon="7.25423">
        <ele>1941.04</ele>
        <time>2021-01-26T10:26:31Z</time>
      </trkpt>
      <trkpt lat="44.2772" lon="7.2541">
        <ele>1941.04</ele>
        <time>2021-01-26T10:26:47Z</time>
      </trkpt>
      <trkpt lat="44.27715" lon="7.254">
        <ele>1940.56</ele>
        <time>2021-01-26T10:27:01Z</time>
      </trkpt>
      <trkpt lat="44.27711" lon="7.25393">
        <ele>1942.48</ele>
        <time>2021-01-26T10:27:15Z</time>
      </trkpt>
      <trkpt lat="44.2771" lon="7.25396">
        <ele>1942.96</ele>
        <time>2021-01-26T10:27:27Z</time>
      </trkpt>
      <trkpt lat="44.27711" lon="7.25408">
        <ele>1943.92</ele>
        <time>2021-01-26T10:27:40Z</time>
      </trkpt>
      <trkpt lat="44.27711" lon="7.25415">
        <ele>1946.33</ele>
        <time>2021-01-26T10:27:53Z</time>
      </trkpt>
      <trkpt lat="44.27708" lon="7.25406">
        <ele>1949.21</ele>
        <time>2021-01-26T10:28:07Z</time>
      </trkpt>
      <trkpt lat="44.27702" lon="7.25399">
        <ele>1949.21</ele>
        <time>2021-01-26T10:28:20Z</time>
      </trkpt>
      <trkpt lat="44.27701" lon="7.25394">
        <ele>1949.69</ele>
        <time>2021-01-26T10:28:33Z</time>
      </trkpt>
      <trkpt lat="44.27695" lon="7.25389">
        <ele>1949.21</ele>
        <time>2021-01-26T10:28:49Z</time>
      </trkpt>
      <trkpt lat="44.27694" lon="7.25394">
        <ele>1950.17</ele>
        <time>2021-01-26T10:29:00Z</time>
      </trkpt>
      <trkpt lat="44.27696" lon="7.25406">
        <ele>1950.65</ele>
        <time>2021-01-26T10:29:11Z</time>
      </trkpt>
      <trkpt lat="44.27696" lon="7.25415">
        <ele>1952.09</ele>
        <time>2021-01-26T10:29:23Z</time>
      </trkpt>
      <trkpt lat="44.27696" lon="7.25417">
        <ele>1955.46</ele>
        <time>2021-01-26T10:29:37Z</time>
      </trkpt>
      <trkpt lat="44.27693" lon="7.25407">
        <ele>1955.46</ele>
        <time>2021-01-26T10:29:49Z</time>
      </trkpt>
      <trkpt lat="44.2769" lon="7.25401">
        <ele>1957.86</ele>
        <time>2021-01-26T10:30:04Z</time>
      </trkpt>
      <trkpt lat="44.27688" lon="7.25404">
        <ele>1959.3</ele>
        <time>2021-01-26T10:30:18Z</time>
      </trkpt>
      <trkpt lat="44.2769" lon="7.25403">
        <ele>1957.86</ele>
        <time>2021-01-26T10:30:37Z</time>
      </trkpt>
      <trkpt lat="44.27689" lon="7.2541">
        <ele>1958.82</ele>
        <time>2021-01-26T10:30:53Z</time>
      </trkpt>
      <trkpt lat="44.27688" lon="7.25419">
        <ele>1957.38</ele>
        <time>2021-01-26T10:31:04Z</time>
      </trkpt>
      <trkpt lat="44.27687" lon="7.25427">
        <ele>1959.3</ele>
        <time>2021-01-26T10:31:18Z</time>
      </trkpt>
      <trkpt lat="44.27688" lon="7.25434">
        <ele>1960.75</ele>
        <time>2021-01-26T10:31:30Z</time>
      </trkpt>
      <trkpt lat="44.27686" lon="7.25444">
        <ele>1961.71</ele>
        <time>2021-01-26T10:31:47Z</time>
      </trkpt>
      <trkpt lat="44.27684" lon="7.25438">
        <ele>1963.15</ele>
        <time>2021-01-26T10:31:58Z</time>
      </trkpt>
      <trkpt lat="44.27681" lon="7.25432">
        <ele>1966.03</ele>
        <time>2021-01-26T10:32:11Z</time>
      </trkpt>
      <trkpt lat="44.27677" lon="7.25427">
        <ele>1967.96</ele>
        <time>2021-01-26T10:32:23Z</time>
      </trkpt>
      <trkpt lat="44.27674" lon="7.25421">
        <ele>1969.88</ele>
        <time>2021-01-26T10:32:38Z</time>
      </trkpt>
      <trkpt lat="44.27674" lon="7.25425">
        <ele>1971.32</ele>
        <time>2021-01-26T10:32:52Z</time>
      </trkpt>
      <trkpt lat="44.27673" lon="7.25434">
        <ele>1972.76</ele>
        <time>2021-01-26T10:33:08Z</time>
      </trkpt>
      <trkpt lat="44.2767" lon="7.25442">
        <ele>1976.13</ele>
        <time>2021-01-26T10:33:24Z</time>
      </trkpt>
      <trkpt lat="44.2767" lon="7.25442">
        <ele>1973.72</ele>
        <time>2021-01-26T10:33:42Z</time>
      </trkpt>
      <trkpt lat="44.2767" lon="7.25441">
        <ele>1975.17</ele>
        <time>2021-01-26T10:34:12Z</time>
      </trkpt>
      <trkpt lat="44.2767" lon="7.25443">
        <ele>1977.09</ele>
        <time>2021-01-26T10:34:35Z</time>
      </trkpt>
      <trkpt lat="44.27667" lon="7.25443">
        <ele>1977.09</ele>
        <time>2021-01-26T10:34:48Z</time>
      </trkpt>
      <trkpt lat="44.27661" lon="7.2545">
        <ele>1977.09</ele>
        <time>2021-01-26T10:35:03Z</time>
      </trkpt>
      <trkpt lat="44.27657" lon="7.25455">
        <ele>1980.93</ele>
        <time>2021-01-26T10:35:16Z</time>
      </trkpt>
      <trkpt lat="44.27657" lon="7.25455">
        <ele>1985.26</ele>
        <time>2021-01-26T10:35:38Z</time>
      </trkpt>
      <trkpt lat="44.27656" lon="7.25455">
        <ele>1987.18</ele>
        <time>2021-01-26T10:35:58Z</time>
      </trkpt>
      <trkpt lat="44.27656" lon="7.25453">
        <ele>1988.14</ele>
        <time>2021-01-26T10:36:23Z</time>
      </trkpt>
      <trkpt lat="44.27657" lon="7.25452">
        <ele>1985.74</ele>
        <time>2021-01-26T10:36:38Z</time>
      </trkpt>
      <trkpt lat="44.27655" lon="7.25441">
        <ele>1985.74</ele>
        <time>2021-01-26T10:36:53Z</time>
      </trkpt>
      <trkpt lat="44.27654" lon="7.25437">
        <ele>1987.18</ele>
        <time>2021-01-26T10:37:06Z</time>
      </trkpt>
      <trkpt lat="44.27651" lon="7.25437">
        <ele>1989.59</ele>
        <time>2021-01-26T10:37:25Z</time>
      </trkpt>
      <trkpt lat="44.27644" lon="7.25445">
        <ele>1991.99</ele>
        <time>2021-01-26T10:37:42Z</time>
      </trkpt>
      <trkpt lat="44.27637" lon="7.25453">
        <ele>1995.83</ele>
        <time>2021-01-26T10:37:57Z</time>
      </trkpt>
      <trkpt lat="44.27634" lon="7.25454">
        <ele>1997.28</ele>
        <time>2021-01-26T10:38:15Z</time>
      </trkpt>
      <trkpt lat="44.27634" lon="7.25456">
        <ele>1997.28</ele>
        <time>2021-01-26T10:38:32Z</time>
      </trkpt>
      <trkpt lat="44.2763" lon="7.2546">
        <ele>1998.24</ele>
        <time>2021-01-26T10:38:55Z</time>
      </trkpt>
      <trkpt lat="44.27625" lon="7.25463">
        <ele>2000.64</ele>
        <time>2021-01-26T10:39:10Z</time>
      </trkpt>
      <trkpt lat="44.27622" lon="7.25464">
        <ele>2001.6</ele>
        <time>2021-01-26T10:39:30Z</time>
      </trkpt>
      <trkpt lat="44.27624" lon="7.25462">
        <ele>2000.64</ele>
        <time>2021-01-26T10:39:45Z</time>
      </trkpt>
      <trkpt lat="44.27625" lon="7.25457">
        <ele>2002.56</ele>
        <time>2021-01-26T10:40:10Z</time>
      </trkpt>
      <trkpt lat="44.27624" lon="7.25453">
        <ele>2002.56</ele>
        <time>2021-01-26T10:40:25Z</time>
      </trkpt>
      <trkpt lat="44.27626" lon="7.2545">
        <ele>2004.97</ele>
        <time>2021-01-26T10:40:40Z</time>
      </trkpt>
      <trkpt lat="44.27627" lon="7.25444">
        <ele>2005.45</ele>
        <time>2021-01-26T10:40:57Z</time>
      </trkpt>
      <trkpt lat="44.27623" lon="7.25446">
        <ele>2007.37</ele>
        <time>2021-01-26T10:41:11Z</time>
      </trkpt>
      <trkpt lat="44.27621" lon="7.25451">
        <ele>2008.81</ele>
        <time>2021-01-26T10:41:27Z</time>
      </trkpt>
      <trkpt lat="44.2762" lon="7.25453">
        <ele>2008.81</ele>
        <time>2021-01-26T10:41:31Z</time>
      </trkpt>
      <trkpt lat="44.27612" lon="7.25463">
        <ele>2009.29</ele>
        <time>2021-01-26T10:41:45Z</time>
      </trkpt>
      <trkpt lat="44.27611" lon="7.25466">
        <ele>2009.29</ele>
        <time>2021-01-26T10:42:02Z</time>
      </trkpt>
      <trkpt lat="44.2761" lon="7.25462">
        <ele>2010.73</ele>
        <time>2021-01-26T10:42:14Z</time>
      </trkpt>
      <trkpt lat="44.27611" lon="7.25454">
        <ele>2011.22</ele>
        <time>2021-01-26T10:42:26Z</time>
      </trkpt>
      <trkpt lat="44.2761" lon="7.25451">
        <ele>2012.18</ele>
        <time>2021-01-26T10:42:38Z</time>
      </trkpt>
      <trkpt lat="44.27605" lon="7.25456">
        <ele>2014.1</ele>
        <time>2021-01-26T10:42:52Z</time>
      </trkpt>
      <trkpt lat="44.276" lon="7.2546">
        <ele>2015.54</ele>
        <time>2021-01-26T10:43:04Z</time>
      </trkpt>
      <trkpt lat="44.27599" lon="7.2546">
        <ele>2016.98</ele>
        <time>2021-01-26T10:43:21Z</time>
      </trkpt>
      <trkpt lat="44.276" lon="7.25457">
        <ele>2017.94</ele>
        <time>2021-01-26T10:43:34Z</time>
      </trkpt>
      <trkpt lat="44.27601" lon="7.25457">
        <ele>2019.87</ele>
        <time>2021-01-26T10:43:54Z</time>
      </trkpt>
      <trkpt lat="44.27603" lon="7.25452">
        <ele>2020.35</ele>
        <time>2021-01-26T10:44:13Z</time>
      </trkpt>
      <trkpt lat="44.27603" lon="7.25454">
        <ele>2019.39</ele>
        <time>2021-01-26T10:44:32Z</time>
      </trkpt>
      <trkpt lat="44.27603" lon="7.2545">
        <ele>2017.94</ele>
        <time>2021-01-26T10:44:44Z</time>
      </trkpt>
      <trkpt lat="44.27602" lon="7.25448">
        <ele>2018.91</ele>
        <time>2021-01-26T10:45:21Z</time>
      </trkpt>
      <trkpt lat="44.27602" lon="7.25448">
        <ele>2020.83</ele>
        <time>2021-01-26T10:45:44Z</time>
      </trkpt>
      <trkpt lat="44.27602" lon="7.25444">
        <ele>2022.27</ele>
        <time>2021-01-26T10:45:58Z</time>
      </trkpt>
      <trkpt lat="44.27599" lon="7.25449">
        <ele>2024.19</ele>
        <time>2021-01-26T10:46:18Z</time>
      </trkpt>
      <trkpt lat="44.27596" lon="7.25451">
        <ele>2024.67</ele>
        <time>2021-01-26T10:46:32Z</time>
      </trkpt>
      <trkpt lat="44.27594" lon="7.25449">
        <ele>2026.6</ele>
        <time>2021-01-26T10:46:48Z</time>
      </trkpt>
      <trkpt lat="44.27593" lon="7.25451">
        <ele>2027.08</ele>
        <time>2021-01-26T10:47:04Z</time>
      </trkpt>
      <trkpt lat="44.27588" lon="7.25454">
        <ele>2027.08</ele>
        <time>2021-01-26T10:47:18Z</time>
      </trkpt>
      <trkpt lat="44.27585" lon="7.2545">
        <ele>2028.52</ele>
        <time>2021-01-26T10:47:30Z</time>
      </trkpt>
      <trkpt lat="44.27583" lon="7.25448">
        <ele>2027.56</ele>
        <time>2021-01-26T10:47:43Z</time>
      </trkpt>
      <trkpt lat="44.27582" lon="7.25448">
        <ele>2029.48</ele>
        <time>2021-01-26T10:48:00Z</time>
      </trkpt>
      <trkpt lat="44.2758" lon="7.25449">
        <ele>2030.92</ele>
        <time>2021-01-26T10:48:27Z</time>
      </trkpt>
      <trkpt lat="44.2758" lon="7.25449">
        <ele>2031.88</ele>
        <time>2021-01-26T10:48:49Z</time>
      </trkpt>
      <trkpt lat="44.27577" lon="7.2545">
        <ele>2031.88</ele>
        <time>2021-01-26T10:49:07Z</time>
      </trkpt>
      <trkpt lat="44.27577" lon="7.2545">
        <ele>2033.33</ele>
        <time>2021-01-26T10:49:29Z</time>
      </trkpt>
      <trkpt lat="44.27568" lon="7.25457">
        <ele>2031.88</ele>
        <time>2021-01-26T10:49:43Z</time>
      </trkpt>
      <trkpt lat="44.27565" lon="7.25461">
        <ele>2032.36</ele>
        <time>2021-01-26T10:49:56Z</time>
      </trkpt>
      <trkpt lat="44.27559" lon="7.25471">
        <ele>2032.36</ele>
        <time>2021-01-26T10:50:10Z</time>
      </trkpt>
      <trkpt lat="44.27551" lon="7.2548">
        <ele>2031.4</ele>
        <time>2021-01-26T10:50:24Z</time>
      </trkpt>
      <trkpt lat="44.27544" lon="7.2549">
        <ele>2032.36</ele>
        <time>2021-01-26T10:50:37Z</time>
      </trkpt>
      <trkpt lat="44.27542" lon="7.25498">
        <ele>2033.81</ele>
        <time>2021-01-26T10:50:51Z</time>
      </trkpt>
      <trkpt lat="44.27539" lon="7.25507">
        <ele>2034.77</ele>
        <time>2021-01-26T10:51:04Z</time>
      </trkpt>
      <trkpt lat="44.27535" lon="7.25512">
        <ele>2036.21</ele>
        <time>2021-01-26T10:51:18Z</time>
      </trkpt>
      <trkpt lat="44.27531" lon="7.25517">
        <ele>2036.69</ele>
        <time>2021-01-26T10:51:31Z</time>
      </trkpt>
      <trkpt lat="44.27525" lon="7.25519">
        <ele>2040.05</ele>
        <time>2021-01-26T10:51:49Z</time>
      </trkpt>
      <trkpt lat="44.2752" lon="7.25521">
        <ele>2041.02</ele>
        <time>2021-01-26T10:52:04Z</time>
      </trkpt>
      <trkpt lat="44.27516" lon="7.25521">
        <ele>2041.98</ele>
        <time>2021-01-26T10:52:26Z</time>
      </trkpt>
      <trkpt lat="44.27519" lon="7.25525">
        <ele>2041.5</ele>
        <time>2021-01-26T10:52:38Z</time>
      </trkpt>
      <trkpt lat="44.27521" lon="7.25534">
        <ele>2042.94</ele>
        <time>2021-01-26T10:52:53Z</time>
      </trkpt>
      <trkpt lat="44.27519" lon="7.25539">
        <ele>2042.94</ele>
        <time>2021-01-26T10:53:07Z</time>
      </trkpt>
      <trkpt lat="44.27516" lon="7.25529">
        <ele>2042.46</ele>
        <time>2021-01-26T10:53:18Z</time>
      </trkpt>
      <trkpt lat="44.27513" lon="7.25528">
        <ele>2044.38</ele>
        <time>2021-01-26T10:53:32Z</time>
      </trkpt>
      <trkpt lat="44.27513" lon="7.25538">
        <ele>2046.3</ele>
        <time>2021-01-26T10:53:45Z</time>
      </trkpt>
      <trkpt lat="44.27512" lon="7.25544">
        <ele>2048.23</ele>
        <time>2021-01-26T10:53:59Z</time>
      </trkpt>
      <trkpt lat="44.27509" lon="7.25545">
        <ele>2051.59</ele>
        <time>2021-01-26T10:54:25Z</time>
      </trkpt>
      <trkpt lat="44.27508" lon="7.25543">
        <ele>2050.15</ele>
        <time>2021-01-26T10:54:38Z</time>
      </trkpt>
      <trkpt lat="44.27506" lon="7.25542">
        <ele>2050.15</ele>
        <time>2021-01-26T10:54:52Z</time>
      </trkpt>
      <trkpt lat="44.27505" lon="7.25542">
        <ele>2052.55</ele>
        <time>2021-01-26T10:55:08Z</time>
      </trkpt>
      <trkpt lat="44.27503" lon="7.2555">
        <ele>2054.47</ele>
        <time>2021-01-26T10:55:23Z</time>
      </trkpt>
      <trkpt lat="44.275" lon="7.25556">
        <ele>2056.4</ele>
        <time>2021-01-26T10:55:38Z</time>
      </trkpt>
      <trkpt lat="44.27498" lon="7.2555">
        <ele>2056.88</ele>
        <time>2021-01-26T10:55:51Z</time>
      </trkpt>
      <trkpt lat="44.27493" lon="7.25545">
        <ele>2059.28</ele>
        <time>2021-01-26T10:56:06Z</time>
      </trkpt>
      <trkpt lat="44.27494" lon="7.2555">
        <ele>2058.8</ele>
        <time>2021-01-26T10:56:18Z</time>
      </trkpt>
      <trkpt lat="44.27494" lon="7.25556">
        <ele>2060.72</ele>
        <time>2021-01-26T10:56:36Z</time>
      </trkpt>
      <trkpt lat="44.27492" lon="7.25561">
        <ele>2062.65</ele>
        <time>2021-01-26T10:56:51Z</time>
      </trkpt>
      <trkpt lat="44.27491" lon="7.25565">
        <ele>2063.61</ele>
        <time>2021-01-26T10:57:05Z</time>
      </trkpt>
      <trkpt lat="44.27488" lon="7.25571">
        <ele>2066.01</ele>
        <time>2021-01-26T10:57:20Z</time>
      </trkpt>
      <trkpt lat="44.27487" lon="7.25579">
        <ele>2067.93</ele>
        <time>2021-01-26T10:57:34Z</time>
      </trkpt>
      <trkpt lat="44.27488" lon="7.25584">
        <ele>2067.93</ele>
        <time>2021-01-26T10:57:47Z</time>
      </trkpt>
      <trkpt lat="44.27488" lon="7.25587">
        <ele>2068.89</ele>
        <time>2021-01-26T10:58:04Z</time>
      </trkpt>
      <trkpt lat="44.27488" lon="7.2559">
        <ele>2070.82</ele>
        <time>2021-01-26T10:58:23Z</time>
      </trkpt>
      <trkpt lat="44.27485" lon="7.25591">
        <ele>2071.3</ele>
        <time>2021-01-26T10:58:38Z</time>
      </trkpt>
      <trkpt lat="44.27483" lon="7.25585">
        <ele>2070.82</ele>
        <time>2021-01-26T10:58:50Z</time>
      </trkpt>
      <trkpt lat="44.27482" lon="7.25582">
        <ele>2070.82</ele>
        <time>2021-01-26T10:59:06Z</time>
      </trkpt>
      <trkpt lat="44.2748" lon="7.25582">
        <ele>2070.34</ele>
        <time>2021-01-26T10:59:19Z</time>
      </trkpt>
      <trkpt lat="44.27478" lon="7.25585">
        <ele>2070.82</ele>
        <time>2021-01-26T10:59:33Z</time>
      </trkpt>
      <trkpt lat="44.27473" lon="7.25576">
        <ele>2074.18</ele>
        <time>2021-01-26T10:59:46Z</time>
      </trkpt>
      <trkpt lat="44.27473" lon="7.25578">
        <ele>2074.18</ele>
        <time>2021-01-26T10:59:57Z</time>
      </trkpt>
      <trkpt lat="44.27471" lon="7.25587">
        <ele>2076.59</ele>
        <time>2021-01-26T11:00:11Z</time>
      </trkpt>
      <trkpt lat="44.27469" lon="7.25596">
        <ele>2079.47</ele>
        <time>2021-01-26T11:00:26Z</time>
      </trkpt>
      <trkpt lat="44.27465" lon="7.25605">
        <ele>2079.47</ele>
        <time>2021-01-26T11:00:47Z</time>
      </trkpt>
      <trkpt lat="44.27465" lon="7.25609">
        <ele>2080.43</ele>
        <time>2021-01-26T11:01:02Z</time>
      </trkpt>
      <trkpt lat="44.27463" lon="7.25604">
        <ele>2080.91</ele>
        <time>2021-01-26T11:01:22Z</time>
      </trkpt>
      <trkpt lat="44.27459" lon="7.25599">
        <ele>2082.35</ele>
        <time>2021-01-26T11:01:34Z</time>
      </trkpt>
      <trkpt lat="44.27456" lon="7.25601">
        <ele>2083.79</ele>
        <time>2021-01-26T11:01:49Z</time>
      </trkpt>
      <trkpt lat="44.2745" lon="7.25611">
        <ele>2087.16</ele>
        <time>2021-01-26T11:02:07Z</time>
      </trkpt>
      <trkpt lat="44.27444" lon="7.25615">
        <ele>2090.04</ele>
        <time>2021-01-26T11:02:20Z</time>
      </trkpt>
      <trkpt lat="44.27441" lon="7.25619">
        <ele>2091.97</ele>
        <time>2021-01-26T11:02:37Z</time>
      </trkpt>
      <trkpt lat="44.27445" lon="7.25624">
        <ele>2090.04</ele>
        <time>2021-01-26T11:02:48Z</time>
      </trkpt>
      <trkpt lat="44.27446" lon="7.25634">
        <ele>2091.49</ele>
        <time>2021-01-26T11:03:02Z</time>
      </trkpt>
      <trkpt lat="44.27442" lon="7.25633">
        <ele>2094.37</ele>
        <time>2021-01-26T11:03:16Z</time>
      </trkpt>
      <trkpt lat="44.27435" lon="7.25638">
        <ele>2099.66</ele>
        <time>2021-01-26T11:03:34Z</time>
      </trkpt>
      <trkpt lat="44.27436" lon="7.25646">
        <ele>2099.18</ele>
        <time>2021-01-26T11:03:44Z</time>
      </trkpt>
      <trkpt lat="44.27436" lon="7.25653">
        <ele>2100.14</ele>
        <time>2021-01-26T11:03:55Z</time>
      </trkpt>
      <trkpt lat="44.27432" lon="7.25657">
        <ele>2101.58</ele>
        <time>2021-01-26T11:04:06Z</time>
      </trkpt>
      <trkpt lat="44.27428" lon="7.25659">
        <ele>2102.06</ele>
        <time>2021-01-26T11:04:18Z</time>
      </trkpt>
      <trkpt lat="44.27425" lon="7.25662">
        <ele>2102.06</ele>
        <time>2021-01-26T11:04:42Z</time>
      </trkpt>
      <trkpt lat="44.27424" lon="7.25664">
        <ele>2103.5</ele>
        <time>2021-01-26T11:04:56Z</time>
      </trkpt>
      <trkpt lat="44.27426" lon="7.2567">
        <ele>2106.39</ele>
        <time>2021-01-26T11:05:10Z</time>
      </trkpt>
      <trkpt lat="44.27428" lon="7.25673">
        <ele>2108.79</ele>
        <time>2021-01-26T11:05:23Z</time>
      </trkpt>
      <trkpt lat="44.27429" lon="7.25675">
        <ele>2110.23</ele>
        <time>2021-01-26T11:05:38Z</time>
      </trkpt>
      <trkpt lat="44.27431" lon="7.2568">
        <ele>2110.71</ele>
        <time>2021-01-26T11:05:52Z</time>
      </trkpt>
      <trkpt lat="44.27432" lon="7.25683">
        <ele>2111.19</ele>
        <time>2021-01-26T11:06:06Z</time>
      </trkpt>
      <trkpt lat="44.27432" lon="7.25689">
        <ele>2112.63</ele>
        <time>2021-01-26T11:06:18Z</time>
      </trkpt>
      <trkpt lat="44.27431" lon="7.25692">
        <ele>2113.12</ele>
        <time>2021-01-26T11:06:31Z</time>
      </trkpt>
      <trkpt lat="44.27431" lon="7.25695">
        <ele>2113.12</ele>
        <time>2021-01-26T11:06:55Z</time>
      </trkpt>
      <trkpt lat="44.2743" lon="7.25696">
        <ele>2112.63</ele>
        <time>2021-01-26T11:07:13Z</time>
      </trkpt>
      <trkpt lat="44.2743" lon="7.25696">
        <ele>2114.08</ele>
        <time>2021-01-26T11:07:37Z</time>
      </trkpt>
      <trkpt lat="44.2743" lon="7.25695">
        <ele>2114.56</ele>
        <time>2021-01-26T11:08:03Z</time>
      </trkpt>
      <trkpt lat="44.27428" lon="7.25694">
        <ele>2116</ele>
        <time>2021-01-26T11:08:15Z</time>
      </trkpt>
      <trkpt lat="44.27428" lon="7.25689">
        <ele>2117.92</ele>
        <time>2021-01-26T11:08:32Z</time>
      </trkpt>
      <trkpt lat="44.27426" lon="7.25687">
        <ele>2119.36</ele>
        <time>2021-01-26T11:08:45Z</time>
      </trkpt>
      <trkpt lat="44.27425" lon="7.2569">
        <ele>2118.88</ele>
        <time>2021-01-26T11:09:00Z</time>
      </trkpt>
      <trkpt lat="44.27422" lon="7.25697">
        <ele>2119.84</ele>
        <time>2021-01-26T11:09:13Z</time>
      </trkpt>
      <trkpt lat="44.27419" lon="7.25701">
        <ele>2121.29</ele>
        <time>2021-01-26T11:09:28Z</time>
      </trkpt>
      <trkpt lat="44.27413" lon="7.25708">
        <ele>2122.25</ele>
        <time>2021-01-26T11:09:41Z</time>
      </trkpt>
      <trkpt lat="44.2741" lon="7.25708">
        <ele>2123.21</ele>
        <time>2021-01-26T11:09:59Z</time>
      </trkpt>
      <trkpt lat="44.27405" lon="7.25713">
        <ele>2124.17</ele>
        <time>2021-01-26T11:10:11Z</time>
      </trkpt>
      <trkpt lat="44.27399" lon="7.25712">
        <ele>2128.02</ele>
        <time>2021-01-26T11:10:28Z</time>
      </trkpt>
      <trkpt lat="44.27397" lon="7.25708">
        <ele>2129.94</ele>
        <time>2021-01-26T11:10:43Z</time>
      </trkpt>
      <trkpt lat="44.27395" lon="7.25703">
        <ele>2131.38</ele>
        <time>2021-01-26T11:11:00Z</time>
      </trkpt>
      <trkpt lat="44.27396" lon="7.25698">
        <ele>2131.38</ele>
        <time>2021-01-26T11:11:12Z</time>
      </trkpt>
      <trkpt lat="44.27397" lon="7.25699">
        <ele>2131.86</ele>
        <time>2021-01-26T11:11:34Z</time>
      </trkpt>
      <trkpt lat="44.27399" lon="7.257">
        <ele>2132.34</ele>
        <time>2021-01-26T11:11:49Z</time>
      </trkpt>
      <trkpt lat="44.274" lon="7.25701">
        <ele>2131.38</ele>
        <time>2021-01-26T11:12:11Z</time>
      </trkpt>
      <trkpt lat="44.27399" lon="7.25701">
        <ele>2130.9</ele>
        <time>2021-01-26T11:12:25Z</time>
      </trkpt>
      <trkpt lat="44.27399" lon="7.25701">
        <ele>2131.38</ele>
        <time>2021-01-26T11:12:44Z</time>
      </trkpt>
      <trkpt lat="44.274" lon="7.25703">
        <ele>2130.9</ele>
        <time>2021-01-26T11:12:58Z</time>
      </trkpt>
      <trkpt lat="44.27401" lon="7.25704">
        <ele>2129.94</ele>
        <time>2021-01-26T11:13:09Z</time>
      </trkpt>
      <trkpt lat="44.27401" lon="7.25704">
        <ele>2129.94</ele>
        <time>2021-01-26T11:13:23Z</time>
      </trkpt>
      <trkpt lat="44.27401" lon="7.25705">
        <ele>2129.46</ele>
        <time>2021-01-26T11:13:39Z</time>
      </trkpt>
      <trkpt lat="44.27401" lon="7.25703">
        <ele>2130.9</ele>
        <time>2021-01-26T11:13:55Z</time>
      </trkpt>
      <trkpt lat="44.27401" lon="7.25702">
        <ele>2131.38</ele>
        <time>2021-01-26T11:14:09Z</time>
      </trkpt>
      <trkpt lat="44.274" lon="7.25702">
        <ele>2128.98</ele>
        <time>2021-01-26T11:14:29Z</time>
      </trkpt>
      <trkpt lat="44.274" lon="7.25703">
        <ele>2129.46</ele>
        <time>2021-01-26T11:14:53Z</time>
      </trkpt>
      <trkpt lat="44.27401" lon="7.25702">
        <ele>2128.98</ele>
        <time>2021-01-26T11:15:11Z</time>
      </trkpt>
      <trkpt lat="44.27401" lon="7.25701">
        <ele>2128.5</ele>
        <time>2021-01-26T11:15:33Z</time>
      </trkpt>
      <trkpt lat="44.27401" lon="7.25701">
        <ele>2129.46</ele>
        <time>2021-01-26T11:15:49Z</time>
      </trkpt>
      <trkpt lat="44.27401" lon="7.25701">
        <ele>2128.98</ele>
        <time>2021-01-26T11:16:10Z</time>
      </trkpt>
      <trkpt lat="44.27403" lon="7.257">
        <ele>2128.02</ele>
        <time>2021-01-26T11:16:30Z</time>
      </trkpt>
      <trkpt lat="44.27403" lon="7.25698">
        <ele>2130.9</ele>
        <time>2021-01-26T11:17:09Z</time>
      </trkpt>
      <trkpt lat="44.27404" lon="7.25702">
        <ele>2130.9</ele>
        <time>2021-01-26T11:17:34Z</time>
      </trkpt>
      <trkpt lat="44.27405" lon="7.257">
        <ele>2132.34</ele>
        <time>2021-01-26T11:18:04Z</time>
      </trkpt>
      <trkpt lat="44.27404" lon="7.25698">
        <ele>2134.26</ele>
        <time>2021-01-26T11:18:48Z</time>
      </trkpt>
      <trkpt lat="44.27402" lon="7.257">
        <ele>2132.34</ele>
        <time>2021-01-26T11:19:25Z</time>
      </trkpt>
      <trkpt lat="44.27402" lon="7.257">
        <ele>2127.53</ele>
        <time>2021-01-26T11:20:01Z</time>
      </trkpt>
      <trkpt lat="44.27402" lon="7.25702">
        <ele>2128.02</ele>
        <time>2021-01-26T11:20:34Z</time>
      </trkpt>
      <trkpt lat="44.27401" lon="7.25701">
        <ele>2127.05</ele>
        <time>2021-01-26T11:21:13Z</time>
      </trkpt>
      <trkpt lat="44.274" lon="7.257">
        <ele>2127.05</ele>
        <time>2021-01-26T11:21:43Z</time>
      </trkpt>
      <trkpt lat="44.274" lon="7.25701">
        <ele>2126.57</ele>
        <time>2021-01-26T11:22:18Z</time>
      </trkpt>
      <trkpt lat="44.27402" lon="7.25701">
        <ele>2127.05</ele>
        <time>2021-01-26T11:22:49Z</time>
      </trkpt>
      <trkpt lat="44.27402" lon="7.257">
        <ele>2127.05</ele>
        <time>2021-01-26T11:23:08Z</time>
      </trkpt>
      <trkpt lat="44.27402" lon="7.257">
        <ele>2128.98</ele>
        <time>2021-01-26T11:23:34Z</time>
      </trkpt>
      <trkpt lat="44.27403" lon="7.257">
        <ele>2129.46</ele>
        <time>2021-01-26T11:23:57Z</time>
      </trkpt>
      <trkpt lat="44.27402" lon="7.25699">
        <ele>2129.94</ele>
        <time>2021-01-26T11:24:20Z</time>
      </trkpt>
      <trkpt lat="44.27404" lon="7.257">
        <ele>2127.53</ele>
        <time>2021-01-26T11:24:49Z</time>
      </trkpt>
      <trkpt lat="44.27402" lon="7.25701">
        <ele>2126.57</ele>
        <time>2021-01-26T11:25:18Z</time>
      </trkpt>
      <trkpt lat="44.27404" lon="7.25699">
        <ele>2128.98</ele>
        <time>2021-01-26T11:26:02Z</time>
      </trkpt>
      <trkpt lat="44.27402" lon="7.25701">
        <ele>2126.09</ele>
        <time>2021-01-26T11:26:30Z</time>
      </trkpt>
      <trkpt lat="44.27403" lon="7.257">
        <ele>2125.61</ele>
        <time>2021-01-26T11:27:06Z</time>
      </trkpt>
      <trkpt lat="44.27404" lon="7.25701">
        <ele>2127.53</ele>
        <time>2021-01-26T11:27:35Z</time>
      </trkpt>
      <trkpt lat="44.27404" lon="7.25701">
        <ele>2127.53</ele>
        <time>2021-01-26T11:28:08Z</time>
      </trkpt>
      <trkpt lat="44.27403" lon="7.25701">
        <ele>2127.53</ele>
        <time>2021-01-26T11:28:45Z</time>
      </trkpt>
      <trkpt lat="44.27402" lon="7.25701">
        <ele>2128.02</ele>
        <time>2021-01-26T11:29:27Z</time>
      </trkpt>
      <trkpt lat="44.27402" lon="7.25697">
        <ele>2128.02</ele>
        <time>2021-01-26T11:29:52Z</time>
      </trkpt>
      <trkpt lat="44.27402" lon="7.25698">
        <ele>2124.65</ele>
        <time>2021-01-26T11:30:27Z</time>
      </trkpt>
      <trkpt lat="44.27401" lon="7.25697">
        <ele>2123.21</ele>
        <time>2021-01-26T11:30:58Z</time>
      </trkpt>
      <trkpt lat="44.27402" lon="7.25697">
        <ele>2125.13</ele>
        <time>2021-01-26T11:31:31Z</time>
      </trkpt>
      <trkpt lat="44.27402" lon="7.25699">
        <ele>2123.21</ele>
        <time>2021-01-26T11:32:00Z</time>
      </trkpt>
      <trkpt lat="44.27403" lon="7.257">
        <ele>2124.65</ele>
        <time>2021-01-26T11:32:34Z</time>
      </trkpt>
      <trkpt lat="44.27403" lon="7.257">
        <ele>2124.17</ele>
        <time>2021-01-26T11:33:06Z</time>
      </trkpt>
      <trkpt lat="44.27403" lon="7.25702">
        <ele>2125.13</ele>
        <time>2021-01-26T11:33:42Z</time>
      </trkpt>
      <trkpt lat="44.27402" lon="7.25702">
        <ele>2126.57</ele>
        <time>2021-01-26T11:34:19Z</time>
      </trkpt>
      <trkpt lat="44.27403" lon="7.25701">
        <ele>2126.09</ele>
        <time>2021-01-26T11:34:40Z</time>
      </trkpt>
      <trkpt lat="44.27401" lon="7.25701">
        <ele>2126.57</ele>
        <time>2021-01-26T11:34:51Z</time>
      </trkpt>
      <trkpt lat="44.27404" lon="7.25702">
        <ele>2127.53</ele>
        <time>2021-01-26T11:35:06Z</time>
      </trkpt>
      <trkpt lat="44.27403" lon="7.25702">
        <ele>2129.46</ele>
        <time>2021-01-26T11:35:36Z</time>
      </trkpt>
      <trkpt lat="44.27402" lon="7.25703">
        <ele>2129.46</ele>
        <time>2021-01-26T11:35:47Z</time>
      </trkpt>
      <trkpt lat="44.27402" lon="7.25703">
        <ele>2129.94</ele>
        <time>2021-01-26T11:36:02Z</time>
      </trkpt>
      <trkpt lat="44.27403" lon="7.25703">
        <ele>2131.38</ele>
        <time>2021-01-26T11:36:24Z</time>
      </trkpt>
      <trkpt lat="44.27401" lon="7.25699">
        <ele>2129.94</ele>
        <time>2021-01-26T11:36:48Z</time>
      </trkpt>
      <trkpt lat="44.27401" lon="7.25699">
        <ele>2130.42</ele>
        <time>2021-01-26T11:37:09Z</time>
      </trkpt>
      <trkpt lat="44.274" lon="7.25699">
        <ele>2130.9</ele>
        <time>2021-01-26T11:37:39Z</time>
      </trkpt>
      <trkpt lat="44.274" lon="7.25698">
        <ele>2128.98</ele>
        <time>2021-01-26T11:38:04Z</time>
      </trkpt>
      <trkpt lat="44.27401" lon="7.25699">
        <ele>2128.5</ele>
        <time>2021-01-26T11:38:28Z</time>
      </trkpt>
      <trkpt lat="44.274" lon="7.25698">
        <ele>2130.42</ele>
        <time>2021-01-26T11:38:48Z</time>
      </trkpt>
      <trkpt lat="44.27399" lon="7.25698">
        <ele>2132.34</ele>
        <time>2021-01-26T11:39:16Z</time>
      </trkpt>
      <trkpt lat="44.27396" lon="7.25701">
        <ele>2132.82</ele>
        <time>2021-01-26T11:39:41Z</time>
      </trkpt>
      <trkpt lat="44.27399" lon="7.25698">
        <ele>2130.42</ele>
        <time>2021-01-26T11:40:02Z</time>
      </trkpt>
      <trkpt lat="44.274" lon="7.25701">
        <ele>2131.38</ele>
        <time>2021-01-26T11:40:23Z</time>
      </trkpt>
      <trkpt lat="44.27401" lon="7.25705">
        <ele>2131.86</ele>
        <time>2021-01-26T11:40:48Z</time>
      </trkpt>
      <trkpt lat="44.274" lon="7.25705">
        <ele>2131.86</ele>
        <time>2021-01-26T11:41:06Z</time>
      </trkpt>
      <trkpt lat="44.274" lon="7.25703">
        <ele>2131.38</ele>
        <time>2021-01-26T11:41:33Z</time>
      </trkpt>
      <trkpt lat="44.27401" lon="7.25701">
        <ele>2129.46</ele>
        <time>2021-01-26T11:41:54Z</time>
      </trkpt>
      <trkpt lat="44.274" lon="7.25701">
        <ele>2128.5</ele>
        <time>2021-01-26T11:42:14Z</time>
      </trkpt>
      <trkpt lat="44.27401" lon="7.25701">
        <ele>2129.46</ele>
        <time>2021-01-26T11:42:37Z</time>
      </trkpt>
      <trkpt lat="44.274" lon="7.257">
        <ele>2128.5</ele>
        <time>2021-01-26T11:42:56Z</time>
      </trkpt>
      <trkpt lat="44.274" lon="7.25701">
        <ele>2127.05</ele>
        <time>2021-01-26T11:43:22Z</time>
      </trkpt>
      <trkpt lat="44.27401" lon="7.25701">
        <ele>2127.05</ele>
        <time>2021-01-26T11:43:42Z</time>
      </trkpt>
      <trkpt lat="44.274" lon="7.25701">
        <ele>2128.98</ele>
        <time>2021-01-26T11:44:08Z</time>
      </trkpt>
      <trkpt lat="44.27401" lon="7.25701">
        <ele>2129.46</ele>
        <time>2021-01-26T11:44:28Z</time>
      </trkpt>
      <trkpt lat="44.27403" lon="7.25701">
        <ele>2128.5</ele>
        <time>2021-01-26T11:44:39Z</time>
      </trkpt>
      <trkpt lat="44.27402" lon="7.25701">
        <ele>2127.53</ele>
        <time>2021-01-26T11:44:50Z</time>
      </trkpt>
      <trkpt lat="44.27402" lon="7.25702">
        <ele>2127.53</ele>
        <time>2021-01-26T11:45:03Z</time>
      </trkpt>
      <trkpt lat="44.27403" lon="7.25702">
        <ele>2128.5</ele>
        <time>2021-01-26T11:45:19Z</time>
      </trkpt>
      <trkpt lat="44.27403" lon="7.25703">
        <ele>2128.98</ele>
        <time>2021-01-26T11:45:38Z</time>
      </trkpt>
      <trkpt lat="44.27404" lon="7.25702">
        <ele>2128.98</ele>
        <time>2021-01-26T11:45:58Z</time>
      </trkpt>
      <trkpt lat="44.27404" lon="7.25702">
        <ele>2128.98</ele>
        <time>2021-01-26T11:46:22Z</time>
      </trkpt>
      <trkpt lat="44.27403" lon="7.25702">
        <ele>2129.46</ele>
        <time>2021-01-26T11:46:34Z</time>
      </trkpt>
      <trkpt lat="44.27403" lon="7.25702">
        <ele>2129.46</ele>
        <time>2021-01-26T11:46:52Z</time>
      </trkpt>
      <trkpt lat="44.27403" lon="7.25702">
        <ele>2129.46</ele>
        <time>2021-01-26T11:47:18Z</time>
      </trkpt>
      <trkpt lat="44.27402" lon="7.25701">
        <ele>2128.5</ele>
        <time>2021-01-26T11:47:50Z</time>
      </trkpt>
      <trkpt lat="44.27402" lon="7.25701">
        <ele>2127.05</ele>
        <time>2021-01-26T11:48:15Z</time>
      </trkpt>
      <trkpt lat="44.27403" lon="7.25702">
        <ele>2128.5</ele>
        <time>2021-01-26T11:48:41Z</time>
      </trkpt>
      <trkpt lat="44.27403" lon="7.257">
        <ele>2129.46</ele>
        <time>2021-01-26T11:49:03Z</time>
      </trkpt>
      <trkpt lat="44.27403" lon="7.25702">
        <ele>2129.46</ele>
        <time>2021-01-26T11:49:22Z</time>
      </trkpt>
      <trkpt lat="44.27403" lon="7.25702">
        <ele>2128.98</ele>
        <time>2021-01-26T11:49:41Z</time>
      </trkpt>
      <trkpt lat="44.27403" lon="7.25702">
        <ele>2128.5</ele>
        <time>2021-01-26T11:49:52Z</time>
      </trkpt>
      <trkpt lat="44.27403" lon="7.25703">
        <ele>2128.98</ele>
        <time>2021-01-26T11:50:04Z</time>
      </trkpt>
      <trkpt lat="44.27404" lon="7.25704">
        <ele>2128.98</ele>
        <time>2021-01-26T11:50:10Z</time>
      </trkpt>
      <trkpt lat="44.27409" lon="7.25704">
        <ele>2125.61</ele>
        <time>2021-01-26T11:50:18Z</time>
      </trkpt>
      <trkpt lat="44.27423" lon="7.25696">
        <ele>2119.84</ele>
        <time>2021-01-26T11:50:26Z</time>
      </trkpt>
      <trkpt lat="44.27427" lon="7.25695">
        <ele>2117.44</ele>
        <time>2021-01-26T11:50:37Z</time>
      </trkpt>
      <trkpt lat="44.27429" lon="7.25697">
        <ele>2116</ele>
        <time>2021-01-26T11:50:45Z</time>
      </trkpt>
      <trkpt lat="44.27433" lon="7.25699">
        <ele>2114.56</ele>
        <time>2021-01-26T11:50:48Z</time>
      </trkpt>
      <trkpt lat="44.27438" lon="7.25693">
        <ele>2112.15</ele>
        <time>2021-01-26T11:51:00Z</time>
      </trkpt>
      <trkpt lat="44.27439" lon="7.25687">
        <ele>2109.27</ele>
        <time>2021-01-26T11:51:06Z</time>
      </trkpt>
      <trkpt lat="44.27436" lon="7.25671">
        <ele>2106.39</ele>
        <time>2021-01-26T11:51:13Z</time>
      </trkpt>
      <trkpt lat="44.27433" lon="7.25665">
        <ele>2104.46</ele>
        <time>2021-01-26T11:51:16Z</time>
      </trkpt>
      <trkpt lat="44.27438" lon="7.25663">
        <ele>2102.54</ele>
        <time>2021-01-26T11:51:24Z</time>
      </trkpt>
      <trkpt lat="44.27443" lon="7.25666">
        <ele>2101.1</ele>
        <time>2021-01-26T11:51:29Z</time>
      </trkpt>
      <trkpt lat="44.27446" lon="7.2566">
        <ele>2101.1</ele>
        <time>2021-01-26T11:51:34Z</time>
      </trkpt>
      <trkpt lat="44.27447" lon="7.25649">
        <ele>2097.73</ele>
        <time>2021-01-26T11:51:40Z</time>
      </trkpt>
      <trkpt lat="44.27449" lon="7.25633">
        <ele>2094.85</ele>
        <time>2021-01-26T11:51:48Z</time>
      </trkpt>
      <trkpt lat="44.27449" lon="7.25626">
        <ele>2092.45</ele>
        <time>2021-01-26T11:51:54Z</time>
      </trkpt>
      <trkpt lat="44.27462" lon="7.25638">
        <ele>2088.6</ele>
        <time>2021-01-26T11:52:03Z</time>
      </trkpt>
      <trkpt lat="44.27465" lon="7.25642">
        <ele>2087.64</ele>
        <time>2021-01-26T11:52:13Z</time>
      </trkpt>
      <trkpt lat="44.27467" lon="7.25644">
        <ele>2087.64</ele>
        <time>2021-01-26T11:52:18Z</time>
      </trkpt>
      <trkpt lat="44.27473" lon="7.2564">
        <ele>2083.79</ele>
        <time>2021-01-26T11:52:29Z</time>
      </trkpt>
      <trkpt lat="44.27475" lon="7.2564">
        <ele>2083.31</ele>
        <time>2021-01-26T11:52:31Z</time>
      </trkpt>
      <trkpt lat="44.27482" lon="7.25626">
        <ele>2077.07</ele>
        <time>2021-01-26T11:52:41Z</time>
      </trkpt>
      <trkpt lat="44.27484" lon="7.25627">
        <ele>2075.62</ele>
        <time>2021-01-26T11:52:49Z</time>
      </trkpt>
      <trkpt lat="44.27485" lon="7.25629">
        <ele>2075.62</ele>
        <time>2021-01-26T11:52:52Z</time>
      </trkpt>
      <trkpt lat="44.27488" lon="7.25623">
        <ele>2073.22</ele>
        <time>2021-01-26T11:53:01Z</time>
      </trkpt>
      <trkpt lat="44.27489" lon="7.25618">
        <ele>2071.3</ele>
        <time>2021-01-26T11:53:12Z</time>
      </trkpt>
      <trkpt lat="44.27489" lon="7.25618">
        <ele>2071.78</ele>
        <time>2021-01-26T11:53:15Z</time>
      </trkpt>
      <trkpt lat="44.27493" lon="7.25623">
        <ele>2069.86</ele>
        <time>2021-01-26T11:53:22Z</time>
      </trkpt>
      <trkpt lat="44.275" lon="7.25635">
        <ele>2067.93</ele>
        <time>2021-01-26T11:53:32Z</time>
      </trkpt>
      <trkpt lat="44.27501" lon="7.25641">
        <ele>2066.97</ele>
        <time>2021-01-26T11:53:37Z</time>
      </trkpt>
      <trkpt lat="44.27508" lon="7.25624">
        <ele>2062.17</ele>
        <time>2021-01-26T11:53:44Z</time>
      </trkpt>
      <trkpt lat="44.27509" lon="7.25621">
        <ele>2057.84</ele>
        <time>2021-01-26T11:53:53Z</time>
      </trkpt>
      <trkpt lat="44.2751" lon="7.25622">
        <ele>2057.84</ele>
        <time>2021-01-26T11:53:54Z</time>
      </trkpt>
      <trkpt lat="44.27512" lon="7.25631">
        <ele>2056.88</ele>
        <time>2021-01-26T11:54:03Z</time>
      </trkpt>
      <trkpt lat="44.27518" lon="7.25629">
        <ele>2054.96</ele>
        <time>2021-01-26T11:54:09Z</time>
      </trkpt>
      <trkpt lat="44.27519" lon="7.25629">
        <ele>2054.47</ele>
        <time>2021-01-26T11:54:11Z</time>
      </trkpt>
      <trkpt lat="44.27521" lon="7.25636">
        <ele>2052.07</ele>
        <time>2021-01-26T11:54:16Z</time>
      </trkpt>
      <trkpt lat="44.27522" lon="7.25638">
        <ele>2051.11</ele>
        <time>2021-01-26T11:54:21Z</time>
      </trkpt>
      <trkpt lat="44.27526" lon="7.25625">
        <ele>2047.26</ele>
        <time>2021-01-26T11:54:33Z</time>
      </trkpt>
      <trkpt lat="44.27527" lon="7.25624">
        <ele>2046.78</ele>
        <time>2021-01-26T11:54:38Z</time>
      </trkpt>
      <trkpt lat="44.27528" lon="7.25619">
        <ele>2044.38</ele>
        <time>2021-01-26T11:54:46Z</time>
      </trkpt>
      <trkpt lat="44.2753" lon="7.25614">
        <ele>2042.94</ele>
        <time>2021-01-26T11:54:52Z</time>
      </trkpt>
      <trkpt lat="44.27531" lon="7.25612">
        <ele>2042.46</ele>
        <time>2021-01-26T11:54:53Z</time>
      </trkpt>
      <trkpt lat="44.27531" lon="7.25606">
        <ele>2040.54</ele>
        <time>2021-01-26T11:55:05Z</time>
      </trkpt>
      <trkpt lat="44.27532" lon="7.25606">
        <ele>2041.5</ele>
        <time>2021-01-26T11:55:14Z</time>
      </trkpt>
      <trkpt lat="44.27533" lon="7.25602">
        <ele>2039.57</ele>
        <time>2021-01-26T11:55:17Z</time>
      </trkpt>
      <trkpt lat="44.27532" lon="7.25593">
        <ele>2037.65</ele>
        <time>2021-01-26T11:55:24Z</time>
      </trkpt>
      <trkpt lat="44.27534" lon="7.25588">
        <ele>2035.25</ele>
        <time>2021-01-26T11:55:33Z</time>
      </trkpt>
      <trkpt lat="44.27534" lon="7.25588">
        <ele>2035.25</ele>
        <time>2021-01-26T11:55:35Z</time>
      </trkpt>
      <trkpt lat="44.27538" lon="7.2559">
        <ele>2031.88</ele>
        <time>2021-01-26T11:55:42Z</time>
      </trkpt>
      <trkpt lat="44.27539" lon="7.25588">
        <ele>2031.4</ele>
        <time>2021-01-26T11:55:44Z</time>
      </trkpt>
      <trkpt lat="44.2754" lon="7.25581">
        <ele>2027.56</ele>
        <time>2021-01-26T11:55:53Z</time>
      </trkpt>
      <trkpt lat="44.2754" lon="7.25582">
        <ele>2027.08</ele>
        <time>2021-01-26T11:55:56Z</time>
      </trkpt>
      <trkpt lat="44.27544" lon="7.25589">
        <ele>2024.67</ele>
        <time>2021-01-26T11:56:05Z</time>
      </trkpt>
      <trkpt lat="44.27545" lon="7.25589">
        <ele>2024.67</ele>
        <time>2021-01-26T11:56:13Z</time>
      </trkpt>
      <trkpt lat="44.27547" lon="7.25592">
        <ele>2023.71</ele>
        <time>2021-01-26T11:56:15Z</time>
      </trkpt>
      <trkpt lat="44.27553" lon="7.25598">
        <ele>2021.31</ele>
        <time>2021-01-26T11:56:23Z</time>
      </trkpt>
      <trkpt lat="44.27553" lon="7.25598">
        <ele>2020.83</ele>
        <time>2021-01-26T11:56:24Z</time>
      </trkpt>
      <trkpt lat="44.27557" lon="7.25587">
        <ele>2016.5</ele>
        <time>2021-01-26T11:56:31Z</time>
      </trkpt>
      <trkpt lat="44.27568" lon="7.25585">
        <ele>2011.22</ele>
        <time>2021-01-26T11:56:37Z</time>
      </trkpt>
      <trkpt lat="44.27572" lon="7.2558">
        <ele>2007.37</ele>
        <time>2021-01-26T11:56:41Z</time>
      </trkpt>
      <trkpt lat="44.2757" lon="7.25581">
        <ele>2006.41</ele>
        <time>2021-01-26T11:56:46Z</time>
      </trkpt>
      <trkpt lat="44.27577" lon="7.25595">
        <ele>2003.52</ele>
        <time>2021-01-26T11:56:52Z</time>
      </trkpt>
      <trkpt lat="44.27579" lon="7.25597">
        <ele>2001.6</ele>
        <time>2021-01-26T11:57:07Z</time>
      </trkpt>
      <trkpt lat="44.2758" lon="7.25598">
        <ele>2002.08</ele>
        <time>2021-01-26T11:57:10Z</time>
      </trkpt>
      <trkpt lat="44.27583" lon="7.25595">
        <ele>1998.72</ele>
        <time>2021-01-26T11:57:17Z</time>
      </trkpt>
      <trkpt lat="44.27582" lon="7.25594">
        <ele>1997.76</ele>
        <time>2021-01-26T11:57:35Z</time>
      </trkpt>
      <trkpt lat="44.27582" lon="7.25594">
        <ele>1997.28</ele>
        <time>2021-01-26T11:57:46Z</time>
      </trkpt>
      <trkpt lat="44.27586" lon="7.25598">
        <ele>1996.32</ele>
        <time>2021-01-26T11:57:57Z</time>
      </trkpt>
      <trkpt lat="44.27587" lon="7.25599">
        <ele>1995.83</ele>
        <time>2021-01-26T11:58:02Z</time>
      </trkpt>
      <trkpt lat="44.27593" lon="7.25592">
        <ele>1990.55</ele>
        <time>2021-01-26T11:58:08Z</time>
      </trkpt>
      <trkpt lat="44.27606" lon="7.25591">
        <ele>1982.86</ele>
        <time>2021-01-26T11:58:15Z</time>
      </trkpt>
      <trkpt lat="44.27605" lon="7.25595">
        <ele>1974.69</ele>
        <time>2021-01-26T11:58:22Z</time>
      </trkpt>
      <trkpt lat="44.27605" lon="7.25597">
        <ele>1977.57</ele>
        <time>2021-01-26T11:58:44Z</time>
      </trkpt>
      <trkpt lat="44.27607" lon="7.25596">
        <ele>1981.41</ele>
        <time>2021-01-26T11:59:04Z</time>
      </trkpt>
      <trkpt lat="44.27612" lon="7.256">
        <ele>1981.41</ele>
        <time>2021-01-26T11:59:27Z</time>
      </trkpt>
      <trkpt lat="44.27614" lon="7.25602">
        <ele>1978.05</ele>
        <time>2021-01-26T11:59:39Z</time>
      </trkpt>
      <trkpt lat="44.27615" lon="7.25605">
        <ele>1977.09</ele>
        <time>2021-01-26T11:59:54Z</time>
      </trkpt>
      <trkpt lat="44.27623" lon="7.25593">
        <ele>1970.84</ele>
        <time>2021-01-26T12:00:00Z</time>
      </trkpt>
      <trkpt lat="44.27629" lon="7.25596">
        <ele>1963.63</ele>
        <time>2021-01-26T12:00:05Z</time>
      </trkpt>
      <trkpt lat="44.27631" lon="7.25602">
        <ele>1954.98</ele>
        <time>2021-01-26T12:00:12Z</time>
      </trkpt>
      <trkpt lat="44.27631" lon="7.25601">
        <ele>1953.06</ele>
        <time>2021-01-26T12:00:21Z</time>
      </trkpt>
      <trkpt lat="44.27642" lon="7.25603">
        <ele>1947.77</ele>
        <time>2021-01-26T12:00:27Z</time>
      </trkpt>
      <trkpt lat="44.27643" lon="7.25607">
        <ele>1944.88</ele>
        <time>2021-01-26T12:00:29Z</time>
      </trkpt>
      <trkpt lat="44.27653" lon="7.25609">
        <ele>1939.12</ele>
        <time>2021-01-26T12:00:36Z</time>
      </trkpt>
      <trkpt lat="44.27653" lon="7.25611">
        <ele>1938.64</ele>
        <time>2021-01-26T12:00:50Z</time>
      </trkpt>
      <trkpt lat="44.2765" lon="7.25613">
        <ele>1939.6</ele>
        <time>2021-01-26T12:01:11Z</time>
      </trkpt>
      <trkpt lat="44.27652" lon="7.25613">
        <ele>1939.6</ele>
        <time>2021-01-26T12:01:31Z</time>
      </trkpt>
      <trkpt lat="44.27655" lon="7.25615">
        <ele>1938.64</ele>
        <time>2021-01-26T12:01:53Z</time>
      </trkpt>
      <trkpt lat="44.27655" lon="7.25615">
        <ele>1940.08</ele>
        <time>2021-01-26T12:02:05Z</time>
      </trkpt>
      <trkpt lat="44.27668" lon="7.25616">
        <ele>1935.27</ele>
        <time>2021-01-26T12:02:12Z</time>
      </trkpt>
      <trkpt lat="44.27677" lon="7.25619">
        <ele>1929.5</ele>
        <time>2021-01-26T12:02:17Z</time>
      </trkpt>
      <trkpt lat="44.27684" lon="7.25635">
        <ele>1920.85</ele>
        <time>2021-01-26T12:02:25Z</time>
      </trkpt>
      <trkpt lat="44.27682" lon="7.25635">
        <ele>1917.01</ele>
        <time>2021-01-26T12:02:32Z</time>
      </trkpt>
      <trkpt lat="44.27688" lon="7.25624">
        <ele>1912.68</ele>
        <time>2021-01-26T12:02:39Z</time>
      </trkpt>
      <trkpt lat="44.27691" lon="7.25625">
        <ele>1911.24</ele>
        <time>2021-01-26T12:02:40Z</time>
      </trkpt>
      <trkpt lat="44.27694" lon="7.25631">
        <ele>1909.32</ele>
        <time>2021-01-26T12:02:42Z</time>
      </trkpt>
      <trkpt lat="44.27693" lon="7.25636">
        <ele>1906.91</ele>
        <time>2021-01-26T12:02:58Z</time>
      </trkpt>
      <trkpt lat="44.27694" lon="7.25635">
        <ele>1909.8</ele>
        <time>2021-01-26T12:03:17Z</time>
      </trkpt>
      <trkpt lat="44.27699" lon="7.2564">
        <ele>1907.87</ele>
        <time>2021-01-26T12:03:26Z</time>
      </trkpt>
      <trkpt lat="44.27701" lon="7.25641">
        <ele>1908.35</ele>
        <time>2021-01-26T12:03:43Z</time>
      </trkpt>
      <trkpt lat="44.27707" lon="7.25632">
        <ele>1903.55</ele>
        <time>2021-01-26T12:03:49Z</time>
      </trkpt>
      <trkpt lat="44.27708" lon="7.25629">
        <ele>1902.11</ele>
        <time>2021-01-26T12:04:04Z</time>
      </trkpt>
      <trkpt lat="44.2771" lon="7.25622">
        <ele>1900.18</ele>
        <time>2021-01-26T12:04:23Z</time>
      </trkpt>
      <trkpt lat="44.2771" lon="7.25606">
        <ele>1896.34</ele>
        <time>2021-01-26T12:04:29Z</time>
      </trkpt>
      <trkpt lat="44.27714" lon="7.25604">
        <ele>1894.42</ele>
        <time>2021-01-26T12:04:37Z</time>
      </trkpt>
      <trkpt lat="44.27715" lon="7.25604">
        <ele>1894.42</ele>
        <time>2021-01-26T12:04:38Z</time>
      </trkpt>
      <trkpt lat="44.27722" lon="7.25603">
        <ele>1892.49</ele>
        <time>2021-01-26T12:04:44Z</time>
      </trkpt>
      <trkpt lat="44.27732" lon="7.25611">
        <ele>1887.21</ele>
        <time>2021-01-26T12:04:50Z</time>
      </trkpt>
      <trkpt lat="44.27738" lon="7.25617">
        <ele>1880</ele>
        <time>2021-01-26T12:04:55Z</time>
      </trkpt>
      <trkpt lat="44.27737" lon="7.25615">
        <ele>1878.55</ele>
        <time>2021-01-26T12:05:11Z</time>
      </trkpt>
      <trkpt lat="44.27747" lon="7.25613">
        <ele>1875.19</ele>
        <time>2021-01-26T12:05:18Z</time>
      </trkpt>
      <trkpt lat="44.27753" lon="7.25615">
        <ele>1872.3</ele>
        <time>2021-01-26T12:05:27Z</time>
      </trkpt>
      <trkpt lat="44.27751" lon="7.25617">
        <ele>1872.79</ele>
        <time>2021-01-26T12:05:46Z</time>
      </trkpt>
      <trkpt lat="44.2776" lon="7.25614">
        <ele>1869.9</ele>
        <time>2021-01-26T12:05:57Z</time>
      </trkpt>
      <trkpt lat="44.27761" lon="7.25614">
        <ele>1867.98</ele>
        <time>2021-01-26T12:06:07Z</time>
      </trkpt>
      <trkpt lat="44.27762" lon="7.25631">
        <ele>1864.13</ele>
        <time>2021-01-26T12:06:15Z</time>
      </trkpt>
      <trkpt lat="44.27763" lon="7.2563">
        <ele>1863.65</ele>
        <time>2021-01-26T12:06:16Z</time>
      </trkpt>
      <trkpt lat="44.27766" lon="7.2564">
        <ele>1857.89</ele>
        <time>2021-01-26T12:06:21Z</time>
      </trkpt>
      <trkpt lat="44.27784" lon="7.25631">
        <ele>1849.23</ele>
        <time>2021-01-26T12:06:31Z</time>
      </trkpt>
      <trkpt lat="44.27783" lon="7.2563">
        <ele>1847.79</ele>
        <time>2021-01-26T12:06:56Z</time>
      </trkpt>
      <trkpt lat="44.27783" lon="7.25631">
        <ele>1847.79</ele>
        <time>2021-01-26T12:07:03Z</time>
      </trkpt>
      <trkpt lat="44.27791" lon="7.25642">
        <ele>1840.58</ele>
        <time>2021-01-26T12:07:09Z</time>
      </trkpt>
      <trkpt lat="44.2779" lon="7.25642">
        <ele>1837.22</ele>
        <time>2021-01-26T12:07:12Z</time>
      </trkpt>
      <trkpt lat="44.27797" lon="7.2564">
        <ele>1832.89</ele>
        <time>2021-01-26T12:07:23Z</time>
      </trkpt>
      <trkpt lat="44.27796" lon="7.25639">
        <ele>1836.74</ele>
        <time>2021-01-26T12:07:44Z</time>
      </trkpt>
      <trkpt lat="44.27799" lon="7.25638">
        <ele>1837.7</ele>
        <time>2021-01-26T12:07:59Z</time>
      </trkpt>
      <trkpt lat="44.27806" lon="7.25632">
        <ele>1835.29</ele>
        <time>2021-01-26T12:08:17Z</time>
      </trkpt>
      <trkpt lat="44.27809" lon="7.25632">
        <ele>1834.33</ele>
        <time>2021-01-26T12:08:20Z</time>
      </trkpt>
      <trkpt lat="44.27821" lon="7.2563">
        <ele>1831.93</ele>
        <time>2021-01-26T12:08:32Z</time>
      </trkpt>
      <trkpt lat="44.27827" lon="7.25626">
        <ele>1829.05</ele>
        <time>2021-01-26T12:08:41Z</time>
      </trkpt>
      <trkpt lat="44.27836" lon="7.25622">
        <ele>1825.2</ele>
        <time>2021-01-26T12:08:50Z</time>
      </trkpt>
      <trkpt lat="44.27836" lon="7.25623">
        <ele>1824.24</ele>
        <time>2021-01-26T12:08:57Z</time>
      </trkpt>
      <trkpt lat="44.27847" lon="7.25631">
        <ele>1818.95</ele>
        <time>2021-01-26T12:09:04Z</time>
      </trkpt>
      <trkpt lat="44.27866" lon="7.25628">
        <ele>1809.34</ele>
        <time>2021-01-26T12:09:13Z</time>
      </trkpt>
      <trkpt lat="44.27864" lon="7.25639">
        <ele>1804.05</ele>
        <time>2021-01-26T12:09:18Z</time>
      </trkpt>
      <trkpt lat="44.2786" lon="7.25647">
        <ele>1800.21</ele>
        <time>2021-01-26T12:09:29Z</time>
      </trkpt>
      <trkpt lat="44.27858" lon="7.25653">
        <ele>1801.17</ele>
        <time>2021-01-26T12:09:43Z</time>
      </trkpt>
      <trkpt lat="44.27858" lon="7.25653">
        <ele>1802.61</ele>
        <time>2021-01-26T12:09:55Z</time>
      </trkpt>
      <trkpt lat="44.27862" lon="7.25659">
        <ele>1799.73</ele>
        <time>2021-01-26T12:10:02Z</time>
      </trkpt>
      <trkpt lat="44.27863" lon="7.25658">
        <ele>1799.24</ele>
        <time>2021-01-26T12:10:09Z</time>
      </trkpt>
      <trkpt lat="44.27871" lon="7.25666">
        <ele>1794.92</ele>
        <time>2021-01-26T12:10:16Z</time>
      </trkpt>
      <trkpt lat="44.27889" lon="7.25661">
        <ele>1788.19</ele>
        <time>2021-01-26T12:10:26Z</time>
      </trkpt>
      <trkpt lat="44.27899" lon="7.25657">
        <ele>1783.38</ele>
        <time>2021-01-26T12:10:35Z</time>
      </trkpt>
      <trkpt lat="44.27907" lon="7.25662">
        <ele>1779.06</ele>
        <time>2021-01-26T12:10:41Z</time>
      </trkpt>
      <trkpt lat="44.27907" lon="7.25661">
        <ele>1777.13</ele>
        <time>2021-01-26T12:10:46Z</time>
      </trkpt>
      <trkpt lat="44.27914" lon="7.25667">
        <ele>1774.25</ele>
        <time>2021-01-26T12:10:51Z</time>
      </trkpt>
      <trkpt lat="44.27919" lon="7.2567">
        <ele>1771.85</ele>
        <time>2021-01-26T12:10:59Z</time>
      </trkpt>
      <trkpt lat="44.27919" lon="7.2567">
        <ele>1770.89</ele>
        <time>2021-01-26T12:11:17Z</time>
      </trkpt>
      <trkpt lat="44.27921" lon="7.25671">
        <ele>1770.41</ele>
        <time>2021-01-26T12:11:18Z</time>
      </trkpt>
      <trkpt lat="44.27921" lon="7.25678">
        <ele>1768.96</ele>
        <time>2021-01-26T12:11:22Z</time>
      </trkpt>
      <trkpt lat="44.27926" lon="7.25681">
        <ele>1766.08</ele>
        <time>2021-01-26T12:11:30Z</time>
      </trkpt>
      <trkpt lat="44.27927" lon="7.25681">
        <ele>1764.16</ele>
        <time>2021-01-26T12:11:48Z</time>
      </trkpt>
      <trkpt lat="44.27928" lon="7.2568">
        <ele>1767.04</ele>
        <time>2021-01-26T12:12:08Z</time>
      </trkpt>
      <trkpt lat="44.27928" lon="7.25685">
        <ele>1765.12</ele>
        <time>2021-01-26T12:12:30Z</time>
      </trkpt>
      <trkpt lat="44.27927" lon="7.25687">
        <ele>1763.2</ele>
        <time>2021-01-26T12:12:52Z</time>
      </trkpt>
      <trkpt lat="44.27929" lon="7.25684">
        <ele>1763.68</ele>
        <time>2021-01-26T12:13:10Z</time>
      </trkpt>
      <trkpt lat="44.27931" lon="7.25682">
        <ele>1761.75</ele>
        <time>2021-01-26T12:13:19Z</time>
      </trkpt>
      <trkpt lat="44.27938" lon="7.25692">
        <ele>1757.91</ele>
        <time>2021-01-26T12:13:25Z</time>
      </trkpt>
      <trkpt lat="44.27939" lon="7.2569">
        <ele>1755.5</ele>
        <time>2021-01-26T12:13:28Z</time>
      </trkpt>
      <trkpt lat="44.27943" lon="7.25702">
        <ele>1750.22</ele>
        <time>2021-01-26T12:13:34Z</time>
      </trkpt>
      <trkpt lat="44.27947" lon="7.25701">
        <ele>1746.85</ele>
        <time>2021-01-26T12:13:40Z</time>
      </trkpt>
      <trkpt lat="44.27946" lon="7.25703">
        <ele>1748.29</ele>
        <time>2021-01-26T12:14:02Z</time>
      </trkpt>
      <trkpt lat="44.27945" lon="7.25704">
        <ele>1750.22</ele>
        <time>2021-01-26T12:14:19Z</time>
      </trkpt>
      <trkpt lat="44.27945" lon="7.25701">
        <ele>1748.78</ele>
        <time>2021-01-26T12:14:43Z</time>
      </trkpt>
      <trkpt lat="44.27947" lon="7.25702">
        <ele>1747.81</ele>
        <time>2021-01-26T12:15:02Z</time>
      </trkpt>
      <trkpt lat="44.27945" lon="7.25702">
        <ele>1745.41</ele>
        <time>2021-01-26T12:15:28Z</time>
      </trkpt>
      <trkpt lat="44.27946" lon="7.25702">
        <ele>1745.41</ele>
        <time>2021-01-26T12:15:48Z</time>
      </trkpt>
      <trkpt lat="44.27946" lon="7.25703">
        <ele>1747.81</ele>
        <time>2021-01-26T12:16:06Z</time>
      </trkpt>
      <trkpt lat="44.27947" lon="7.25704">
        <ele>1750.22</ele>
        <time>2021-01-26T12:16:28Z</time>
      </trkpt>
      <trkpt lat="44.27947" lon="7.25703">
        <ele>1748.29</ele>
        <time>2021-01-26T12:16:51Z</time>
      </trkpt>
      <trkpt lat="44.27946" lon="7.25704">
        <ele>1749.26</ele>
        <time>2021-01-26T12:17:16Z</time>
      </trkpt>
      <trkpt lat="44.27948" lon="7.25704">
        <ele>1748.78</ele>
        <time>2021-01-26T12:17:37Z</time>
      </trkpt>
      <trkpt lat="44.27948" lon="7.25703">
        <ele>1750.7</ele>
        <time>2021-01-26T12:18:01Z</time>
      </trkpt>
      <trkpt lat="44.27947" lon="7.25704">
        <ele>1752.14</ele>
        <time>2021-01-26T12:18:31Z</time>
      </trkpt>
      <trkpt lat="44.27947" lon="7.25704">
        <ele>1748.78</ele>
        <time>2021-01-26T12:18:59Z</time>
      </trkpt>
      <trkpt lat="44.27945" lon="7.25705">
        <ele>1751.18</ele>
        <time>2021-01-26T12:19:24Z</time>
      </trkpt>
      <trkpt lat="44.27945" lon="7.25705">
        <ele>1751.18</ele>
        <time>2021-01-26T12:19:26Z</time>
      </trkpt>
      <trkpt lat="44.27953" lon="7.2572">
        <ele>1747.81</ele>
        <time>2021-01-26T12:19:34Z</time>
      </trkpt>
      <trkpt lat="44.27958" lon="7.25722">
        <ele>1746.37</ele>
        <time>2021-01-26T12:19:36Z</time>
      </trkpt>
      <trkpt lat="44.2796" lon="7.25722">
        <ele>1745.41</ele>
        <time>2021-01-26T12:19:37Z</time>
      </trkpt>
      <trkpt lat="44.27963" lon="7.25722">
        <ele>1744.93</ele>
        <time>2021-01-26T12:19:38Z</time>
      </trkpt>
      <trkpt lat="44.27971" lon="7.25723">
        <ele>1742.05</ele>
        <time>2021-01-26T12:19:43Z</time>
      </trkpt>
      <trkpt lat="44.27971" lon="7.2573">
        <ele>1740.12</ele>
        <time>2021-01-26T12:19:45Z</time>
      </trkpt>
      <trkpt lat="44.27973" lon="7.25733">
        <ele>1738.2</ele>
        <time>2021-01-26T12:19:47Z</time>
      </trkpt>
      <trkpt lat="44.27977" lon="7.25734">
        <ele>1735.8</ele>
        <time>2021-01-26T12:19:49Z</time>
      </trkpt>
      <trkpt lat="44.27981" lon="7.25737">
        <ele>1734.84</ele>
        <time>2021-01-26T12:19:50Z</time>
      </trkpt>
      <trkpt lat="44.27984" lon="7.25736">
        <ele>1733.39</ele>
        <time>2021-01-26T12:19:51Z</time>
      </trkpt>
      <trkpt lat="44.27986" lon="7.25735">
        <ele>1731.95</ele>
        <time>2021-01-26T12:19:52Z</time>
      </trkpt>
      <trkpt lat="44.27986" lon="7.25732">
        <ele>1727.63</ele>
        <time>2021-01-26T12:20:05Z</time>
      </trkpt>
      <trkpt lat="44.27986" lon="7.25733">
        <ele>1726.18</ele>
        <time>2021-01-26T12:20:28Z</time>
      </trkpt>
      <trkpt lat="44.27988" lon="7.25733">
        <ele>1725.22</ele>
        <time>2021-01-26T12:20:38Z</time>
      </trkpt>
      <trkpt lat="44.27989" lon="7.25735">
        <ele>1724.26</ele>
        <time>2021-01-26T12:20:54Z</time>
      </trkpt>
      <trkpt lat="44.2799" lon="7.25736">
        <ele>1723.78</ele>
        <time>2021-01-26T12:20:55Z</time>
      </trkpt>
      <trkpt lat="44.27997" lon="7.25747">
        <ele>1721.86</ele>
        <time>2021-01-26T12:21:00Z</time>
      </trkpt>
      <trkpt lat="44.28005" lon="7.25753">
        <ele>1718.01</ele>
        <time>2021-01-26T12:21:04Z</time>
      </trkpt>
      <trkpt lat="44.2802" lon="7.25755">
        <ele>1711.28</ele>
        <time>2021-01-26T12:21:09Z</time>
      </trkpt>
      <trkpt lat="44.28035" lon="7.25755">
        <ele>1705.52</ele>
        <time>2021-01-26T12:21:13Z</time>
      </trkpt>
      <trkpt lat="44.28047" lon="7.25769">
        <ele>1699.75</ele>
        <time>2021-01-26T12:21:18Z</time>
      </trkpt>
      <trkpt lat="44.28062" lon="7.25778">
        <ele>1692.54</ele>
        <time>2021-01-26T12:21:23Z</time>
      </trkpt>
      <trkpt lat="44.28073" lon="7.25788">
        <ele>1684.85</ele>
        <time>2021-01-26T12:21:28Z</time>
      </trkpt>
      <trkpt lat="44.28076" lon="7.25789">
        <ele>1682.93</ele>
        <time>2021-01-26T12:21:29Z</time>
      </trkpt>
      <trkpt lat="44.28083" lon="7.25788">
        <ele>1679.56</ele>
        <time>2021-01-26T12:21:31Z</time>
      </trkpt>
      <trkpt lat="44.28086" lon="7.25801">
        <ele>1672.83</ele>
        <time>2021-01-26T12:21:37Z</time>
      </trkpt>
      <trkpt lat="44.28085" lon="7.25798">
        <ele>1666.58</ele>
        <time>2021-01-26T12:21:56Z</time>
      </trkpt>
      <trkpt lat="44.28085" lon="7.25797">
        <ele>1665.62</ele>
        <time>2021-01-26T12:22:08Z</time>
      </trkpt>
      <trkpt lat="44.2809" lon="7.25813">
        <ele>1662.74</ele>
        <time>2021-01-26T12:22:14Z</time>
      </trkpt>
      <trkpt lat="44.28105" lon="7.25834">
        <ele>1659.37</ele>
        <time>2021-01-26T12:22:24Z</time>
      </trkpt>
      <trkpt lat="44.2811" lon="7.25826">
        <ele>1657.45</ele>
        <time>2021-01-26T12:22:26Z</time>
      </trkpt>
      <trkpt lat="44.28113" lon="7.25819">
        <ele>1656.49</ele>
        <time>2021-01-26T12:22:27Z</time>
      </trkpt>
      <trkpt lat="44.28115" lon="7.25813">
        <ele>1655.53</ele>
        <time>2021-01-26T12:22:28Z</time>
      </trkpt>
      <trkpt lat="44.28117" lon="7.2581">
        <ele>1654.57</ele>
        <time>2021-01-26T12:22:29Z</time>
      </trkpt>
      <trkpt lat="44.28119" lon="7.25811">
        <ele>1654.09</ele>
        <time>2021-01-26T12:22:30Z</time>
      </trkpt>
      <trkpt lat="44.28119" lon="7.25815">
        <ele>1653.12</ele>
        <time>2021-01-26T12:22:31Z</time>
      </trkpt>
      <trkpt lat="44.2812" lon="7.25819">
        <ele>1652.64</ele>
        <time>2021-01-26T12:22:32Z</time>
      </trkpt>
      <trkpt lat="44.28123" lon="7.25822">
        <ele>1651.2</ele>
        <time>2021-01-26T12:22:33Z</time>
      </trkpt>
      <trkpt lat="44.28126" lon="7.25822">
        <ele>1650.24</ele>
        <time>2021-01-26T12:22:34Z</time>
      </trkpt>
      <trkpt lat="44.28128" lon="7.25819">
        <ele>1649.28</ele>
        <time>2021-01-26T12:22:35Z</time>
      </trkpt>
      <trkpt lat="44.28133" lon="7.25809">
        <ele>1647.84</ele>
        <time>2021-01-26T12:22:41Z</time>
      </trkpt>
      <trkpt lat="44.28135" lon="7.25811">
        <ele>1647.84</ele>
        <time>2021-01-26T12:22:43Z</time>
      </trkpt>
      <trkpt lat="44.28138" lon="7.25812">
        <ele>1646.88</ele>
        <time>2021-01-26T12:22:44Z</time>
      </trkpt>
      <trkpt lat="44.28139" lon="7.25816">
        <ele>1645.91</ele>
        <time>2021-01-26T12:22:45Z</time>
      </trkpt>
      <trkpt lat="44.28139" lon="7.25822">
        <ele>1644.95</ele>
        <time>2021-01-26T12:22:46Z</time>
      </trkpt>
      <trkpt lat="44.28136" lon="7.25827">
        <ele>1641.59</ele>
        <time>2021-01-26T12:22:56Z</time>
      </trkpt>
      <trkpt lat="44.28136" lon="7.25826">
        <ele>1642.07</ele>
        <time>2021-01-26T12:23:14Z</time>
      </trkpt>
      <trkpt lat="44.28136" lon="7.25827">
        <ele>1642.55</ele>
        <time>2021-01-26T12:23:34Z</time>
      </trkpt>
      <trkpt lat="44.28139" lon="7.25828">
        <ele>1642.55</ele>
        <time>2021-01-26T12:23:50Z</time>
      </trkpt>
      <trkpt lat="44.2814" lon="7.2583">
        <ele>1642.07</ele>
        <time>2021-01-26T12:23:51Z</time>
      </trkpt>
      <trkpt lat="44.28142" lon="7.25833">
        <ele>1641.59</ele>
        <time>2021-01-26T12:23:52Z</time>
      </trkpt>
      <trkpt lat="44.28142" lon="7.25835">
        <ele>1640.63</ele>
        <time>2021-01-26T12:23:53Z</time>
      </trkpt>
      <trkpt lat="44.28142" lon="7.25836">
        <ele>1639.67</ele>
        <time>2021-01-26T12:23:55Z</time>
      </trkpt>
      <trkpt lat="44.28144" lon="7.25837">
        <ele>1639.19</ele>
        <time>2021-01-26T12:23:56Z</time>
      </trkpt>
      <trkpt lat="44.28147" lon="7.2584">
        <ele>1638.7</ele>
        <time>2021-01-26T12:23:57Z</time>
      </trkpt>
      <trkpt lat="44.28149" lon="7.25842">
        <ele>1638.7</ele>
        <time>2021-01-26T12:23:58Z</time>
      </trkpt>
      <trkpt lat="44.2815" lon="7.25843">
        <ele>1638.22</ele>
        <time>2021-01-26T12:23:59Z</time>
      </trkpt>
      <trkpt lat="44.28151" lon="7.25845">
        <ele>1637.74</ele>
        <time>2021-01-26T12:24:00Z</time>
      </trkpt>
      <trkpt lat="44.28153" lon="7.25846">
        <ele>1637.26</ele>
        <time>2021-01-26T12:24:01Z</time>
      </trkpt>
      <trkpt lat="44.28156" lon="7.25848">
        <ele>1636.78</ele>
        <time>2021-01-26T12:24:02Z</time>
      </trkpt>
      <trkpt lat="44.28157" lon="7.25851">
        <ele>1635.82</ele>
        <time>2021-01-26T12:24:03Z</time>
      </trkpt>
      <trkpt lat="44.28161" lon="7.25853">
        <ele>1632.94</ele>
        <time>2021-01-26T12:24:07Z</time>
      </trkpt>
      <trkpt lat="44.28166" lon="7.25851">
        <ele>1631.49</ele>
        <time>2021-01-26T12:24:10Z</time>
      </trkpt>
      <trkpt lat="44.2817" lon="7.25853">
        <ele>1630.53</ele>
        <time>2021-01-26T12:24:11Z</time>
      </trkpt>
      <trkpt lat="44.28172" lon="7.25857">
        <ele>1629.57</ele>
        <time>2021-01-26T12:24:12Z</time>
      </trkpt>
      <trkpt lat="44.28172" lon="7.25861">
        <ele>1628.61</ele>
        <time>2021-01-26T12:24:13Z</time>
      </trkpt>
      <trkpt lat="44.2817" lon="7.2586">
        <ele>1624.77</ele>
        <time>2021-01-26T12:24:24Z</time>
      </trkpt>
      <trkpt lat="44.28172" lon="7.2586">
        <ele>1622.36</ele>
        <time>2021-01-26T12:24:36Z</time>
      </trkpt>
      <trkpt lat="44.28174" lon="7.2586">
        <ele>1622.36</ele>
        <time>2021-01-26T12:24:37Z</time>
      </trkpt>
      <trkpt lat="44.28179" lon="7.25858">
        <ele>1621.4</ele>
        <time>2021-01-26T12:24:40Z</time>
      </trkpt>
      <trkpt lat="44.28181" lon="7.25861">
        <ele>1620.92</ele>
        <time>2021-01-26T12:24:41Z</time>
      </trkpt>
      <trkpt lat="44.28182" lon="7.25865">
        <ele>1620.92</ele>
        <time>2021-01-26T12:24:42Z</time>
      </trkpt>
      <trkpt lat="44.28182" lon="7.25869">
        <ele>1620.44</ele>
        <time>2021-01-26T12:24:43Z</time>
      </trkpt>
      <trkpt lat="44.28184" lon="7.25872">
        <ele>1620.44</ele>
        <time>2021-01-26T12:24:44Z</time>
      </trkpt>
      <trkpt lat="44.28186" lon="7.25871">
        <ele>1619.96</ele>
        <time>2021-01-26T12:24:45Z</time>
      </trkpt>
      <trkpt lat="44.28188" lon="7.25871">
        <ele>1619.48</ele>
        <time>2021-01-26T12:24:46Z</time>
      </trkpt>
      <trkpt lat="44.2819" lon="7.25872">
        <ele>1619</ele>
        <time>2021-01-26T12:24:47Z</time>
      </trkpt>
      <trkpt lat="44.28192" lon="7.25876">
        <ele>1618.52</ele>
        <time>2021-01-26T12:24:48Z</time>
      </trkpt>
      <trkpt lat="44.28195" lon="7.2588">
        <ele>1618.52</ele>
        <time>2021-01-26T12:24:49Z</time>
      </trkpt>
      <trkpt lat="44.28198" lon="7.25883">
        <ele>1618.52</ele>
        <time>2021-01-26T12:24:50Z</time>
      </trkpt>
      <trkpt lat="44.28199" lon="7.25887">
        <ele>1618.52</ele>
        <time>2021-01-26T12:24:51Z</time>
      </trkpt>
      <trkpt lat="44.28202" lon="7.2589">
        <ele>1618.52</ele>
        <time>2021-01-26T12:24:52Z</time>
      </trkpt>
      <trkpt lat="44.28205" lon="7.25893">
        <ele>1618.52</ele>
        <time>2021-01-26T12:24:53Z</time>
      </trkpt>
      <trkpt lat="44.28208" lon="7.25895">
        <ele>1618.04</ele>
        <time>2021-01-26T12:24:54Z</time>
      </trkpt>
      <trkpt lat="44.28212" lon="7.25896">
        <ele>1618.04</ele>
        <time>2021-01-26T12:24:55Z</time>
      </trkpt>
      <trkpt lat="44.28216" lon="7.25899">
        <ele>1618.04</ele>
        <time>2021-01-26T12:24:56Z</time>
      </trkpt>
      <trkpt lat="44.28218" lon="7.25903">
        <ele>1618.04</ele>
        <time>2021-01-26T12:24:57Z</time>
      </trkpt>
      <trkpt lat="44.28219" lon="7.25909">
        <ele>1618.04</ele>
        <time>2021-01-26T12:25:06Z</time>
      </trkpt>
      <trkpt lat="44.28221" lon="7.25912">
        <ele>1616.59</ele>
        <time>2021-01-26T12:25:14Z</time>
      </trkpt>
      <trkpt lat="44.28223" lon="7.25913">
        <ele>1616.11</ele>
        <time>2021-01-26T12:25:15Z</time>
      </trkpt>
      <trkpt lat="44.28223" lon="7.25915">
        <ele>1615.63</ele>
        <time>2021-01-26T12:25:16Z</time>
      </trkpt>
      <trkpt lat="44.28224" lon="7.25917">
        <ele>1615.15</ele>
        <time>2021-01-26T12:25:17Z</time>
      </trkpt>
      <trkpt lat="44.28225" lon="7.25919">
        <ele>1614.19</ele>
        <time>2021-01-26T12:25:18Z</time>
      </trkpt>
      <trkpt lat="44.28227" lon="7.2592">
        <ele>1614.19</ele>
        <time>2021-01-26T12:25:19Z</time>
      </trkpt>
      <trkpt lat="44.28228" lon="7.2592">
        <ele>1613.71</ele>
        <time>2021-01-26T12:25:20Z</time>
      </trkpt>
      <trkpt lat="44.28229" lon="7.25922">
        <ele>1613.23</ele>
        <time>2021-01-26T12:25:21Z</time>
      </trkpt>
      <trkpt lat="44.2823" lon="7.25925">
        <ele>1612.75</ele>
        <time>2021-01-26T12:25:22Z</time>
      </trkpt>
      <trkpt lat="44.28231" lon="7.25927">
        <ele>1612.27</ele>
        <time>2021-01-26T12:25:23Z</time>
      </trkpt>
      <trkpt lat="44.28234" lon="7.25928">
        <ele>1611.31</ele>
        <time>2021-01-26T12:25:24Z</time>
      </trkpt>
      <trkpt lat="44.28236" lon="7.25926">
        <ele>1610.35</ele>
        <time>2021-01-26T12:25:25Z</time>
      </trkpt>
      <trkpt lat="44.28238" lon="7.25924">
        <ele>1609.86</ele>
        <time>2021-01-26T12:25:26Z</time>
      </trkpt>
      <trkpt lat="44.2824" lon="7.25924">
        <ele>1608.9</ele>
        <time>2021-01-26T12:25:27Z</time>
      </trkpt>
      <trkpt lat="44.28242" lon="7.25927">
        <ele>1607.94</ele>
        <time>2021-01-26T12:25:28Z</time>
      </trkpt>
      <trkpt lat="44.28245" lon="7.25931">
        <ele>1606.98</ele>
        <time>2021-01-26T12:25:29Z</time>
      </trkpt>
      <trkpt lat="44.28248" lon="7.25934">
        <ele>1606.02</ele>
        <time>2021-01-26T12:25:30Z</time>
      </trkpt>
      <trkpt lat="44.28251" lon="7.25936">
        <ele>1605.54</ele>
        <time>2021-01-26T12:25:31Z</time>
      </trkpt>
      <trkpt lat="44.28252" lon="7.2594">
        <ele>1604.58</ele>
        <time>2021-01-26T12:25:32Z</time>
      </trkpt>
      <trkpt lat="44.28252" lon="7.25943">
        <ele>1603.62</ele>
        <time>2021-01-26T12:25:33Z</time>
      </trkpt>
      <trkpt lat="44.28254" lon="7.25945">
        <ele>1602.66</ele>
        <time>2021-01-26T12:25:34Z</time>
      </trkpt>
      <trkpt lat="44.28256" lon="7.25947">
        <ele>1602.17</ele>
        <time>2021-01-26T12:25:35Z</time>
      </trkpt>
      <trkpt lat="44.28261" lon="7.2595">
        <ele>1600.25</ele>
        <time>2021-01-26T12:25:37Z</time>
      </trkpt>
      <trkpt lat="44.28264" lon="7.25952">
        <ele>1599.29</ele>
        <time>2021-01-26T12:25:38Z</time>
      </trkpt>
      <trkpt lat="44.28267" lon="7.25956">
        <ele>1598.33</ele>
        <time>2021-01-26T12:25:39Z</time>
      </trkpt>
      <trkpt lat="44.28268" lon="7.2596">
        <ele>1597.37</ele>
        <time>2021-01-26T12:25:40Z</time>
      </trkpt>
      <trkpt lat="44.28269" lon="7.25969">
        <ele>1590.64</ele>
        <time>2021-01-26T12:25:47Z</time>
      </trkpt>
      <trkpt lat="44.2827" lon="7.25978">
        <ele>1586.79</ele>
        <time>2021-01-26T12:25:57Z</time>
      </trkpt>
      <trkpt lat="44.28272" lon="7.25979">
        <ele>1586.79</ele>
        <time>2021-01-26T12:26:10Z</time>
      </trkpt>
      <trkpt lat="44.28273" lon="7.25979">
        <ele>1586.79</ele>
        <time>2021-01-26T12:26:12Z</time>
      </trkpt>
      <trkpt lat="44.28274" lon="7.25981">
        <ele>1586.31</ele>
        <time>2021-01-26T12:26:13Z</time>
      </trkpt>
      <trkpt lat="44.28275" lon="7.25984">
        <ele>1585.35</ele>
        <time>2021-01-26T12:26:14Z</time>
      </trkpt>
      <trkpt lat="44.28275" lon="7.25987">
        <ele>1584.87</ele>
        <time>2021-01-26T12:26:15Z</time>
      </trkpt>
      <trkpt lat="44.28274" lon="7.2599">
        <ele>1584.87</ele>
        <time>2021-01-26T12:26:16Z</time>
      </trkpt>
      <trkpt lat="44.28273" lon="7.25993">
        <ele>1584.87</ele>
        <time>2021-01-26T12:26:17Z</time>
      </trkpt>
      <trkpt lat="44.28273" lon="7.25996">
        <ele>1584.87</ele>
        <time>2021-01-26T12:26:18Z</time>
      </trkpt>
      <trkpt lat="44.28273" lon="7.26">
        <ele>1584.39</ele>
        <time>2021-01-26T12:26:19Z</time>
      </trkpt>
      <trkpt lat="44.28275" lon="7.26005">
        <ele>1583.91</ele>
        <time>2021-01-26T12:26:20Z</time>
      </trkpt>
      <trkpt lat="44.28277" lon="7.26007">
        <ele>1583.43</ele>
        <time>2021-01-26T12:26:21Z</time>
      </trkpt>
      <trkpt lat="44.2828" lon="7.26009">
        <ele>1582.47</ele>
        <time>2021-01-26T12:26:24Z</time>
      </trkpt>
      <trkpt lat="44.28281" lon="7.2601">
        <ele>1581.99</ele>
        <time>2021-01-26T12:26:25Z</time>
      </trkpt>
      <trkpt lat="44.28281" lon="7.26013">
        <ele>1581.51</ele>
        <time>2021-01-26T12:26:26Z</time>
      </trkpt>
      <trkpt lat="44.28282" lon="7.26041">
        <ele>1578.14</ele>
        <time>2021-01-26T12:26:33Z</time>
      </trkpt>
      <trkpt lat="44.28286" lon="7.26046">
        <ele>1577.66</ele>
        <time>2021-01-26T12:26:34Z</time>
      </trkpt>
      <trkpt lat="44.28289" lon="7.26051">
        <ele>1576.7</ele>
        <time>2021-01-26T12:26:35Z</time>
      </trkpt>
      <trkpt lat="44.28293" lon="7.26056">
        <ele>1574.78</ele>
        <time>2021-01-26T12:26:37Z</time>
      </trkpt>
      <trkpt lat="44.28299" lon="7.2605">
        <ele>1571.41</ele>
        <time>2021-01-26T12:26:40Z</time>
      </trkpt>
      <trkpt lat="44.28302" lon="7.26053">
        <ele>1570.45</ele>
        <time>2021-01-26T12:26:41Z</time>
      </trkpt>
      <trkpt lat="44.28304" lon="7.26057">
        <ele>1569.01</ele>
        <time>2021-01-26T12:26:42Z</time>
      </trkpt>
      <trkpt lat="44.28313" lon="7.26078">
        <ele>1560.84</ele>
        <time>2021-01-26T12:26:49Z</time>
      </trkpt>
      <trkpt lat="44.28317" lon="7.26067">
        <ele>1555.55</ele>
        <time>2021-01-26T12:26:52Z</time>
      </trkpt>
      <trkpt lat="44.2832" lon="7.26061">
        <ele>1554.59</ele>
        <time>2021-01-26T12:26:54Z</time>
      </trkpt>
      <trkpt lat="44.28323" lon="7.26061">
        <ele>1553.63</ele>
        <time>2021-01-26T12:26:56Z</time>
      </trkpt>
      <trkpt lat="44.28325" lon="7.26063">
        <ele>1552.67</ele>
        <time>2021-01-26T12:26:57Z</time>
      </trkpt>
      <trkpt lat="44.28324" lon="7.26067">
        <ele>1549.3</ele>
        <time>2021-01-26T12:27:05Z</time>
      </trkpt>
      <trkpt lat="44.28323" lon="7.26068">
        <ele>1546.42</ele>
        <time>2021-01-26T12:27:27Z</time>
      </trkpt>
      <trkpt lat="44.28323" lon="7.26071">
        <ele>1545.94</ele>
        <time>2021-01-26T12:27:45Z</time>
      </trkpt>
      <trkpt lat="44.28334" lon="7.26072">
        <ele>1541.61</ele>
        <time>2021-01-26T12:27:52Z</time>
      </trkpt>
      <trkpt lat="44.28336" lon="7.26074">
        <ele>1541.13</ele>
        <time>2021-01-26T12:27:53Z</time>
      </trkpt>
      <trkpt lat="44.28337" lon="7.26077">
        <ele>1540.65</ele>
        <time>2021-01-26T12:27:54Z</time>
      </trkpt>
      <trkpt lat="44.28338" lon="7.2608">
        <ele>1540.17</ele>
        <time>2021-01-26T12:27:55Z</time>
      </trkpt>
      <trkpt lat="44.28347" lon="7.26111">
        <ele>1531.52</ele>
        <time>2021-01-26T12:28:04Z</time>
      </trkpt>
      <trkpt lat="44.28353" lon="7.26124">
        <ele>1525.75</ele>
        <time>2021-01-26T12:28:12Z</time>
      </trkpt>
      <trkpt lat="44.28353" lon="7.26125">
        <ele>1525.27</ele>
        <time>2021-01-26T12:28:26Z</time>
      </trkpt>
      <trkpt lat="44.28354" lon="7.26127">
        <ele>1525.75</ele>
        <time>2021-01-26T12:28:31Z</time>
      </trkpt>
      <trkpt lat="44.28366" lon="7.26134">
        <ele>1522.87</ele>
        <time>2021-01-26T12:28:37Z</time>
      </trkpt>
      <trkpt lat="44.28378" lon="7.26141">
        <ele>1514.69</ele>
        <time>2021-01-26T12:28:45Z</time>
      </trkpt>
      <trkpt lat="44.28382" lon="7.26142">
        <ele>1512.77</ele>
        <time>2021-01-26T12:28:47Z</time>
      </trkpt>
      <trkpt lat="44.28388" lon="7.26156">
        <ele>1505.56</ele>
        <time>2021-01-26T12:28:53Z</time>
      </trkpt>
      <trkpt lat="44.28389" lon="7.2616">
        <ele>1503.16</ele>
        <time>2021-01-26T12:28:55Z</time>
      </trkpt>
      <trkpt lat="44.28389" lon="7.26164">
        <ele>1495.95</ele>
        <time>2021-01-26T12:29:05Z</time>
      </trkpt>
      <trkpt lat="44.28388" lon="7.26162">
        <ele>1496.91</ele>
        <time>2021-01-26T12:29:22Z</time>
      </trkpt>
      <trkpt lat="44.28393" lon="7.26162">
        <ele>1504.12</ele>
        <time>2021-01-26T12:29:39Z</time>
      </trkpt>
      <trkpt lat="44.28396" lon="7.26166">
        <ele>1511.33</ele>
        <time>2021-01-26T12:30:00Z</time>
      </trkpt>
      <trkpt lat="44.28396" lon="7.26166">
        <ele>1518.06</ele>
        <time>2021-01-26T12:30:28Z</time>
      </trkpt>
      <trkpt lat="44.28401" lon="7.26171">
        <ele>1521.42</ele>
        <time>2021-01-26T12:30:49Z</time>
      </trkpt>
      <trkpt lat="44.28401" lon="7.26169">
        <ele>1522.87</ele>
        <time>2021-01-26T12:30:57Z</time>
      </trkpt>
      <trkpt lat="44.28403" lon="7.26166">
        <ele>1521.9</ele>
        <time>2021-01-26T12:31:02Z</time>
      </trkpt>
      <trkpt lat="44.28405" lon="7.26163">
        <ele>1520.94</ele>
        <time>2021-01-26T12:31:05Z</time>
      </trkpt>
      <trkpt lat="44.28414" lon="7.26186">
        <ele>1516.62</ele>
        <time>2021-01-26T12:31:15Z</time>
      </trkpt>
      <trkpt lat="44.28418" lon="7.26201">
        <ele>1512.29</ele>
        <time>2021-01-26T12:31:21Z</time>
      </trkpt>
      <trkpt lat="44.28422" lon="7.26211">
        <ele>1509.89</ele>
        <time>2021-01-26T12:31:25Z</time>
      </trkpt>
      <trkpt lat="44.28425" lon="7.26216">
        <ele>1507.48</ele>
        <time>2021-01-26T12:31:30Z</time>
      </trkpt>
      <trkpt lat="44.28432" lon="7.26216">
        <ele>1503.64</ele>
        <time>2021-01-26T12:31:36Z</time>
      </trkpt>
      <trkpt lat="44.28441" lon="7.26219">
        <ele>1498.83</ele>
        <time>2021-01-26T12:31:43Z</time>
      </trkpt>
      <trkpt lat="44.28441" lon="7.26219">
        <ele>1497.87</ele>
        <time>2021-01-26T12:31:44Z</time>
      </trkpt>
      <trkpt lat="44.28443" lon="7.26228">
        <ele>1493.06</ele>
        <time>2021-01-26T12:31:52Z</time>
      </trkpt>
      <trkpt lat="44.28444" lon="7.26233">
        <ele>1490.66</ele>
        <time>2021-01-26T12:31:55Z</time>
      </trkpt>
      <trkpt lat="44.28449" lon="7.26239">
        <ele>1488.74</ele>
        <time>2021-01-26T12:31:58Z</time>
      </trkpt>
      <trkpt lat="44.28458" lon="7.26259">
        <ele>1483.93</ele>
        <time>2021-01-26T12:32:05Z</time>
      </trkpt>
      <trkpt lat="44.28463" lon="7.2627">
        <ele>1483.93</ele>
        <time>2021-01-26T12:32:08Z</time>
      </trkpt>
      <trkpt lat="44.28481" lon="7.26288">
        <ele>1483.93</ele>
        <time>2021-01-26T12:32:13Z</time>
      </trkpt>
      <trkpt lat="44.28488" lon="7.26301">
        <ele>1485.85</ele>
        <time>2021-01-26T12:32:23Z</time>
      </trkpt>
      <trkpt lat="44.28489" lon="7.263">
        <ele>1485.85</ele>
        <time>2021-01-26T12:32:39Z</time>
      </trkpt>
      <trkpt lat="44.28501" lon="7.26285">
        <ele>1483.45</ele>
        <time>2021-01-26T12:32:47Z</time>
      </trkpt>
      <trkpt lat="44.28523" lon="7.26283">
        <ele>1475.76</ele>
        <time>2021-01-26T12:32:56Z</time>
      </trkpt>
      <trkpt lat="44.28523" lon="7.26281">
        <ele>1475.28</ele>
        <time>2021-01-26T12:32:57Z</time>
      </trkpt>
      <trkpt lat="44.28532" lon="7.26259">
        <ele>1469.03</ele>
        <time>2021-01-26T12:33:04Z</time>
      </trkpt>
      <trkpt lat="44.28535" lon="7.26259">
        <ele>1468.55</ele>
        <time>2021-01-26T12:33:05Z</time>
      </trkpt>
      <trkpt lat="44.28537" lon="7.26261">
        <ele>1467.59</ele>
        <time>2021-01-26T12:33:06Z</time>
      </trkpt>
      <trkpt lat="44.28539" lon="7.26263">
        <ele>1467.11</ele>
        <time>2021-01-26T12:33:07Z</time>
      </trkpt>
      <trkpt lat="44.28538" lon="7.2626">
        <ele>1459.9</ele>
        <time>2021-01-26T12:33:18Z</time>
      </trkpt>
      <trkpt lat="44.28554" lon="7.2627">
        <ele>1457.5</ele>
        <time>2021-01-26T12:33:31Z</time>
      </trkpt>
      <trkpt lat="44.28582" lon="7.26287">
        <ele>1453.17</ele>
        <time>2021-01-26T12:33:45Z</time>
      </trkpt>
      <trkpt lat="44.28591" lon="7.26299">
        <ele>1444.52</ele>
        <time>2021-01-26T12:34:00Z</time>
      </trkpt>
      <trkpt lat="44.28605" lon="7.26314">
        <ele>1440.19</ele>
        <time>2021-01-26T12:34:13Z</time>
      </trkpt>
      <trkpt lat="44.28607" lon="7.26319">
        <ele>1439.71</ele>
        <time>2021-01-26T12:34:14Z</time>
      </trkpt>
      <trkpt lat="44.28608" lon="7.26324">
        <ele>1439.71</ele>
        <time>2021-01-26T12:34:15Z</time>
      </trkpt>
      <trkpt lat="44.28609" lon="7.26329">
        <ele>1439.23</ele>
        <time>2021-01-26T12:34:16Z</time>
      </trkpt>
      <trkpt lat="44.28609" lon="7.26334">
        <ele>1439.23</ele>
        <time>2021-01-26T12:34:17Z</time>
      </trkpt>
      <trkpt lat="44.2861" lon="7.26339">
        <ele>1438.75</ele>
        <time>2021-01-26T12:34:18Z</time>
      </trkpt>
      <trkpt lat="44.28613" lon="7.26343">
        <ele>1438.75</ele>
        <time>2021-01-26T12:34:19Z</time>
      </trkpt>
      <trkpt lat="44.28615" lon="7.26345">
        <ele>1439.23</ele>
        <time>2021-01-26T12:34:20Z</time>
      </trkpt>
      <trkpt lat="44.28626" lon="7.26357">
        <ele>1441.63</ele>
        <time>2021-01-26T12:34:30Z</time>
      </trkpt>
      <trkpt lat="44.28633" lon="7.26369">
        <ele>1448.36</ele>
        <time>2021-01-26T12:34:41Z</time>
      </trkpt>
      <trkpt lat="44.28634" lon="7.26389">
        <ele>1448.84</ele>
        <time>2021-01-26T12:34:46Z</time>
      </trkpt>
      <trkpt lat="44.28635" lon="7.26395">
        <ele>1448.84</ele>
        <time>2021-01-26T12:34:47Z</time>
      </trkpt>
      <trkpt lat="44.28635" lon="7.264">
        <ele>1448.84</ele>
        <time>2021-01-26T12:34:48Z</time>
      </trkpt>
      <trkpt lat="44.28634" lon="7.26404">
        <ele>1448.36</ele>
        <time>2021-01-26T12:34:49Z</time>
      </trkpt>
      <trkpt lat="44.28633" lon="7.26408">
        <ele>1447.88</ele>
        <time>2021-01-26T12:34:50Z</time>
      </trkpt>
      <trkpt lat="44.28631" lon="7.26413">
        <ele>1447.4</ele>
        <time>2021-01-26T12:34:51Z</time>
      </trkpt>
      <trkpt lat="44.28629" lon="7.26418">
        <ele>1446.44</ele>
        <time>2021-01-26T12:34:52Z</time>
      </trkpt>
      <trkpt lat="44.28627" lon="7.26421">
        <ele>1445.96</ele>
        <time>2021-01-26T12:34:53Z</time>
      </trkpt>
      <trkpt lat="44.28621" lon="7.26429">
        <ele>1444.52</ele>
        <time>2021-01-26T12:34:55Z</time>
      </trkpt>
      <trkpt lat="44.28618" lon="7.26435">
        <ele>1443.56</ele>
        <time>2021-01-26T12:34:56Z</time>
      </trkpt>
      <trkpt lat="44.28615" lon="7.26444">
        <ele>1442.6</ele>
        <time>2021-01-26T12:34:57Z</time>
      </trkpt>
      <trkpt lat="44.28613" lon="7.26456">
        <ele>1441.15</ele>
        <time>2021-01-26T12:34:58Z</time>
      </trkpt>
      <trkpt lat="44.28612" lon="7.26467">
        <ele>1440.19</ele>
        <time>2021-01-26T12:34:59Z</time>
      </trkpt>
      <trkpt lat="44.28612" lon="7.26478">
        <ele>1439.71</ele>
        <time>2021-01-26T12:35:00Z</time>
      </trkpt>
      <trkpt lat="44.28613" lon="7.2649">
        <ele>1439.23</ele>
        <time>2021-01-26T12:35:01Z</time>
      </trkpt>
      <trkpt lat="44.28615" lon="7.26501">
        <ele>1438.27</ele>
        <time>2021-01-26T12:35:02Z</time>
      </trkpt>
      <trkpt lat="44.28617" lon="7.2651">
        <ele>1437.79</ele>
        <time>2021-01-26T12:35:03Z</time>
      </trkpt>
      <trkpt lat="44.28619" lon="7.26519">
        <ele>1436.83</ele>
        <time>2021-01-26T12:35:04Z</time>
      </trkpt>
      <trkpt lat="44.28621" lon="7.26524">
        <ele>1435.87</ele>
        <time>2021-01-26T12:35:05Z</time>
      </trkpt>
      <trkpt lat="44.28623" lon="7.26528">
        <ele>1435.39</ele>
        <time>2021-01-26T12:35:06Z</time>
      </trkpt>
      <trkpt lat="44.28628" lon="7.26557">
        <ele>1430.58</ele>
        <time>2021-01-26T12:35:16Z</time>
      </trkpt>
      <trkpt lat="44.28631" lon="7.26565">
        <ele>1432.98</ele>
        <time>2021-01-26T12:35:27Z</time>
      </trkpt>
      <trkpt lat="44.28633" lon="7.26582">
        <ele>1432.5</ele>
        <time>2021-01-26T12:35:33Z</time>
      </trkpt>
      <trkpt lat="44.2863" lon="7.26592">
        <ele>1430.58</ele>
        <time>2021-01-26T12:35:35Z</time>
      </trkpt>
      <trkpt lat="44.28623" lon="7.26607">
        <ele>1428.66</ele>
        <time>2021-01-26T12:35:37Z</time>
      </trkpt>
      <trkpt lat="44.28621" lon="7.26616">
        <ele>1427.7</ele>
        <time>2021-01-26T12:35:38Z</time>
      </trkpt>
      <trkpt lat="44.28621" lon="7.26623">
        <ele>1427.21</ele>
        <time>2021-01-26T12:35:39Z</time>
      </trkpt>
      <trkpt lat="44.2862" lon="7.26674">
        <ele>1421.45</ele>
        <time>2021-01-26T12:35:49Z</time>
      </trkpt>
      <trkpt lat="44.28617" lon="7.26715">
        <ele>1419.52</ele>
        <time>2021-01-26T12:35:57Z</time>
      </trkpt>
      <trkpt lat="44.2862" lon="7.26726">
        <ele>1421.45</ele>
        <time>2021-01-26T12:36:07Z</time>
      </trkpt>
      <trkpt lat="44.28621" lon="7.26727">
        <ele>1421.45</ele>
        <time>2021-01-26T12:36:08Z</time>
      </trkpt>
      <trkpt lat="44.28622" lon="7.26728">
        <ele>1421.45</ele>
        <time>2021-01-26T12:36:09Z</time>
      </trkpt>
      <trkpt lat="44.28623" lon="7.26728">
        <ele>1420.97</ele>
        <time>2021-01-26T12:36:10Z</time>
      </trkpt>
      <trkpt lat="44.28624" lon="7.26728">
        <ele>1420.97</ele>
        <time>2021-01-26T12:36:11Z</time>
      </trkpt>
      <trkpt lat="44.28625" lon="7.26728">
        <ele>1420.97</ele>
        <time>2021-01-26T12:36:12Z</time>
      </trkpt>
      <trkpt lat="44.28646" lon="7.26724">
        <ele>1424.33</ele>
        <time>2021-01-26T12:36:22Z</time>
      </trkpt>
      <trkpt lat="44.28677" lon="7.26709">
        <ele>1426.73</ele>
        <time>2021-01-26T12:36:34Z</time>
      </trkpt>
      <trkpt lat="44.2869" lon="7.26698">
        <ele>1426.73</ele>
        <time>2021-01-26T12:36:40Z</time>
      </trkpt>
      <trkpt lat="44.28694" lon="7.26696">
        <ele>1426.25</ele>
        <time>2021-01-26T12:36:41Z</time>
      </trkpt>
      <trkpt lat="44.28698" lon="7.26694">
        <ele>1426.25</ele>
        <time>2021-01-26T12:36:42Z</time>
      </trkpt>
      <trkpt lat="44.28724" lon="7.26686">
        <ele>1424.81</ele>
        <time>2021-01-26T12:36:52Z</time>
      </trkpt>
      <trkpt lat="44.28739" lon="7.26681">
        <ele>1424.33</ele>
        <time>2021-01-26T12:37:04Z</time>
      </trkpt>
      <trkpt lat="44.28742" lon="7.2668">
        <ele>1424.33</ele>
        <time>2021-01-26T12:37:06Z</time>
      </trkpt>
      <trkpt lat="44.28743" lon="7.26681">
        <ele>1423.85</ele>
        <time>2021-01-26T12:37:07Z</time>
      </trkpt>
      <trkpt lat="44.28761" lon="7.26687">
        <ele>1423.37</ele>
        <time>2021-01-26T12:37:19Z</time>
      </trkpt>
      <trkpt lat="44.2877" lon="7.26692">
        <ele>1423.37</ele>
        <time>2021-01-26T12:37:31Z</time>
      </trkpt>
      <trkpt lat="44.28783" lon="7.26692">
        <ele>1424.33</ele>
        <time>2021-01-26T12:37:48Z</time>
      </trkpt>
      <trkpt lat="44.28793" lon="7.26694">
        <ele>1426.25</ele>
        <time>2021-01-26T12:38:01Z</time>
      </trkpt>
      <trkpt lat="44.28806" lon="7.26699">
        <ele>1427.21</ele>
        <time>2021-01-26T12:38:16Z</time>
      </trkpt>
      <trkpt lat="44.28809" lon="7.26704">
        <ele>1428.18</ele>
        <time>2021-01-26T12:38:23Z</time>
      </trkpt>
      <trkpt lat="44.2881" lon="7.26707">
        <ele>1429.14</ele>
        <time>2021-01-26T12:38:25Z</time>
      </trkpt>
      <trkpt lat="44.28811" lon="7.26709">
        <ele>1429.14</ele>
        <time>2021-01-26T12:38:26Z</time>
      </trkpt>
      <trkpt lat="44.28812" lon="7.2671">
        <ele>1429.14</ele>
        <time>2021-01-26T12:38:27Z</time>
      </trkpt>
      <trkpt lat="44.28817" lon="7.26718">
        <ele>1428.66</ele>
        <time>2021-01-26T12:38:31Z</time>
      </trkpt>
      <trkpt lat="44.28825" lon="7.2672">
        <ele>1426.25</ele>
        <time>2021-01-26T12:38:43Z</time>
      </trkpt>
      <trkpt lat="44.28831" lon="7.26719">
        <ele>1426.73</ele>
        <time>2021-01-26T12:38:51Z</time>
      </trkpt>
      <trkpt lat="44.28847" lon="7.26718">
        <ele>1425.77</ele>
        <time>2021-01-26T12:39:03Z</time>
      </trkpt>
      <trkpt lat="44.28872" lon="7.26708">
        <ele>1423.37</ele>
        <time>2021-01-26T12:39:15Z</time>
      </trkpt>
      <trkpt lat="44.28903" lon="7.26699">
        <ele>1419.04</ele>
        <time>2021-01-26T12:39:26Z</time>
      </trkpt>
      <trkpt lat="44.28938" lon="7.26693">
        <ele>1411.35</ele>
        <time>2021-01-26T12:39:37Z</time>
      </trkpt>
      <trkpt lat="44.28946" lon="7.26692">
        <ele>1409.91</ele>
        <time>2021-01-26T12:39:39Z</time>
      </trkpt>
      <trkpt lat="44.2895" lon="7.26693">
        <ele>1409.43</ele>
        <time>2021-01-26T12:39:40Z</time>
      </trkpt>
      <trkpt lat="44.28954" lon="7.26696">
        <ele>1408.47</ele>
        <time>2021-01-26T12:39:41Z</time>
      </trkpt>
      <trkpt lat="44.28957" lon="7.26698">
        <ele>1407.51</ele>
        <time>2021-01-26T12:39:42Z</time>
      </trkpt>
      <trkpt lat="44.28961" lon="7.26701">
        <ele>1407.03</ele>
        <time>2021-01-26T12:39:43Z</time>
      </trkpt>
      <trkpt lat="44.28975" lon="7.26709">
        <ele>1404.62</ele>
        <time>2021-01-26T12:39:47Z</time>
      </trkpt>
      <trkpt lat="44.28979" lon="7.2671">
        <ele>1403.66</ele>
        <time>2021-01-26T12:39:48Z</time>
      </trkpt>
      <trkpt lat="44.28984" lon="7.26711">
        <ele>1402.7</ele>
        <time>2021-01-26T12:39:49Z</time>
      </trkpt>
      <trkpt lat="44.28993" lon="7.26715">
        <ele>1401.26</ele>
        <time>2021-01-26T12:39:51Z</time>
      </trkpt>
      <trkpt lat="44.28998" lon="7.26718">
        <ele>1400.3</ele>
        <time>2021-01-26T12:39:52Z</time>
      </trkpt>
      <trkpt lat="44.29002" lon="7.2672">
        <ele>1399.34</ele>
        <time>2021-01-26T12:39:53Z</time>
      </trkpt>
      <trkpt lat="44.29021" lon="7.26722">
        <ele>1394.05</ele>
        <time>2021-01-26T12:40:02Z</time>
      </trkpt>
      <trkpt lat="44.29023" lon="7.2672">
        <ele>1394.53</ele>
        <time>2021-01-26T12:40:21Z</time>
      </trkpt>
      <trkpt lat="44.29023" lon="7.26719">
        <ele>1399.82</ele>
        <time>2021-01-26T12:40:41Z</time>
      </trkpt>
      <trkpt lat="44.29025" lon="7.26716">
        <ele>1403.18</ele>
        <time>2021-01-26T12:41:07Z</time>
      </trkpt>
      <trkpt lat="44.29025" lon="7.26715">
        <ele>1405.1</ele>
        <time>2021-01-26T12:41:26Z</time>
      </trkpt>
      <trkpt lat="44.29029" lon="7.26714">
        <ele>1407.03</ele>
        <time>2021-01-26T12:41:48Z</time>
      </trkpt>
      <trkpt lat="44.29026" lon="7.26716">
        <ele>1408.95</ele>
        <time>2021-01-26T12:42:12Z</time>
      </trkpt>
      <trkpt lat="44.29027" lon="7.26712">
        <ele>1410.39</ele>
        <time>2021-01-26T12:42:31Z</time>
      </trkpt>
      <trkpt lat="44.2903" lon="7.26711">
        <ele>1410.39</ele>
        <time>2021-01-26T12:42:33Z</time>
      </trkpt>
      <trkpt lat="44.29056" lon="7.26714">
        <ele>1403.18</ele>
        <time>2021-01-26T12:42:43Z</time>
      </trkpt>
      <trkpt lat="44.29099" lon="7.26726">
        <ele>1396.93</ele>
        <time>2021-01-26T12:42:52Z</time>
      </trkpt>
      <trkpt lat="44.29109" lon="7.26727">
        <ele>1395.01</ele>
        <time>2021-01-26T12:42:54Z</time>
      </trkpt>
      <trkpt lat="44.29114" lon="7.26726">
        <ele>1394.05</ele>
        <time>2021-01-26T12:42:55Z</time>
      </trkpt>
      <trkpt lat="44.29119" lon="7.26724">
        <ele>1392.61</ele>
        <time>2021-01-26T12:42:56Z</time>
      </trkpt>
      <trkpt lat="44.29124" lon="7.26719">
        <ele>1391.17</ele>
        <time>2021-01-26T12:42:57Z</time>
      </trkpt>
      <trkpt lat="44.29128" lon="7.26715">
        <ele>1389.24</ele>
        <time>2021-01-26T12:42:58Z</time>
      </trkpt>
      <trkpt lat="44.29131" lon="7.26711">
        <ele>1388.28</ele>
        <time>2021-01-26T12:42:59Z</time>
      </trkpt>
      <trkpt lat="44.29136" lon="7.26703">
        <ele>1386.84</ele>
        <time>2021-01-26T12:43:01Z</time>
      </trkpt>
      <trkpt lat="44.29147" lon="7.26693">
        <ele>1383.96</ele>
        <time>2021-01-26T12:43:04Z</time>
      </trkpt>
      <trkpt lat="44.29188" lon="7.26655">
        <ele>1370.98</ele>
        <time>2021-01-26T12:43:16Z</time>
      </trkpt>
      <trkpt lat="44.29191" lon="7.2665">
        <ele>1369.54</ele>
        <time>2021-01-26T12:43:17Z</time>
      </trkpt>
      <trkpt lat="44.29193" lon="7.26644">
        <ele>1367.61</ele>
        <time>2021-01-26T12:43:18Z</time>
      </trkpt>
      <trkpt lat="44.29194" lon="7.26638">
        <ele>1366.17</ele>
        <time>2021-01-26T12:43:19Z</time>
      </trkpt>
      <trkpt lat="44.29194" lon="7.26632">
        <ele>1364.73</ele>
        <time>2021-01-26T12:43:20Z</time>
      </trkpt>
      <trkpt lat="44.29192" lon="7.26627">
        <ele>1363.29</ele>
        <time>2021-01-26T12:43:21Z</time>
      </trkpt>
      <trkpt lat="44.2919" lon="7.26622">
        <ele>1362.33</ele>
        <time>2021-01-26T12:43:22Z</time>
      </trkpt>
      <trkpt lat="44.29187" lon="7.26617">
        <ele>1360.4</ele>
        <time>2021-01-26T12:43:23Z</time>
      </trkpt>
      <trkpt lat="44.29184" lon="7.26609">
        <ele>1357.52</ele>
        <time>2021-01-26T12:43:25Z</time>
      </trkpt>
      <trkpt lat="44.29185" lon="7.26604">
        <ele>1356.08</ele>
        <time>2021-01-26T12:43:26Z</time>
      </trkpt>
      <trkpt lat="44.29186" lon="7.26602">
        <ele>1354.63</ele>
        <time>2021-01-26T12:43:27Z</time>
      </trkpt>
      <trkpt lat="44.29189" lon="7.26601">
        <ele>1349.83</ele>
        <time>2021-01-26T12:43:31Z</time>
      </trkpt>
      <trkpt lat="44.29191" lon="7.26602">
        <ele>1348.39</ele>
        <time>2021-01-26T12:43:32Z</time>
      </trkpt>
      <trkpt lat="44.29192" lon="7.26604">
        <ele>1346.94</ele>
        <time>2021-01-26T12:43:33Z</time>
      </trkpt>
      <trkpt lat="44.29195" lon="7.26605">
        <ele>1345.5</ele>
        <time>2021-01-26T12:43:34Z</time>
      </trkpt>
      <trkpt lat="44.29198" lon="7.26606">
        <ele>1344.06</ele>
        <time>2021-01-26T12:43:35Z</time>
      </trkpt>
      <trkpt lat="44.29201" lon="7.26606">
        <ele>1342.62</ele>
        <time>2021-01-26T12:43:36Z</time>
      </trkpt>
      <trkpt lat="44.29206" lon="7.26605">
        <ele>1338.77</ele>
        <time>2021-01-26T12:43:39Z</time>
      </trkpt>
      <trkpt lat="44.29207" lon="7.26604">
        <ele>1337.33</ele>
        <time>2021-01-26T12:43:40Z</time>
      </trkpt>
      <trkpt lat="44.29209" lon="7.26602">
        <ele>1336.37</ele>
        <time>2021-01-26T12:43:41Z</time>
      </trkpt>
      <trkpt lat="44.2921" lon="7.26601">
        <ele>1334.93</ele>
        <time>2021-01-26T12:43:42Z</time>
      </trkpt>
      <trkpt lat="44.29212" lon="7.26599">
        <ele>1333.97</ele>
        <time>2021-01-26T12:43:43Z</time>
      </trkpt>
      <trkpt lat="44.29214" lon="7.26597">
        <ele>1332.52</ele>
        <time>2021-01-26T12:43:44Z</time>
      </trkpt>
      <trkpt lat="44.29217" lon="7.26595">
        <ele>1332.04</ele>
        <time>2021-01-26T12:43:45Z</time>
      </trkpt>
      <trkpt lat="44.2922" lon="7.26592">
        <ele>1331.08</ele>
        <time>2021-01-26T12:43:46Z</time>
      </trkpt>
      <trkpt lat="44.29254" lon="7.26565">
        <ele>1332.04</ele>
        <time>2021-01-26T12:43:57Z</time>
      </trkpt>
      <trkpt lat="44.29291" lon="7.26512">
        <ele>1328.68</ele>
        <time>2021-01-26T12:44:10Z</time>
      </trkpt>
      <trkpt lat="44.29292" lon="7.26506">
        <ele>1327.72</ele>
        <time>2021-01-26T12:44:11Z</time>
      </trkpt>
      <trkpt lat="44.29293" lon="7.26501">
        <ele>1327.24</ele>
        <time>2021-01-26T12:44:12Z</time>
      </trkpt>
      <trkpt lat="44.29294" lon="7.26496">
        <ele>1326.76</ele>
        <time>2021-01-26T12:44:13Z</time>
      </trkpt>
      <trkpt lat="44.29296" lon="7.26491">
        <ele>1325.8</ele>
        <time>2021-01-26T12:44:14Z</time>
      </trkpt>
      <trkpt lat="44.29298" lon="7.26487">
        <ele>1325.31</ele>
        <time>2021-01-26T12:44:15Z</time>
      </trkpt>
      <trkpt lat="44.293" lon="7.26483">
        <ele>1324.83</ele>
        <time>2021-01-26T12:44:16Z</time>
      </trkpt>
      <trkpt lat="44.29302" lon="7.26478">
        <ele>1324.35</ele>
        <time>2021-01-26T12:44:17Z</time>
      </trkpt>
      <trkpt lat="44.29305" lon="7.26473">
        <ele>1323.87</ele>
        <time>2021-01-26T12:44:18Z</time>
      </trkpt>
      <trkpt lat="44.2931" lon="7.26464">
        <ele>1322.43</ele>
        <time>2021-01-26T12:44:20Z</time>
      </trkpt>
      <trkpt lat="44.29333" lon="7.26436">
        <ele>1316.66</ele>
        <time>2021-01-26T12:44:26Z</time>
      </trkpt>
      <trkpt lat="44.29338" lon="7.26432">
        <ele>1316.18</ele>
        <time>2021-01-26T12:44:27Z</time>
      </trkpt>
      <trkpt lat="44.2935" lon="7.26427">
        <ele>1314.74</ele>
        <time>2021-01-26T12:44:29Z</time>
      </trkpt>
      <trkpt lat="44.29354" lon="7.26423">
        <ele>1314.26</ele>
        <time>2021-01-26T12:44:30Z</time>
      </trkpt>
      <trkpt lat="44.29358" lon="7.26417">
        <ele>1314.26</ele>
        <time>2021-01-26T12:44:31Z</time>
      </trkpt>
      <trkpt lat="44.29361" lon="7.26412">
        <ele>1313.78</ele>
        <time>2021-01-26T12:44:32Z</time>
      </trkpt>
      <trkpt lat="44.29365" lon="7.26406">
        <ele>1313.3</ele>
        <time>2021-01-26T12:44:33Z</time>
      </trkpt>
      <trkpt lat="44.29404" lon="7.26317">
        <ele>1302.72</ele>
        <time>2021-01-26T12:44:46Z</time>
      </trkpt>
      <trkpt lat="44.29411" lon="7.263">
        <ele>1301.28</ele>
        <time>2021-01-26T12:44:48Z</time>
      </trkpt>
      <trkpt lat="44.2942" lon="7.26284">
        <ele>1299.84</ele>
        <time>2021-01-26T12:44:50Z</time>
      </trkpt>
      <trkpt lat="44.29425" lon="7.26276">
        <ele>1299.36</ele>
        <time>2021-01-26T12:44:51Z</time>
      </trkpt>
      <trkpt lat="44.2946" lon="7.26224">
        <ele>1297.44</ele>
        <time>2021-01-26T12:45:01Z</time>
      </trkpt>
      <trkpt lat="44.29481" lon="7.26194">
        <ele>1295.99</ele>
        <time>2021-01-26T12:45:11Z</time>
      </trkpt>
      <trkpt lat="44.29483" lon="7.26192">
        <ele>1295.99</ele>
        <time>2021-01-26T12:45:12Z</time>
      </trkpt>
      <trkpt lat="44.29485" lon="7.2619">
        <ele>1295.99</ele>
        <time>2021-01-26T12:45:13Z</time>
      </trkpt>
      <trkpt lat="44.29495" lon="7.26185">
        <ele>1295.99</ele>
        <time>2021-01-26T12:45:17Z</time>
      </trkpt>
      <trkpt lat="44.29498" lon="7.26183">
        <ele>1295.99</ele>
        <time>2021-01-26T12:45:18Z</time>
      </trkpt>
      <trkpt lat="44.295" lon="7.26182">
        <ele>1295.99</ele>
        <time>2021-01-26T12:45:19Z</time>
      </trkpt>
      <trkpt lat="44.29503" lon="7.26181">
        <ele>1295.51</ele>
        <time>2021-01-26T12:45:20Z</time>
      </trkpt>
      <trkpt lat="44.29506" lon="7.26181">
        <ele>1295.51</ele>
        <time>2021-01-26T12:45:21Z</time>
      </trkpt>
      <trkpt lat="44.29508" lon="7.2618">
        <ele>1295.51</ele>
        <time>2021-01-26T12:45:22Z</time>
      </trkpt>
      <trkpt lat="44.29514" lon="7.26179">
        <ele>1295.99</ele>
        <time>2021-01-26T12:45:24Z</time>
      </trkpt>
      <trkpt lat="44.29516" lon="7.2618">
        <ele>1295.99</ele>
        <time>2021-01-26T12:45:25Z</time>
      </trkpt>
      <trkpt lat="44.29518" lon="7.2618">
        <ele>1295.99</ele>
        <time>2021-01-26T12:45:26Z</time>
      </trkpt>
      <trkpt lat="44.2952" lon="7.2618">
        <ele>1296.48</ele>
        <time>2021-01-26T12:45:27Z</time>
      </trkpt>
      <trkpt lat="44.29522" lon="7.26179">
        <ele>1296.96</ele>
        <time>2021-01-26T12:45:37Z</time>
      </trkpt>
      <trkpt lat="44.29522" lon="7.26178">
        <ele>1295.99</ele>
        <time>2021-01-26T12:45:56Z</time>
      </trkpt>
      <trkpt lat="44.29524" lon="7.26178">
        <ele>1296.48</ele>
        <time>2021-01-26T12:46:06Z</time>
      </trkpt>
      <trkpt lat="44.29523" lon="7.26178">
        <ele>1295.99</ele>
        <time>2021-01-26T12:46:32Z</time>
      </trkpt>
      <trkpt lat="44.29523" lon="7.26178">
        <ele>1295.99</ele>
        <time>2021-01-26T12:46:57Z</time>
      </trkpt>
      <trkpt lat="44.29523" lon="7.26178">
        <ele>1296.48</ele>
        <time>2021-01-26T12:47:09Z</time>
      </trkpt>
      <trkpt lat="44.29524" lon="7.2618">
        <ele>1297.92</ele>
        <time>2021-01-26T12:47:22Z</time>
      </trkpt>
      <trkpt lat="44.29524" lon="7.2618">
        <ele>1297.92</ele>
        <time>2021-01-26T12:47:33Z</time>
      </trkpt>
      <trkpt lat="44.29523" lon="7.2618">
        <ele>1298.4</ele>
        <time>2021-01-26T12:47:55Z</time>
      </trkpt>
      <trkpt lat="44.29523" lon="7.2618">
        <ele>1297.92</ele>
        <time>2021-01-26T12:48:11Z</time>
      </trkpt>
      <trkpt lat="44.29523" lon="7.26179">
        <ele>1297.44</ele>
        <time>2021-01-26T12:48:27Z</time>
      </trkpt>
      <trkpt lat="44.29524" lon="7.26179">
        <ele>1297.92</ele>
        <time>2021-01-26T12:48:40Z</time>
      </trkpt>
      <trkpt lat="44.29524" lon="7.26179">
        <ele>1296.96</ele>
        <time>2021-01-26T12:49:02Z</time>
      </trkpt>
      <trkpt lat="44.29525" lon="7.2618">
        <ele>1297.44</ele>
        <time>2021-01-26T12:49:19Z</time>
      </trkpt>
      <trkpt lat="44.29525" lon="7.26181">
        <ele>1296.96</ele>
        <time>2021-01-26T12:49:41Z</time>
      </trkpt>
      <trkpt lat="44.29524" lon="7.26181">
        <ele>1296.48</ele>
        <time>2021-01-26T12:49:55Z</time>
      </trkpt>
      <trkpt lat="44.29526" lon="7.26182">
        <ele>1296.48</ele>
        <time>2021-01-26T12:50:04Z</time>
      </trkpt>
      <trkpt lat="44.29536" lon="7.26187">
        <ele>1297.44</ele>
        <time>2021-01-26T12:50:20Z</time>
      </trkpt>
      <trkpt lat="44.29537" lon="7.26188">
        <ele>1297.44</ele>
        <time>2021-01-26T12:50:21Z</time>
      </trkpt>
      <trkpt lat="44.29539" lon="7.26189">
        <ele>1297.44</ele>
        <time>2021-01-26T12:50:22Z</time>
      </trkpt>
      <trkpt lat="44.2954" lon="7.2619">
        <ele>1296.96</ele>
        <time>2021-01-26T12:50:23Z</time>
      </trkpt>
      <trkpt lat="44.29542" lon="7.26191">
        <ele>1296.96</ele>
        <time>2021-01-26T12:50:24Z</time>
      </trkpt>
      <trkpt lat="44.29563" lon="7.26203">
        <ele>1294.07</ele>
        <time>2021-01-26T12:50:37Z</time>
      </trkpt>
      <trkpt lat="44.29594" lon="7.26234">
        <ele>1290.23</ele>
        <time>2021-01-26T12:50:49Z</time>
      </trkpt>
      <trkpt lat="44.29617" lon="7.26284">
        <ele>1289.75</ele>
        <time>2021-01-26T12:51:02Z</time>
      </trkpt>
      <trkpt lat="44.29628" lon="7.26319">
        <ele>1288.3</ele>
        <time>2021-01-26T12:51:13Z</time>
      </trkpt>
      <trkpt lat="44.29634" lon="7.26342">
        <ele>1289.27</ele>
        <time>2021-01-26T12:51:22Z</time>
      </trkpt>
      <trkpt lat="44.29644" lon="7.26381">
        <ele>1287.34</ele>
        <time>2021-01-26T12:51:35Z</time>
      </trkpt>
      <trkpt lat="44.29649" lon="7.26411">
        <ele>1289.75</ele>
        <time>2021-01-26T12:51:47Z</time>
      </trkpt>
      <trkpt lat="44.29651" lon="7.26439">
        <ele>1290.71</ele>
        <time>2021-01-26T12:52:01Z</time>
      </trkpt>
      <trkpt lat="44.29653" lon="7.26455">
        <ele>1292.63</ele>
        <time>2021-01-26T12:52:08Z</time>
      </trkpt>
      <trkpt lat="44.29654" lon="7.26457">
        <ele>1293.11</ele>
        <time>2021-01-26T12:52:09Z</time>
      </trkpt>
      <trkpt lat="44.29654" lon="7.26459">
        <ele>1293.59</ele>
        <time>2021-01-26T12:52:10Z</time>
      </trkpt>
      <trkpt lat="44.29654" lon="7.26462">
        <ele>1294.07</ele>
        <time>2021-01-26T12:52:11Z</time>
      </trkpt>
      <trkpt lat="44.29655" lon="7.26465">
        <ele>1294.07</ele>
        <time>2021-01-26T12:52:12Z</time>
      </trkpt>
      <trkpt lat="44.29655" lon="7.26467">
        <ele>1294.07</ele>
        <time>2021-01-26T12:52:13Z</time>
      </trkpt>
      <trkpt lat="44.29655" lon="7.2647">
        <ele>1294.07</ele>
        <time>2021-01-26T12:52:14Z</time>
      </trkpt>
      <trkpt lat="44.29655" lon="7.26472">
        <ele>1294.55</ele>
        <time>2021-01-26T12:52:15Z</time>
      </trkpt>
      <trkpt lat="44.29653" lon="7.26492">
        <ele>1295.99</ele>
        <time>2021-01-26T12:52:27Z</time>
      </trkpt>
      <trkpt lat="44.29654" lon="7.26507">
        <ele>1295.99</ele>
        <time>2021-01-26T12:52:36Z</time>
      </trkpt>
      <trkpt lat="44.29655" lon="7.26509">
        <ele>1296.48</ele>
        <time>2021-01-26T12:52:37Z</time>
      </trkpt>
      <trkpt lat="44.29661" lon="7.26519">
        <ele>1295.51</ele>
        <time>2021-01-26T12:52:45Z</time>
      </trkpt>
      <trkpt lat="44.29661" lon="7.2652">
        <ele>1295.03</ele>
        <time>2021-01-26T12:52:46Z</time>
      </trkpt>
      <trkpt lat="44.29662" lon="7.26521">
        <ele>1295.03</ele>
        <time>2021-01-26T12:52:47Z</time>
      </trkpt>
      <trkpt lat="44.29663" lon="7.26522">
        <ele>1294.55</ele>
        <time>2021-01-26T12:52:48Z</time>
      </trkpt>
      <trkpt lat="44.29664" lon="7.26524">
        <ele>1294.07</ele>
        <time>2021-01-26T12:52:49Z</time>
      </trkpt>
      <trkpt lat="44.29666" lon="7.26527">
        <ele>1293.59</ele>
        <time>2021-01-26T12:52:53Z</time>
      </trkpt>
      <trkpt lat="44.29667" lon="7.26529">
        <ele>1293.59</ele>
        <time>2021-01-26T12:52:54Z</time>
      </trkpt>
      <trkpt lat="44.29674" lon="7.2654">
        <ele>1291.67</ele>
        <time>2021-01-26T12:53:04Z</time>
      </trkpt>
      <trkpt lat="44.2968" lon="7.2656">
        <ele>1289.27</ele>
        <time>2021-01-26T12:53:20Z</time>
      </trkpt>
      <trkpt lat="44.29683" lon="7.26564">
        <ele>1291.19</ele>
        <time>2021-01-26T12:53:33Z</time>
      </trkpt>
      <trkpt lat="44.29684" lon="7.26569">
        <ele>1291.19</ele>
        <time>2021-01-26T12:53:38Z</time>
      </trkpt>
      <trkpt lat="44.29685" lon="7.26572">
        <ele>1291.19</ele>
        <time>2021-01-26T12:53:40Z</time>
      </trkpt>
      <trkpt lat="44.29685" lon="7.26573">
        <ele>1291.19</ele>
        <time>2021-01-26T12:53:41Z</time>
      </trkpt>
      <trkpt lat="44.29686" lon="7.26577">
        <ele>1291.67</ele>
        <time>2021-01-26T12:53:43Z</time>
      </trkpt>
      <trkpt lat="44.29687" lon="7.26578">
        <ele>1291.67</ele>
        <time>2021-01-26T12:53:44Z</time>
      </trkpt>
      <trkpt lat="44.29689" lon="7.26592">
        <ele>1292.63</ele>
        <time>2021-01-26T12:53:53Z</time>
      </trkpt>
      <trkpt lat="44.29689" lon="7.26594">
        <ele>1292.63</ele>
        <time>2021-01-26T12:53:54Z</time>
      </trkpt>
      <trkpt lat="44.29689" lon="7.26596">
        <ele>1292.63</ele>
        <time>2021-01-26T12:53:55Z</time>
      </trkpt>
      <trkpt lat="44.29688" lon="7.26602">
        <ele>1292.63</ele>
        <time>2021-01-26T12:53:59Z</time>
      </trkpt>
      <trkpt lat="44.29688" lon="7.26604">
        <ele>1292.63</ele>
        <time>2021-01-26T12:54:00Z</time>
      </trkpt>
      <trkpt lat="44.29688" lon="7.26607">
        <ele>1292.15</ele>
        <time>2021-01-26T12:54:02Z</time>
      </trkpt>
      <trkpt lat="44.29688" lon="7.26609">
        <ele>1292.15</ele>
        <time>2021-01-26T12:54:03Z</time>
      </trkpt>
      <trkpt lat="44.29687" lon="7.2661">
        <ele>1291.67</ele>
        <time>2021-01-26T12:54:04Z</time>
      </trkpt>
      <trkpt lat="44.29678" lon="7.2664">
        <ele>1290.71</ele>
        <time>2021-01-26T12:54:17Z</time>
      </trkpt>
      <trkpt lat="44.29664" lon="7.26699">
        <ele>1287.34</ele>
        <time>2021-01-26T12:54:28Z</time>
      </trkpt>
      <trkpt lat="44.29664" lon="7.26704">
        <ele>1286.86</ele>
        <time>2021-01-26T12:54:29Z</time>
      </trkpt>
      <trkpt lat="44.29664" lon="7.26709">
        <ele>1286.86</ele>
        <time>2021-01-26T12:54:30Z</time>
      </trkpt>
      <trkpt lat="44.29668" lon="7.26732">
        <ele>1285.42</ele>
        <time>2021-01-26T12:54:38Z</time>
      </trkpt>
      <trkpt lat="44.29668" lon="7.26734">
        <ele>1285.9</ele>
        <time>2021-01-26T12:54:39Z</time>
      </trkpt>
      <trkpt lat="44.29653" lon="7.2676">
        <ele>1283.98</ele>
        <time>2021-01-26T12:54:53Z</time>
      </trkpt>
      <trkpt lat="44.29641" lon="7.26793">
        <ele>1280.61</ele>
        <time>2021-01-26T12:55:06Z</time>
      </trkpt>
      <trkpt lat="44.29645" lon="7.2684">
        <ele>1280.61</ele>
        <time>2021-01-26T12:55:18Z</time>
      </trkpt>
      <trkpt lat="44.29674" lon="7.26892">
        <ele>1276.77</ele>
        <time>2021-01-26T12:55:30Z</time>
      </trkpt>
      <trkpt lat="44.29706" lon="7.26933">
        <ele>1275.81</ele>
        <time>2021-01-26T12:55:39Z</time>
      </trkpt>
      <trkpt lat="44.29709" lon="7.26938">
        <ele>1275.81</ele>
        <time>2021-01-26T12:55:40Z</time>
      </trkpt>
      <trkpt lat="44.2972" lon="7.26965">
        <ele>1273.4</ele>
        <time>2021-01-26T12:55:45Z</time>
      </trkpt>
      <trkpt lat="44.29722" lon="7.26971">
        <ele>1273.4</ele>
        <time>2021-01-26T12:55:46Z</time>
      </trkpt>
      <trkpt lat="44.29722" lon="7.26977">
        <ele>1273.4</ele>
        <time>2021-01-26T12:55:47Z</time>
      </trkpt>
      <trkpt lat="44.29722" lon="7.26985">
        <ele>1273.4</ele>
        <time>2021-01-26T12:55:48Z</time>
      </trkpt>
      <trkpt lat="44.29721" lon="7.26992">
        <ele>1272.92</ele>
        <time>2021-01-26T12:55:49Z</time>
      </trkpt>
      <trkpt lat="44.2972" lon="7.27">
        <ele>1272.92</ele>
        <time>2021-01-26T12:55:50Z</time>
      </trkpt>
      <trkpt lat="44.29718" lon="7.27009">
        <ele>1272.44</ele>
        <time>2021-01-26T12:55:51Z</time>
      </trkpt>
      <trkpt lat="44.29715" lon="7.27017">
        <ele>1271.96</ele>
        <time>2021-01-26T12:55:52Z</time>
      </trkpt>
      <trkpt lat="44.29698" lon="7.27072">
        <ele>1266.67</ele>
        <time>2021-01-26T12:55:59Z</time>
      </trkpt>
      <trkpt lat="44.29698" lon="7.27078">
        <ele>1266.19</ele>
        <time>2021-01-26T12:56:00Z</time>
      </trkpt>
      <trkpt lat="44.29699" lon="7.27087">
        <ele>1265.23</ele>
        <time>2021-01-26T12:56:01Z</time>
      </trkpt>
      <trkpt lat="44.297" lon="7.27095">
        <ele>1264.75</ele>
        <time>2021-01-26T12:56:02Z</time>
      </trkpt>
      <trkpt lat="44.29702" lon="7.27103">
        <ele>1264.27</ele>
        <time>2021-01-26T12:56:03Z</time>
      </trkpt>
      <trkpt lat="44.29702" lon="7.27111">
        <ele>1263.31</ele>
        <time>2021-01-26T12:56:04Z</time>
      </trkpt>
      <trkpt lat="44.29701" lon="7.27119">
        <ele>1262.35</ele>
        <time>2021-01-26T12:56:05Z</time>
      </trkpt>
      <trkpt lat="44.29698" lon="7.27125">
        <ele>1261.87</ele>
        <time>2021-01-26T12:56:06Z</time>
      </trkpt>
      <trkpt lat="44.2969" lon="7.27138">
        <ele>1259.94</ele>
        <time>2021-01-26T12:56:08Z</time>
      </trkpt>
      <trkpt lat="44.29688" lon="7.27146">
        <ele>1259.46</ele>
        <time>2021-01-26T12:56:09Z</time>
      </trkpt>
      <trkpt lat="44.29686" lon="7.27153">
        <ele>1258.5</ele>
        <time>2021-01-26T12:56:10Z</time>
      </trkpt>
      <trkpt lat="44.29686" lon="7.27161">
        <ele>1258.02</ele>
        <time>2021-01-26T12:56:11Z</time>
      </trkpt>
      <trkpt lat="44.29686" lon="7.27169">
        <ele>1258.02</ele>
        <time>2021-01-26T12:56:12Z</time>
      </trkpt>
      <trkpt lat="44.29687" lon="7.27177">
        <ele>1257.54</ele>
        <time>2021-01-26T12:56:13Z</time>
      </trkpt>
      <trkpt lat="44.29688" lon="7.27185">
        <ele>1257.06</ele>
        <time>2021-01-26T12:56:14Z</time>
      </trkpt>
      <trkpt lat="44.2969" lon="7.27193">
        <ele>1256.58</ele>
        <time>2021-01-26T12:56:15Z</time>
      </trkpt>
      <trkpt lat="44.2969" lon="7.27201">
        <ele>1256.1</ele>
        <time>2021-01-26T12:56:16Z</time>
      </trkpt>
      <trkpt lat="44.2969" lon="7.27209">
        <ele>1255.62</ele>
        <time>2021-01-26T12:56:17Z</time>
      </trkpt>
      <trkpt lat="44.2969" lon="7.27232">
        <ele>1255.14</ele>
        <time>2021-01-26T12:56:20Z</time>
      </trkpt>
      <trkpt lat="44.29691" lon="7.27239">
        <ele>1255.14</ele>
        <time>2021-01-26T12:56:21Z</time>
      </trkpt>
      <trkpt lat="44.29694" lon="7.27246">
        <ele>1254.66</ele>
        <time>2021-01-26T12:56:22Z</time>
      </trkpt>
      <trkpt lat="44.29697" lon="7.27252">
        <ele>1254.18</ele>
        <time>2021-01-26T12:56:23Z</time>
      </trkpt>
      <trkpt lat="44.297" lon="7.27258">
        <ele>1254.18</ele>
        <time>2021-01-26T12:56:24Z</time>
      </trkpt>
      <trkpt lat="44.29726" lon="7.27312">
        <ele>1252.25</ele>
        <time>2021-01-26T12:56:33Z</time>
      </trkpt>
      <trkpt lat="44.29728" lon="7.27318">
        <ele>1252.25</ele>
        <time>2021-01-26T12:56:34Z</time>
      </trkpt>
      <trkpt lat="44.29728" lon="7.27323">
        <ele>1252.74</ele>
        <time>2021-01-26T12:56:35Z</time>
      </trkpt>
      <trkpt lat="44.29732" lon="7.27353">
        <ele>1251.77</ele>
        <time>2021-01-26T12:56:41Z</time>
      </trkpt>
      <trkpt lat="44.29733" lon="7.27359">
        <ele>1251.77</ele>
        <time>2021-01-26T12:56:42Z</time>
      </trkpt>
      <trkpt lat="44.29735" lon="7.27366">
        <ele>1251.29</ele>
        <time>2021-01-26T12:56:43Z</time>
      </trkpt>
      <trkpt lat="44.29738" lon="7.27372">
        <ele>1250.81</ele>
        <time>2021-01-26T12:56:44Z</time>
      </trkpt>
      <trkpt lat="44.29742" lon="7.27379">
        <ele>1250.33</ele>
        <time>2021-01-26T12:56:45Z</time>
      </trkpt>
      <trkpt lat="44.29761" lon="7.27413">
        <ele>1248.89</ele>
        <time>2021-01-26T12:56:50Z</time>
      </trkpt>
      <trkpt lat="44.29765" lon="7.27418">
        <ele>1248.41</ele>
        <time>2021-01-26T12:56:51Z</time>
      </trkpt>
      <trkpt lat="44.29771" lon="7.27422">
        <ele>1247.93</ele>
        <time>2021-01-26T12:56:52Z</time>
      </trkpt>
      <trkpt lat="44.29802" lon="7.27439">
        <ele>1245.53</ele>
        <time>2021-01-26T12:56:58Z</time>
      </trkpt>
      <trkpt lat="44.29806" lon="7.27444">
        <ele>1245.04</ele>
        <time>2021-01-26T12:56:59Z</time>
      </trkpt>
      <trkpt lat="44.2981" lon="7.2745">
        <ele>1244.08</ele>
        <time>2021-01-26T12:57:00Z</time>
      </trkpt>
      <trkpt lat="44.29812" lon="7.27456">
        <ele>1243.6</ele>
        <time>2021-01-26T12:57:01Z</time>
      </trkpt>
      <trkpt lat="44.29813" lon="7.27463">
        <ele>1243.12</ele>
        <time>2021-01-26T12:57:02Z</time>
      </trkpt>
      <trkpt lat="44.29813" lon="7.2747">
        <ele>1242.64</ele>
        <time>2021-01-26T12:57:03Z</time>
      </trkpt>
      <trkpt lat="44.29812" lon="7.27477">
        <ele>1242.16</ele>
        <time>2021-01-26T12:57:04Z</time>
      </trkpt>
      <trkpt lat="44.2981" lon="7.27534">
        <ele>1238.8</ele>
        <time>2021-01-26T12:57:16Z</time>
      </trkpt>
      <trkpt lat="44.29807" lon="7.27565">
        <ele>1234.47</ele>
        <time>2021-01-26T12:57:28Z</time>
      </trkpt>
      <trkpt lat="44.29804" lon="7.27599">
        <ele>1231.11</ele>
        <time>2021-01-26T12:57:39Z</time>
      </trkpt>
      <trkpt lat="44.29802" lon="7.27614">
        <ele>1230.14</ele>
        <time>2021-01-26T12:57:45Z</time>
      </trkpt>
      <trkpt lat="44.29801" lon="7.27616">
        <ele>1230.14</ele>
        <time>2021-01-26T12:57:46Z</time>
      </trkpt>
      <trkpt lat="44.2979" lon="7.2764">
        <ele>1226.78</ele>
        <time>2021-01-26T12:57:59Z</time>
      </trkpt>
      <trkpt lat="44.29792" lon="7.27681">
        <ele>1228.7</ele>
        <time>2021-01-26T12:58:09Z</time>
      </trkpt>
      <trkpt lat="44.29796" lon="7.27748">
        <ele>1234.47</ele>
        <time>2021-01-26T12:58:23Z</time>
      </trkpt>
      <trkpt lat="44.29796" lon="7.27817">
        <ele>1233.51</ele>
        <time>2021-01-26T12:58:39Z</time>
      </trkpt>
      <trkpt lat="44.29777" lon="7.27855">
        <ele>1230.62</ele>
        <time>2021-01-26T12:58:52Z</time>
      </trkpt>
      <trkpt lat="44.2975" lon="7.27882">
        <ele>1229.18</ele>
        <time>2021-01-26T12:59:01Z</time>
      </trkpt>
      <trkpt lat="44.29748" lon="7.27886">
        <ele>1229.18</ele>
        <time>2021-01-26T12:59:02Z</time>
      </trkpt>
      <trkpt lat="44.29743" lon="7.27896">
        <ele>1229.18</ele>
        <time>2021-01-26T12:59:04Z</time>
      </trkpt>
      <trkpt lat="44.29732" lon="7.2792">
        <ele>1228.22</ele>
        <time>2021-01-26T12:59:09Z</time>
      </trkpt>
      <trkpt lat="44.29727" lon="7.27922">
        <ele>1228.22</ele>
        <time>2021-01-26T12:59:10Z</time>
      </trkpt>
      <trkpt lat="44.29722" lon="7.27924">
        <ele>1228.22</ele>
        <time>2021-01-26T12:59:11Z</time>
      </trkpt>
      <trkpt lat="44.29717" lon="7.27926">
        <ele>1227.74</ele>
        <time>2021-01-26T12:59:12Z</time>
      </trkpt>
      <trkpt lat="44.29711" lon="7.27927">
        <ele>1227.26</ele>
        <time>2021-01-26T12:59:13Z</time>
      </trkpt>
      <trkpt lat="44.29705" lon="7.27929">
        <ele>1226.78</ele>
        <time>2021-01-26T12:59:14Z</time>
      </trkpt>
      <trkpt lat="44.297" lon="7.27933">
        <ele>1226.78</ele>
        <time>2021-01-26T12:59:15Z</time>
      </trkpt>
      <trkpt lat="44.29694" lon="7.27938">
        <ele>1226.3</ele>
        <time>2021-01-26T12:59:16Z</time>
      </trkpt>
      <trkpt lat="44.29689" lon="7.27943">
        <ele>1225.82</ele>
        <time>2021-01-26T12:59:17Z</time>
      </trkpt>
      <trkpt lat="44.29684" lon="7.27949">
        <ele>1225.34</ele>
        <time>2021-01-26T12:59:18Z</time>
      </trkpt>
      <trkpt lat="44.2968" lon="7.27955">
        <ele>1224.86</ele>
        <time>2021-01-26T12:59:19Z</time>
      </trkpt>
      <trkpt lat="44.29653" lon="7.28019">
        <ele>1220.05</ele>
        <time>2021-01-26T12:59:31Z</time>
      </trkpt>
      <trkpt lat="44.29645" lon="7.28045">
        <ele>1218.13</ele>
        <time>2021-01-26T12:59:36Z</time>
      </trkpt>
      <trkpt lat="44.29644" lon="7.28051">
        <ele>1218.13</ele>
        <time>2021-01-26T12:59:37Z</time>
      </trkpt>
      <trkpt lat="44.29644" lon="7.28057">
        <ele>1217.17</ele>
        <time>2021-01-26T12:59:38Z</time>
      </trkpt>
      <trkpt lat="44.29646" lon="7.28062">
        <ele>1216.69</ele>
        <time>2021-01-26T12:59:39Z</time>
      </trkpt>
      <trkpt lat="44.2965" lon="7.28065">
        <ele>1215.72</ele>
        <time>2021-01-26T12:59:40Z</time>
      </trkpt>
      <trkpt lat="44.29654" lon="7.28065">
        <ele>1214.76</ele>
        <time>2021-01-26T12:59:41Z</time>
      </trkpt>
      <trkpt lat="44.29659" lon="7.28063">
        <ele>1214.28</ele>
        <time>2021-01-26T12:59:42Z</time>
      </trkpt>
      <trkpt lat="44.29664" lon="7.2806">
        <ele>1213.32</ele>
        <time>2021-01-26T12:59:43Z</time>
      </trkpt>
      <trkpt lat="44.29669" lon="7.28055">
        <ele>1212.84</ele>
        <time>2021-01-26T12:59:44Z</time>
      </trkpt>
      <trkpt lat="44.29704" lon="7.28025">
        <ele>1206.11</ele>
        <time>2021-01-26T12:59:52Z</time>
      </trkpt>
      <trkpt lat="44.29709" lon="7.28024">
        <ele>1205.63</ele>
        <time>2021-01-26T12:59:53Z</time>
      </trkpt>
      <trkpt lat="44.29714" lon="7.28026">
        <ele>1204.67</ele>
        <time>2021-01-26T12:59:54Z</time>
      </trkpt>
      <trkpt lat="44.29719" lon="7.2803">
        <ele>1203.71</ele>
        <time>2021-01-26T12:59:55Z</time>
      </trkpt>
      <trkpt lat="44.29723" lon="7.28036">
        <ele>1202.75</ele>
        <time>2021-01-26T12:59:56Z</time>
      </trkpt>
      <trkpt lat="44.29726" lon="7.28043">
        <ele>1201.79</ele>
        <time>2021-01-26T12:59:57Z</time>
      </trkpt>
      <trkpt lat="44.29727" lon="7.2805">
        <ele>1201.3</ele>
        <time>2021-01-26T12:59:58Z</time>
      </trkpt>
      <trkpt lat="44.29728" lon="7.28057">
        <ele>1200.82</ele>
        <time>2021-01-26T12:59:59Z</time>
      </trkpt>
      <trkpt lat="44.29728" lon="7.28064">
        <ele>1200.34</ele>
        <time>2021-01-26T13:00:00Z</time>
      </trkpt>
      <trkpt lat="44.29728" lon="7.28076">
        <ele>1199.38</ele>
        <time>2021-01-26T13:00:02Z</time>
      </trkpt>
      <trkpt lat="44.29728" lon="7.28082">
        <ele>1198.9</ele>
        <time>2021-01-26T13:00:03Z</time>
      </trkpt>
      <trkpt lat="44.29726" lon="7.28088">
        <ele>1198.42</ele>
        <time>2021-01-26T13:00:04Z</time>
      </trkpt>
      <trkpt lat="44.29724" lon="7.28095">
        <ele>1197.94</ele>
        <time>2021-01-26T13:00:05Z</time>
      </trkpt>
      <trkpt lat="44.29721" lon="7.28101">
        <ele>1197.46</ele>
        <time>2021-01-26T13:00:06Z</time>
      </trkpt>
      <trkpt lat="44.29718" lon="7.28107">
        <ele>1196.98</ele>
        <time>2021-01-26T13:00:07Z</time>
      </trkpt>
      <trkpt lat="44.29714" lon="7.28112">
        <ele>1196.98</ele>
        <time>2021-01-26T13:00:08Z</time>
      </trkpt>
      <trkpt lat="44.2969" lon="7.28154">
        <ele>1195.54</ele>
        <time>2021-01-26T13:00:15Z</time>
      </trkpt>
      <trkpt lat="44.29685" lon="7.28166">
        <ele>1195.06</ele>
        <time>2021-01-26T13:00:17Z</time>
      </trkpt>
      <trkpt lat="44.29644" lon="7.28231">
        <ele>1193.61</ele>
        <time>2021-01-26T13:00:29Z</time>
      </trkpt>
      <trkpt lat="44.29639" lon="7.2824">
        <ele>1193.13</ele>
        <time>2021-01-26T13:00:31Z</time>
      </trkpt>
      <trkpt lat="44.29615" lon="7.28284">
        <ele>1190.25</ele>
        <time>2021-01-26T13:00:38Z</time>
      </trkpt>
      <trkpt lat="44.29591" lon="7.2833">
        <ele>1186.4</ele>
        <time>2021-01-26T13:00:45Z</time>
      </trkpt>
      <trkpt lat="44.2959" lon="7.28337">
        <ele>1186.4</ele>
        <time>2021-01-26T13:00:46Z</time>
      </trkpt>
      <trkpt lat="44.29589" lon="7.28344">
        <ele>1185.92</ele>
        <time>2021-01-26T13:00:47Z</time>
      </trkpt>
      <trkpt lat="44.2959" lon="7.2835">
        <ele>1185.44</ele>
        <time>2021-01-26T13:00:48Z</time>
      </trkpt>
      <trkpt lat="44.2959" lon="7.28355">
        <ele>1185.44</ele>
        <time>2021-01-26T13:00:49Z</time>
      </trkpt>
      <trkpt lat="44.29591" lon="7.28361">
        <ele>1184.96</ele>
        <time>2021-01-26T13:00:50Z</time>
      </trkpt>
      <trkpt lat="44.29592" lon="7.28366">
        <ele>1184.48</ele>
        <time>2021-01-26T13:00:51Z</time>
      </trkpt>
      <trkpt lat="44.29592" lon="7.28371">
        <ele>1184.48</ele>
        <time>2021-01-26T13:00:52Z</time>
      </trkpt>
      <trkpt lat="44.29592" lon="7.28376">
        <ele>1184</ele>
        <time>2021-01-26T13:00:53Z</time>
      </trkpt>
      <trkpt lat="44.29592" lon="7.28381">
        <ele>1184</ele>
        <time>2021-01-26T13:00:54Z</time>
      </trkpt>
      <trkpt lat="44.29587" lon="7.28415">
        <ele>1182.08</ele>
        <time>2021-01-26T13:01:05Z</time>
      </trkpt>
      <trkpt lat="44.29587" lon="7.28419">
        <ele>1182.08</ele>
        <time>2021-01-26T13:01:06Z</time>
      </trkpt>
      <trkpt lat="44.29587" lon="7.28423">
        <ele>1182.08</ele>
        <time>2021-01-26T13:01:07Z</time>
      </trkpt>
      <trkpt lat="44.29585" lon="7.28443">
        <ele>1182.08</ele>
        <time>2021-01-26T13:01:13Z</time>
      </trkpt>
      <trkpt lat="44.29585" lon="7.28445">
        <ele>1182.08</ele>
        <time>2021-01-26T13:01:14Z</time>
      </trkpt>
      <trkpt lat="44.29584" lon="7.28448">
        <ele>1182.08</ele>
        <time>2021-01-26T13:01:15Z</time>
      </trkpt>
      <trkpt lat="44.29584" lon="7.28451">
        <ele>1181.6</ele>
        <time>2021-01-26T13:01:16Z</time>
      </trkpt>
      <trkpt lat="44.29583" lon="7.28455">
        <ele>1181.6</ele>
        <time>2021-01-26T13:01:17Z</time>
      </trkpt>
      <trkpt lat="44.29582" lon="7.28458">
        <ele>1181.6</ele>
        <time>2021-01-26T13:01:18Z</time>
      </trkpt>
      <trkpt lat="44.29582" lon="7.28461">
        <ele>1181.6</ele>
        <time>2021-01-26T13:01:19Z</time>
      </trkpt>
      <trkpt lat="44.29572" lon="7.285">
        <ele>1180.64</ele>
        <time>2021-01-26T13:01:32Z</time>
      </trkpt>
      <trkpt lat="44.29573" lon="7.28539">
        <ele>1177.27</ele>
        <time>2021-01-26T13:01:44Z</time>
      </trkpt>
      <trkpt lat="44.29575" lon="7.28554">
        <ele>1174.39</ele>
        <time>2021-01-26T13:01:58Z</time>
      </trkpt>
      <trkpt lat="44.29574" lon="7.28556">
        <ele>1172.95</ele>
        <time>2021-01-26T13:02:12Z</time>
      </trkpt>
      <trkpt lat="44.29574" lon="7.28561">
        <ele>1175.83</ele>
        <time>2021-01-26T13:02:27Z</time>
      </trkpt>
      <trkpt lat="44.29569" lon="7.28582">
        <ele>1176.79</ele>
        <time>2021-01-26T13:02:44Z</time>
      </trkpt>
      <trkpt lat="44.29564" lon="7.28606">
        <ele>1176.79</ele>
        <time>2021-01-26T13:03:02Z</time>
      </trkpt>
      <trkpt lat="44.29564" lon="7.28606">
        <ele>1177.75</ele>
        <time>2021-01-26T13:03:14Z</time>
      </trkpt>
      <trkpt lat="44.29561" lon="7.28605">
        <ele>1178.23</ele>
        <time>2021-01-26T13:03:25Z</time>
      </trkpt>
      <trkpt lat="44.29566" lon="7.28606">
        <ele>1178.23</ele>
        <time>2021-01-26T13:03:38Z</time>
      </trkpt>
      <trkpt lat="44.29566" lon="7.28607">
        <ele>1177.27</ele>
        <time>2021-01-26T13:03:53Z</time>
      </trkpt>
      <trkpt lat="44.29569" lon="7.28601">
        <ele>1180.16</ele>
        <time>2021-01-26T13:04:24Z</time>
      </trkpt>
      <trkpt lat="44.29567" lon="7.28601">
        <ele>1182.56</ele>
        <time>2021-01-26T13:04:52Z</time>
      </trkpt>
      <trkpt lat="44.29569" lon="7.28602">
        <ele>1181.12</ele>
        <time>2021-01-26T13:05:20Z</time>
      </trkpt>
      <trkpt lat="44.29567" lon="7.28599">
        <ele>1183.52</ele>
        <time>2021-01-26T13:05:59Z</time>
      </trkpt>
      <trkpt lat="44.29568" lon="7.286">
        <ele>1180.16</ele>
        <time>2021-01-26T13:06:30Z</time>
      </trkpt>
      <trkpt lat="44.2957" lon="7.28602">
        <ele>1178.23</ele>
        <time>2021-01-26T13:07:01Z</time>
      </trkpt>
      <trkpt lat="44.29571" lon="7.28601">
        <ele>1179.19</ele>
        <time>2021-01-26T13:07:28Z</time>
      </trkpt>
      <trkpt lat="44.2957" lon="7.28605">
        <ele>1180.16</ele>
        <time>2021-01-26T13:07:53Z</time>
      </trkpt>
      <trkpt lat="44.29566" lon="7.28605">
        <ele>1178.71</ele>
        <time>2021-01-26T13:08:31Z</time>
      </trkpt>
      <trkpt lat="44.29564" lon="7.28605">
        <ele>1180.16</ele>
        <time>2021-01-26T13:08:50Z</time>
      </trkpt>
    </trkseg>
  </trk>
</gpx>